Time,TemperatureF,DewpointF,PressureIn,WindDirection,WindDirectionDegrees,WindSpeedMPH,WindSpeedGustMPH,Humidity,HourlyPrecipIn,Conditions,Clouds,dailyrainin,SoftwareType,DateUTC
2013-02-01 00:00:00,53.1,14.2,29.56,NNW,338,6.5,6.5,21,0.00,,---,0.00,VWS V14.01,2013-01-31 22:00:00,
2013-02-01 00:01:00,53.1,14.2,29.56,North,0,7.8,7.8,21,0.00,,---,0.00,VWS V14.01,2013-01-31 22:01:00,
2013-02-01 00:02:00,53.1,14.2,29.56,NNE,22,3.1,7.8,21,0.00,,---,0.00,VWS V14.01,2013-01-31 22:02:00,
2013-02-01 00:04:00,53.4,14.5,29.56,NNE,22,7.6,7.6,21,0.00,,---,0.00,VWS V14.01,2013-01-31 22:04:00,
2013-02-01 00:06:00,53.4,14.5,29.56,NNW,338,11.0,11.0,21,0.00,,---,0.00,VWS V14.01,2013-01-31 22:06:00,
2013-02-01 00:07:00,53.6,13.5,29.56,North,0,6.5,11.0,20,0.00,,---,0.00,VWS V14.01,2013-01-31 22:07:00,
2013-02-01 00:08:00,53.6,13.5,29.56,North,0,6.3,6.5,20,0.00,,---,0.00,VWS V14.01,2013-01-31 22:08:00,
2013-02-01 00:09:00,53.8,13.7,29.56,NNW,338,5.4,6.3,20,0.00,,---,0.00,VWS V14.01,2013-01-31 22:09:00,
2013-02-01 00:10:00,53.8,13.7,29.56,NNW,338,6.3,6.3,20,0.00,,---,0.00,VWS V14.01,2013-01-31 22:10:00,
2013-02-01 00:11:00,53.8,13.7,29.56,NNW,338,2.7,6.3,20,0.00,,---,0.00,VWS V14.01,2013-01-31 22:11:00,
2013-02-01 00:12:00,53.8,13.7,29.56,NNW,338,6.3,6.3,20,0.00,,---,0.00,VWS V14.01,2013-01-31 22:12:00,
2013-02-01 00:13:00,53.8,13.7,29.56,North,0,11.0,11.0,20,0.00,,---,0.00,VWS V14.01,2013-01-31 22:13:00,
2013-02-01 00:14:00,53.8,13.7,29.56,NNE,22,6.0,11.0,20,0.00,,---,0.00,VWS V14.01,2013-01-31 22:14:00,
2013-02-01 00:15:00,53.8,13.7,29.56,North,0,8.5,8.5,20,0.00,,---,0.00,VWS V14.01,2013-01-31 22:15:00,
2013-02-01 00:16:00,53.8,13.7,29.56,NNE,22,15.2,15.2,20,0.00,,---,0.00,VWS V14.01,2013-01-31 22:16:00,
2013-02-01 00:17:00,53.8,13.7,29.56,North,0,5.8,15.2,20,0.00,,---,0.00,VWS V14.01,2013-01-31 22:17:00,
2013-02-01 00:18:00,53.8,13.7,29.56,NNW,338,5.6,5.8,20,0.00,,---,0.00,VWS V14.01,2013-01-31 22:18:00,
2013-02-01 00:19:00,53.8,13.7,29.56,NNW,338,12.1,12.1,20,0.00,,---,0.00,VWS V14.01,2013-01-31 22:19:00,
2013-02-01 00:21:00,53.8,13.7,29.56,ENE,68,8.7,12.1,20,0.00,,---,0.00,VWS V14.01,2013-01-31 22:21:00,
2013-02-01 00:22:00,53.8,13.7,29.56,NNE,22,7.8,8.7,20,0.00,,---,0.00,VWS V14.01,2013-01-31 22:22:00,
2013-02-01 00:23:00,53.8,13.7,29.56,NNW,338,7.8,7.8,20,0.00,,---,0.00,VWS V14.01,2013-01-31 22:23:00,
2013-02-01 00:24:00,53.6,13.5,29.56,North,0,6.0,7.8,20,0.00,,---,0.00,VWS V14.01,2013-01-31 22:24:00,
2013-02-01 00:25:00,53.6,13.5,29.56,North,0,6.5,6.5,20,0.00,,---,0.00,VWS V14.01,2013-01-31 22:25:00,
2013-02-01 00:26:00,53.6,13.5,29.56,NNE,22,7.8,7.8,20,0.00,,---,0.00,VWS V14.01,2013-01-31 22:26:00,
2013-02-01 00:27:00,53.6,13.5,29.56,NNE,22,5.6,7.8,20,0.00,,---,0.00,VWS V14.01,2013-01-31 22:27:00,
2013-02-01 00:28:00,53.6,13.5,29.56,North,0,5.4,5.6,20,0.00,,---,0.00,VWS V14.01,2013-01-31 22:28:00,
2013-02-01 00:29:00,53.6,13.5,29.56,NE,45,8.5,8.5,20,0.00,,---,0.00,VWS V14.01,2013-01-31 22:29:00,
2013-02-01 00:30:00,53.4,14.5,29.56,North,0,6.5,8.5,21,0.00,,---,0.00,VWS V14.01,2013-01-31 22:30:00,
2013-02-01 00:31:00,53.4,14.5,29.56,NNE,22,5.8,6.5,21,0.00,,---,0.00,VWS V14.01,2013-01-31 22:31:00,
2013-02-01 00:32:00,53.4,14.5,29.56,NNE,22,7.8,7.8,21,0.00,,---,0.00,VWS V14.01,2013-01-31 22:32:00,
2013-02-01 00:33:00,53.4,14.5,29.56,NNE,22,7.2,7.8,21,0.00,,---,0.00,VWS V14.01,2013-01-31 22:33:00,
2013-02-01 00:34:00,53.2,14.3,29.56,NNE,22,8.5,8.5,21,0.00,,---,0.00,VWS V14.01,2013-01-31 22:34:00,
2013-02-01 00:35:00,53.2,14.3,29.56,North,0,5.6,8.5,21,0.00,,---,0.00,VWS V14.01,2013-01-31 22:35:00,
2013-02-01 00:36:00,53.2,14.3,29.56,NE,45,5.8,5.8,21,0.00,,---,0.00,VWS V14.01,2013-01-31 22:36:00,
2013-02-01 00:37:00,53.2,14.3,29.56,NNE,22,5.6,5.8,21,0.00,,---,0.00,VWS V14.01,2013-01-31 22:37:00,
2013-02-01 00:38:00,53.2,14.3,29.56,North,0,5.8,5.8,21,0.00,,---,0.00,VWS V14.01,2013-01-31 22:38:00,
2013-02-01 00:39:00,53.2,14.3,29.56,NE,45,5.6,5.8,21,0.00,,---,0.00,VWS V14.01,2013-01-31 22:39:00,
2013-02-01 00:40:00,53.1,14.2,29.56,NNE,22,6.3,6.3,21,0.00,,---,0.00,VWS V14.01,2013-01-31 22:40:00,
2013-02-01 00:41:00,53.1,14.2,29.56,NNW,338,5.6,6.3,21,0.00,,---,0.00,VWS V14.01,2013-01-31 22:41:00,
2013-02-01 00:42:00,53.1,14.2,29.56,NNE,22,7.6,7.6,21,0.00,,---,0.00,VWS V14.01,2013-01-31 22:42:00,
2013-02-01 00:43:00,53.1,14.2,29.56,ENE,68,5.8,7.6,21,0.00,,---,0.00,VWS V14.01,2013-01-31 22:43:00,
2013-02-01 00:44:00,53.1,14.2,29.56,NNE,22,6.5,6.5,21,0.00,,---,0.00,VWS V14.01,2013-01-31 22:44:00,
2013-02-01 00:45:00,53.1,14.2,29.56,NNW,338,6.0,6.5,21,0.00,,---,0.00,VWS V14.01,2013-01-31 22:45:00,
2013-02-01 00:46:00,53.1,14.2,29.56,NNE,22,8.7,8.7,21,0.00,,---,0.00,VWS V14.01,2013-01-31 22:46:00,
2013-02-01 00:47:00,53.1,14.2,29.56,North,0,5.8,8.7,21,0.00,,---,0.00,VWS V14.01,2013-01-31 22:47:00,
2013-02-01 00:48:00,53.1,14.2,29.56,North,0,4.9,5.8,21,0.00,,---,0.00,VWS V14.01,2013-01-31 22:48:00,
2013-02-01 00:49:00,53.1,14.2,29.56,NNE,22,4.3,4.9,21,0.00,,---,0.00,VWS V14.01,2013-01-31 22:49:00,
2013-02-01 00:50:00,53.1,14.2,29.56,NNE,22,7.6,7.6,21,0.00,,---,0.00,VWS V14.01,2013-01-31 22:50:00,
2013-02-01 00:51:00,53.1,14.2,29.56,NNW,338,7.6,7.6,21,0.00,,---,0.00,VWS V14.01,2013-01-31 22:51:00,
2013-02-01 00:52:00,53.1,14.2,29.56,North,0,6.5,7.6,21,0.00,,---,0.00,VWS V14.01,2013-01-31 22:52:00,
2013-02-01 00:53:00,53.1,14.2,29.56,North,0,6.9,6.9,21,0.00,,---,0.00,VWS V14.01,2013-01-31 22:53:00,
2013-02-01 00:54:00,53.1,14.2,29.56,North,0,6.5,6.9,21,0.00,,---,0.00,VWS V14.01,2013-01-31 22:54:00,
2013-02-01 00:55:00,53.1,14.2,29.56,North,0,4.9,6.5,21,0.00,,---,0.00,VWS V14.01,2013-01-31 22:55:00,
2013-02-01 00:56:00,53.1,14.2,29.56,ENE,68,3.4,4.9,21,0.00,,---,0.00,VWS V14.01,2013-01-31 22:56:00,
2013-02-01 00:57:00,53.1,14.2,29.56,North,0,11.0,11.0,21,0.00,,---,0.00,VWS V14.01,2013-01-31 22:57:00,
2013-02-01 00:58:00,53.1,14.2,29.56,NNE,22,11.9,11.9,21,0.00,,---,0.00,VWS V14.01,2013-01-31 22:58:00,
2013-02-01 00:59:00,53.1,14.2,29.56,NNE,22,5.6,11.9,21,0.00,,---,0.00,VWS V14.01,2013-01-31 22:59:00,
2013-02-01 01:00:00,53.1,14.2,29.56,North,0,8.7,8.7,21,0.00,,---,0.00,VWS V14.01,2013-01-31 23:00:00,
2013-02-01 01:01:00,53.1,14.2,29.56,North,0,8.5,8.7,21,0.00,,---,0.00,VWS V14.01,2013-01-31 23:01:00,
2013-02-01 01:02:00,53.1,14.2,29.56,NNE,22,7.4,8.5,21,0.00,,---,0.00,VWS V14.01,2013-01-31 23:02:00,
2013-02-01 01:04:00,52.9,14.0,29.56,NNE,22,7.6,7.6,21,0.00,,---,0.00,VWS V14.01,2013-01-31 23:04:00,
2013-02-01 01:05:00,52.9,14.0,29.56,North,0,5.4,7.6,21,0.00,,---,0.00,VWS V14.01,2013-01-31 23:05:00,
2013-02-01 01:06:00,52.9,14.0,29.56,NNW,338,8.7,8.7,21,0.00,,---,0.00,VWS V14.01,2013-01-31 23:06:00,
2013-02-01 01:07:00,52.7,13.9,29.56,NNE,22,5.4,8.7,21,0.00,,---,0.00,VWS V14.01,2013-01-31 23:07:00,
2013-02-01 01:08:00,52.7,13.9,29.56,NNE,22,4.3,5.4,21,0.00,,---,0.00,VWS V14.01,2013-01-31 23:08:00,
2013-02-01 01:09:00,52.7,13.9,29.56,NNE,22,3.6,4.3,21,0.00,,---,0.00,VWS V14.01,2013-01-31 23:09:00,
2013-02-01 01:10:00,52.5,13.7,29.56,NE,45,2.7,3.6,21,0.00,,---,0.00,VWS V14.01,2013-01-31 23:10:00,
2013-02-01 01:11:00,52.5,13.7,29.56,NNW,338,2.5,2.7,21,0.00,,---,0.00,VWS V14.01,2013-01-31 23:11:00,
2013-02-01 01:12:00,52.5,13.7,29.56,North,0,8.1,8.1,21,0.00,,---,0.00,VWS V14.01,2013-01-31 23:12:00,
2013-02-01 01:13:00,52.5,13.7,29.56,NNE,22,6.0,8.1,21,0.00,,---,0.00,VWS V14.01,2013-01-31 23:13:00,
2013-02-01 01:14:00,52.5,13.7,29.56,North,0,2.2,6.0,21,0.00,,---,0.00,VWS V14.01,2013-01-31 23:14:00,
2013-02-01 01:15:00,52.5,13.7,29.56,NNW,338,3.8,3.8,21,0.00,,---,0.00,VWS V14.01,2013-01-31 23:15:00,
2013-02-01 01:16:00,52.5,13.7,29.56,North,0,4.9,4.9,21,0.00,,---,0.00,VWS V14.01,2013-01-31 23:16:00,
2013-02-01 01:17:00,52.5,13.7,29.56,NNE,22,7.4,7.4,21,0.00,,---,0.00,VWS V14.01,2013-01-31 23:17:00,
2013-02-01 01:18:00,52.5,13.7,29.56,North,0,3.8,7.4,21,0.00,,---,0.00,VWS V14.01,2013-01-31 23:18:00,
2013-02-01 01:19:00,52.5,13.7,29.56,NNW,338,4.0,4.0,21,0.00,,---,0.00,VWS V14.01,2013-01-31 23:19:00,
2013-02-01 01:20:00,52.5,13.7,29.56,NNE,22,3.1,4.0,21,0.00,,---,0.00,VWS V14.01,2013-01-31 23:20:00,
2013-02-01 01:21:00,52.5,13.7,29.56,North,0,2.9,3.1,21,0.00,,---,0.00,VWS V14.01,2013-01-31 23:21:00,
2013-02-01 01:22:00,52.5,13.7,29.56,NNW,338,3.4,3.4,21,0.00,,---,0.00,VWS V14.01,2013-01-31 23:22:00,
2013-02-01 01:23:00,52.5,13.7,29.56,NNE,22,3.8,3.8,21,0.00,,---,0.00,VWS V14.01,2013-01-31 23:23:00,
2013-02-01 01:24:00,52.3,13.6,29.56,NW,315,2.9,3.8,21,0.00,,---,0.00,VWS V14.01,2013-01-31 23:24:00,
2013-02-01 01:25:00,52.3,13.6,29.56,NW,315,3.8,3.8,21,0.00,,---,0.00,VWS V14.01,2013-01-31 23:25:00,
2013-02-01 01:26:00,52.3,13.6,29.56,NW,315,2.0,3.8,21,0.00,,---,0.00,VWS V14.01,2013-01-31 23:26:00,
2013-02-01 01:27:00,52.3,13.6,29.56,NNE,22,3.6,3.6,21,0.00,,---,0.00,VWS V14.01,2013-01-31 23:27:00,
2013-02-01 01:28:00,52.3,13.6,29.56,WNW,292,3.8,3.8,21,0.00,,---,0.00,VWS V14.01,2013-01-31 23:28:00,
2013-02-01 01:29:00,52.3,13.6,29.56,NNE,22,2.5,3.8,21,0.00,,---,0.00,VWS V14.01,2013-01-31 23:29:00,
2013-02-01 01:30:00,52.2,13.4,29.56,NNE,22,2.5,2.5,21,0.00,,---,0.00,VWS V14.01,2013-01-31 23:30:00,
2013-02-01 01:31:00,52.2,13.4,29.56,North,0,5.4,5.4,21,0.00,,---,0.00,VWS V14.01,2013-01-31 23:31:00,
2013-02-01 01:32:00,52.2,13.4,29.56,NNW,338,6.3,6.3,21,0.00,,---,0.00,VWS V14.01,2013-01-31 23:32:00,
2013-02-01 01:34:00,52.3,13.6,29.56,NNE,22,8.1,8.1,21,0.00,,---,0.00,VWS V14.01,2013-01-31 23:34:00,
2013-02-01 01:35:00,52.3,13.6,29.56,NNW,338,2.9,8.1,21,0.00,,---,0.00,VWS V14.01,2013-01-31 23:35:00,
2013-02-01 01:36:00,52.3,13.6,29.56,NNW,338,3.8,3.8,21,0.00,,---,0.00,VWS V14.01,2013-01-31 23:36:00,
2013-02-01 01:37:00,52.3,13.6,29.56,NNE,22,3.4,3.8,21,0.00,,---,0.00,VWS V14.01,2013-01-31 23:37:00,
2013-02-01 01:38:00,52.2,13.4,29.59,North,0,3.4,3.4,21,0.00,,---,0.00,VWS V14.01,2013-01-31 23:38:00,
2013-02-01 01:39:00,52.2,13.4,29.59,North,0,1.1,3.4,21,0.00,,---,0.00,VWS V14.01,2013-01-31 23:39:00,
2013-02-01 01:40:00,52.2,13.4,29.59,NNE,22,3.8,3.8,21,0.00,,---,0.00,VWS V14.01,2013-01-31 23:40:00,
2013-02-01 01:42:00,52.2,13.4,29.59,NNW,338,6.5,6.5,21,0.00,,---,0.00,VWS V14.01,2013-01-31 23:42:00,
2013-02-01 01:43:00,52.2,13.4,29.59,NNW,338,6.0,6.5,21,0.00,,---,0.00,VWS V14.01,2013-01-31 23:43:00,
2013-02-01 01:44:00,52.2,13.4,29.59,North,0,2.7,6.0,21,0.00,,---,0.00,VWS V14.01,2013-01-31 23:44:00,
2013-02-01 01:45:00,52.2,13.4,29.59,NE,45,3.1,3.1,21,0.00,,---,0.00,VWS V14.01,2013-01-31 23:45:00,
2013-02-01 01:46:00,52.2,13.4,29.59,NNW,338,5.4,5.4,21,0.00,,---,0.00,VWS V14.01,2013-01-31 23:46:00,
2013-02-01 01:47:00,52.2,13.4,29.59,North,0,3.1,5.4,21,0.00,,---,0.00,VWS V14.01,2013-01-31 23:47:00,
2013-02-01 01:48:00,52.2,13.4,29.59,NW,315,3.6,3.6,21,0.00,,---,0.00,VWS V14.01,2013-01-31 23:48:00,
2013-02-01 01:49:00,52.2,13.4,29.59,WSW,248,5.4,5.4,21,0.00,,---,0.00,VWS V14.01,2013-01-31 23:49:00,
2013-02-01 01:50:00,52.3,13.6,29.59,ENE,68,2.7,5.4,21,0.00,,---,0.00,VWS V14.01,2013-01-31 23:50:00,
2013-02-01 01:51:00,52.3,13.6,29.59,North,0,6.3,6.3,21,0.00,,---,0.00,VWS V14.01,2013-01-31 23:51:00,
2013-02-01 01:52:00,52.3,13.6,29.59,NNW,338,4.7,6.3,21,0.00,,---,0.00,VWS V14.01,2013-01-31 23:52:00,
2013-02-01 01:53:00,52.3,13.6,29.56,NE,45,6.0,6.0,21,0.00,,---,0.00,VWS V14.01,2013-01-31 23:53:00,
2013-02-01 01:54:00,52.3,13.6,29.56,NE,45,7.8,7.8,21,0.00,,---,0.00,VWS V14.01,2013-01-31 23:54:00,
2013-02-01 01:55:00,52.3,13.6,29.56,NNW,338,3.1,7.8,21,0.00,,---,0.00,VWS V14.01,2013-01-31 23:55:00,
2013-02-01 01:56:00,52.3,13.6,29.56,NNW,338,3.1,3.1,21,0.00,,---,0.00,VWS V14.01,2013-01-31 23:56:00,
2013-02-01 01:57:00,52.5,13.7,29.56,NNE,22,3.8,3.8,21,0.00,,---,0.00,VWS V14.01,2013-01-31 23:57:00,
2013-02-01 01:58:00,52.5,13.7,29.56,NNW,338,3.8,3.8,21,0.00,,---,0.00,VWS V14.01,2013-01-31 23:58:00,
2013-02-01 01:59:00,52.5,13.7,29.56,NNW,338,4.7,4.7,21,0.00,,---,0.00,VWS V14.01,2013-01-31 23:59:00,
2013-02-01 02:00:00,52.5,13.7,29.56,NNE,22,6.0,6.0,21,0.00,,---,0.00,VWS V14.01,2013-02-01 00:00:00,
2013-02-01 02:01:00,52.5,15.8,29.56,North,0,3.8,6.0,23,0.00,,---,0.00,VWS V14.01,2013-02-01 00:01:00,
2013-02-01 02:03:00,52.3,15.7,29.56,NNW,338,5.4,5.4,23,0.00,,---,0.00,VWS V14.01,2013-02-01 00:03:00,
2013-02-01 02:04:00,52.3,15.7,29.56,ENE,68,3.1,5.4,23,0.00,,---,0.00,VWS V14.01,2013-02-01 00:04:00,
2013-02-01 02:05:00,52.3,15.7,29.56,NNW,338,5.8,5.8,23,0.00,,---,0.00,VWS V14.01,2013-02-01 00:05:00,
2013-02-01 02:06:00,52.3,15.7,29.56,NNW,338,6.7,6.7,23,0.00,,---,0.00,VWS V14.01,2013-02-01 00:06:00,
2013-02-01 02:07:00,52.3,15.7,29.56,NE,45,6.0,6.7,23,0.00,,---,0.00,VWS V14.01,2013-02-01 00:07:00,
2013-02-01 02:08:00,52.3,15.7,29.56,NNW,338,4.7,6.0,23,0.00,,---,0.00,VWS V14.01,2013-02-01 00:08:00,
2013-02-01 02:09:00,52.3,15.7,29.56,ENE,68,3.4,4.7,23,0.00,,---,0.00,VWS V14.01,2013-02-01 00:09:00,
2013-02-01 02:10:00,52.3,15.7,29.56,NE,45,3.4,3.4,23,0.00,,---,0.00,VWS V14.01,2013-02-01 00:10:00,
2013-02-01 02:11:00,52.3,15.7,29.56,NNW,338,6.3,6.3,23,0.00,,---,0.00,VWS V14.01,2013-02-01 00:11:00,
2013-02-01 02:12:00,52.3,15.7,29.56,North,0,5.4,6.3,23,0.00,,---,0.00,VWS V14.01,2013-02-01 00:12:00,
2013-02-01 02:13:00,52.3,15.7,29.56,NNW,338,4.9,5.4,23,0.00,,---,0.00,VWS V14.01,2013-02-01 00:13:00,
2013-02-01 02:14:00,52.3,15.7,29.56,NNE,22,5.4,5.4,23,0.00,,---,0.00,VWS V14.01,2013-02-01 00:14:00,
2013-02-01 02:15:00,52.3,15.7,29.56,North,0,2.7,5.4,23,0.00,,---,0.00,VWS V14.01,2013-02-01 00:15:00,
2013-02-01 02:16:00,52.3,15.7,29.56,NNE,22,4.9,4.9,23,0.00,,---,0.00,VWS V14.01,2013-02-01 00:16:00,
2013-02-01 02:17:00,52.3,15.7,29.56,NE,45,5.4,5.4,23,0.00,,---,0.00,VWS V14.01,2013-02-01 00:17:00,
2013-02-01 02:18:00,52.2,15.5,29.56,NNE,22,4.9,5.4,23,0.00,,---,0.00,VWS V14.01,2013-02-01 00:18:00,
2013-02-01 02:19:00,52.2,15.5,29.56,NNE,22,7.8,7.8,23,0.00,,---,0.00,VWS V14.01,2013-02-01 00:19:00,
2013-02-01 02:20:00,52.2,15.5,29.56,NNW,338,7.2,7.8,23,0.00,,---,0.00,VWS V14.01,2013-02-01 00:20:00,
2013-02-01 02:21:00,52.2,15.5,29.56,NNW,338,2.7,7.2,23,0.00,,---,0.00,VWS V14.01,2013-02-01 00:21:00,
2013-02-01 02:22:00,52.0,15.4,29.56,NNE,22,3.6,3.6,23,0.00,,---,0.00,VWS V14.01,2013-02-01 00:22:00,
2013-02-01 02:23:00,52.2,15.5,29.56,North,0,2.9,3.6,23,0.00,,---,0.00,VWS V14.01,2013-02-01 00:23:00,
2013-02-01 02:24:00,52.0,15.4,29.56,West,270,1.6,2.9,23,0.00,,---,0.00,VWS V14.01,2013-02-01 00:24:00,
2013-02-01 02:25:00,52.0,15.4,29.56,NNE,22,2.0,2.0,23,0.00,,---,0.00,VWS V14.01,2013-02-01 00:25:00,
2013-02-01 02:26:00,52.0,15.4,29.56,NNE,22,4.0,4.0,23,0.00,,---,0.00,VWS V14.01,2013-02-01 00:26:00,
2013-02-01 02:27:00,52.0,15.4,29.56,North,0,2.5,4.0,23,0.00,,---,0.00,VWS V14.01,2013-02-01 00:27:00,
2013-02-01 02:28:00,52.0,15.4,29.56,ENE,68,4.0,4.0,23,0.00,,---,0.00,VWS V14.01,2013-02-01 00:28:00,
2013-02-01 02:29:00,52.0,15.4,29.56,NNE,22,2.7,4.0,23,0.00,,---,0.00,VWS V14.01,2013-02-01 00:29:00,
2013-02-01 02:30:00,52.0,15.4,29.56,ENE,68,3.6,3.6,23,0.00,,---,0.00,VWS V14.01,2013-02-01 00:30:00,
2013-02-01 02:31:00,52.0,15.4,29.56,NW,315,2.0,3.6,23,0.00,,---,0.00,VWS V14.01,2013-02-01 00:31:00,
2013-02-01 02:32:00,52.0,15.4,29.56,NNE,22,2.2,2.2,23,0.00,,---,0.00,VWS V14.01,2013-02-01 00:32:00,
2013-02-01 02:33:00,52.0,15.4,29.56,NNW,338,2.0,2.2,23,0.00,,---,0.00,VWS V14.01,2013-02-01 00:33:00,
2013-02-01 02:34:00,51.8,15.2,29.56,North,0,4.3,4.3,23,0.00,,---,0.00,VWS V14.01,2013-02-01 00:34:00,
2013-02-01 02:35:00,51.8,15.2,29.56,WNW,292,2.0,4.3,23,0.00,,---,0.00,VWS V14.01,2013-02-01 00:35:00,
2013-02-01 02:36:00,51.8,15.2,29.56,NE,45,3.4,3.4,23,0.00,,---,0.00,VWS V14.01,2013-02-01 00:36:00,
2013-02-01 02:37:00,51.8,15.2,29.56,WNW,292,3.4,3.4,23,0.00,,---,0.00,VWS V14.01,2013-02-01 00:37:00,
2013-02-01 02:39:00,51.8,15.2,29.59,NE,45,5.6,5.6,23,0.00,,---,0.00,VWS V14.01,2013-02-01 00:39:00,
2013-02-01 02:40:00,51.8,15.2,29.59,North,0,3.6,5.6,23,0.00,,---,0.00,VWS V14.01,2013-02-01 00:40:00,
2013-02-01 02:41:00,51.8,15.2,29.59,WNW,292,2.2,3.6,23,0.00,,---,0.00,VWS V14.01,2013-02-01 00:41:00,
2013-02-01 02:42:00,51.6,16.0,29.59,SW,225,2.0,2.2,24,0.00,,---,0.00,VWS V14.01,2013-02-01 00:42:00,
2013-02-01 02:44:00,51.6,16.0,29.59,SSW,202,2.7,2.7,24,0.00,,---,0.00,VWS V14.01,2013-02-01 00:44:00,
2013-02-01 02:45:00,51.6,16.0,29.59,West,270,3.6,3.6,24,0.00,,---,0.00,VWS V14.01,2013-02-01 00:45:00,
2013-02-01 02:46:00,51.6,16.0,29.59,NNW,338,2.7,3.6,24,0.00,,---,0.00,VWS V14.01,2013-02-01 00:46:00,
2013-02-01 02:47:00,51.6,16.0,29.59,NNW,338,1.6,2.7,24,0.00,,---,0.00,VWS V14.01,2013-02-01 00:47:00,
2013-02-01 02:48:00,51.6,16.0,29.59,North,0,1.6,1.6,24,0.00,,---,0.00,VWS V14.01,2013-02-01 00:48:00,
2013-02-01 02:49:00,51.6,16.0,29.59,East,90,2.0,2.0,24,0.00,,---,0.00,VWS V14.01,2013-02-01 00:49:00,
2013-02-01 02:50:00,51.4,15.9,29.59,North,0,5.8,5.8,24,0.00,,---,0.00,VWS V14.01,2013-02-01 00:50:00,
2013-02-01 02:51:00,51.4,15.9,29.59,North,0,4.0,5.8,24,0.00,,---,0.00,VWS V14.01,2013-02-01 00:51:00,
2013-02-01 02:52:00,51.4,15.9,29.59,ENE,68,4.3,4.3,24,0.00,,---,0.00,VWS V14.01,2013-02-01 00:52:00,
2013-02-01 02:53:00,51.4,15.9,29.59,NNE,22,3.4,4.3,24,0.00,,---,0.00,VWS V14.01,2013-02-01 00:53:00,
2013-02-01 02:54:00,51.4,15.9,29.59,North,0,4.3,4.3,24,0.00,,---,0.00,VWS V14.01,2013-02-01 00:54:00,
2013-02-01 02:55:00,51.4,15.9,29.59,ENE,68,1.6,4.3,24,0.00,,---,0.00,VWS V14.01,2013-02-01 00:55:00,
2013-02-01 02:56:00,51.4,15.9,29.59,ENE,68,0.0,1.6,24,0.00,,---,0.00,VWS V14.01,2013-02-01 00:56:00,
2013-02-01 02:57:00,51.3,15.7,29.59,East,90,0.0,0.0,24,0.00,,---,0.00,VWS V14.01,2013-02-01 00:57:00,
2013-02-01 02:58:00,51.3,15.7,29.59,ESE,112,1.3,1.3,24,0.00,,---,0.00,VWS V14.01,2013-02-01 00:58:00,
2013-02-01 02:59:00,51.3,15.7,29.59,NW,315,1.3,1.3,24,0.00,,---,0.00,VWS V14.01,2013-02-01 00:59:00,
2013-02-01 03:01:00,51.3,15.7,29.59,East,90,1.6,1.6,24,0.00,,---,0.00,VWS V14.01,2013-02-01 01:01:00,
2013-02-01 03:02:00,51.3,15.7,29.59,NE,45,3.1,3.1,24,0.00,,---,0.00,VWS V14.01,2013-02-01 01:02:00,
2013-02-01 03:03:00,51.3,15.7,29.59,ENE,68,3.1,3.1,24,0.00,,---,0.00,VWS V14.01,2013-02-01 01:03:00,
2013-02-01 03:04:00,51.3,15.7,29.59,WNW,292,3.1,3.1,24,0.00,,---,0.00,VWS V14.01,2013-02-01 01:04:00,
2013-02-01 03:05:00,51.3,15.7,29.59,NW,315,1.1,3.1,24,0.00,,---,0.00,VWS V14.01,2013-02-01 01:05:00,
2013-02-01 03:06:00,51.1,15.6,29.59,North,0,0.9,1.1,24,0.00,,---,0.00,VWS V14.01,2013-02-01 01:06:00,
2013-02-01 03:07:00,51.1,15.6,29.59,NW,315,1.6,1.6,24,0.00,,---,0.00,VWS V14.01,2013-02-01 01:07:00,
2013-02-01 03:08:00,50.9,15.4,29.59,SSE,158,2.7,2.7,24,0.00,,---,0.00,VWS V14.01,2013-02-01 01:08:00,
2013-02-01 03:09:00,50.9,15.4,29.59,South,180,2.9,2.9,24,0.00,,---,0.00,VWS V14.01,2013-02-01 01:09:00,
2013-02-01 03:10:00,50.9,15.4,29.59,South,180,3.1,3.1,24,0.00,,---,0.00,VWS V14.01,2013-02-01 01:10:00,
2013-02-01 03:11:00,50.7,15.3,29.59,SSE,158,1.6,3.1,24,0.00,,---,0.00,VWS V14.01,2013-02-01 01:11:00,
2013-02-01 03:12:00,50.7,15.3,29.59,SSE,158,2.5,2.5,24,0.00,,---,0.00,VWS V14.01,2013-02-01 01:12:00,
2013-02-01 03:13:00,50.7,15.3,29.59,SSE,158,1.3,2.5,24,0.00,,---,0.00,VWS V14.01,2013-02-01 01:13:00,
2013-02-01 03:14:00,50.5,15.1,29.59,South,180,1.6,1.6,24,0.00,,---,0.00,VWS V14.01,2013-02-01 01:14:00,
2013-02-01 03:15:00,50.5,15.1,29.59,SW,225,2.9,2.9,24,0.00,,---,0.00,VWS V14.01,2013-02-01 01:15:00,
2013-02-01 03:16:00,50.5,15.1,29.59,South,180,1.1,2.9,24,0.00,,---,0.00,VWS V14.01,2013-02-01 01:16:00,
2013-02-01 03:17:00,50.5,15.1,29.59,SSE,158,2.7,2.7,24,0.00,,---,0.00,VWS V14.01,2013-02-01 01:17:00,
2013-02-01 03:18:00,50.5,15.1,29.59,SSE,158,2.9,2.9,24,0.00,,---,0.00,VWS V14.01,2013-02-01 01:18:00,
2013-02-01 03:19:00,50.4,14.9,29.59,SSE,158,1.6,2.9,24,0.00,,---,0.00,VWS V14.01,2013-02-01 01:19:00,
2013-02-01 03:20:00,50.4,14.9,29.59,SSE,158,1.1,1.6,24,0.00,,---,0.00,VWS V14.01,2013-02-01 01:20:00,
2013-02-01 03:21:00,50.4,14.9,29.59,SSE,158,0.9,1.1,24,0.00,,---,0.00,VWS V14.01,2013-02-01 01:21:00,
2013-02-01 03:22:00,50.2,14.8,29.59,SSE,158,1.6,1.6,24,0.00,,---,0.00,VWS V14.01,2013-02-01 01:22:00,
2013-02-01 03:23:00,50.2,14.8,29.59,SSE,158,2.0,2.0,24,0.00,,---,0.00,VWS V14.01,2013-02-01 01:23:00,
2013-02-01 03:24:00,50.2,14.8,29.59,SSE,158,2.5,2.5,24,0.00,,---,0.00,VWS V14.01,2013-02-01 01:24:00,
2013-02-01 03:25:00,50.2,14.8,29.59,SSE,158,2.9,2.9,24,0.00,,---,0.00,VWS V14.01,2013-02-01 01:25:00,
2013-02-01 03:26:00,50.2,14.8,29.59,SSE,158,2.2,2.9,24,0.00,,---,0.00,VWS V14.01,2013-02-01 01:26:00,
2013-02-01 03:27:00,50.2,16.6,29.59,SSE,158,2.7,2.7,26,0.00,,---,0.00,VWS V14.01,2013-02-01 01:27:00,
2013-02-01 03:28:00,50.2,16.6,29.59,SSE,158,3.6,3.6,26,0.00,,---,0.00,VWS V14.01,2013-02-01 01:28:00,
2013-02-01 03:29:00,50.2,16.6,29.59,SSE,158,1.3,3.6,26,0.00,,---,0.00,VWS V14.01,2013-02-01 01:29:00,
2013-02-01 03:30:00,50.2,16.6,29.59,SSE,158,1.3,1.3,26,0.00,,---,0.00,VWS V14.01,2013-02-01 01:30:00,
2013-02-01 03:31:00,50.2,16.6,29.59,SSE,158,1.3,1.3,26,0.00,,---,0.00,VWS V14.01,2013-02-01 01:31:00,
2013-02-01 03:32:00,50.0,16.5,29.59,SSE,158,1.3,1.3,26,0.00,,---,0.00,VWS V14.01,2013-02-01 01:32:00,
2013-02-01 03:33:00,50.0,16.5,29.59,SSE,158,2.2,2.2,26,0.00,,---,0.00,VWS V14.01,2013-02-01 01:33:00,
2013-02-01 03:34:00,49.8,16.3,29.59,SSE,158,2.2,2.2,26,0.00,,---,0.00,VWS V14.01,2013-02-01 01:34:00,
2013-02-01 03:35:00,49.8,16.3,29.59,SSE,158,1.6,2.2,26,0.00,,---,0.00,VWS V14.01,2013-02-01 01:35:00,
2013-02-01 03:36:00,49.8,16.3,29.59,SE,135,2.5,2.5,26,0.00,,---,0.00,VWS V14.01,2013-02-01 01:36:00,
2013-02-01 03:37:00,49.8,16.3,29.59,SE,135,0.0,2.5,26,0.00,,---,0.00,VWS V14.01,2013-02-01 01:37:00,
2013-02-01 03:38:00,49.6,16.2,29.56,SE,135,0.9,0.9,26,0.00,,---,0.00,VWS V14.01,2013-02-01 01:38:00,
2013-02-01 03:39:00,49.6,16.2,29.56,SE,135,0.0,0.9,26,0.00,,---,0.00,VWS V14.01,2013-02-01 01:39:00,
2013-02-01 03:40:00,49.6,16.2,29.56,SE,135,0.0,0.0,26,0.00,,---,0.00,VWS V14.01,2013-02-01 01:40:00,
2013-02-01 03:41:00,49.5,16.0,29.56,SE,135,2.0,2.0,26,0.00,,---,0.00,VWS V14.01,2013-02-01 01:41:00,
2013-02-01 03:42:00,49.5,16.0,29.56,East,90,2.2,2.2,26,0.00,,---,0.00,VWS V14.01,2013-02-01 01:42:00,
2013-02-01 03:43:00,49.5,16.0,29.56,ENE,68,2.2,2.2,26,0.00,,---,0.00,VWS V14.01,2013-02-01 01:43:00,
2013-02-01 03:45:00,49.5,16.0,29.56,NE,45,2.0,2.2,26,0.00,,---,0.00,VWS V14.01,2013-02-01 01:45:00,
2013-02-01 03:46:00,49.6,16.2,29.56,NNE,22,3.4,3.4,26,0.00,,---,0.00,VWS V14.01,2013-02-01 01:46:00,
2013-02-01 03:47:00,49.6,16.2,29.56,NNE,22,2.5,3.4,26,0.00,,---,0.00,VWS V14.01,2013-02-01 01:47:00,
2013-02-01 03:48:00,49.6,16.2,29.56,NNE,22,3.1,3.1,26,0.00,,---,0.00,VWS V14.01,2013-02-01 01:48:00,
2013-02-01 03:49:00,49.6,16.2,29.56,ENE,68,2.5,3.1,26,0.00,,---,0.00,VWS V14.01,2013-02-01 01:49:00,
2013-02-01 03:50:00,49.5,16.0,29.56,ENE,68,0.0,2.5,26,0.00,,---,0.00,VWS V14.01,2013-02-01 01:50:00,
2013-02-01 03:51:00,49.5,16.0,29.56,ENE,68,1.6,1.6,26,0.00,,---,0.00,VWS V14.01,2013-02-01 01:51:00,
2013-02-01 03:52:00,49.5,16.0,29.56,NE,45,1.3,1.6,26,0.00,,---,0.00,VWS V14.01,2013-02-01 01:52:00,
2013-02-01 03:53:00,49.5,16.0,29.56,NNE,22,2.2,2.2,26,0.00,,---,0.00,VWS V14.01,2013-02-01 01:53:00,
2013-02-01 03:54:00,49.5,16.0,29.56,NNE,22,1.3,2.2,26,0.00,,---,0.00,VWS V14.01,2013-02-01 01:54:00,
2013-02-01 03:55:00,49.5,16.0,29.56,NNE,22,1.1,1.3,26,0.00,,---,0.00,VWS V14.01,2013-02-01 01:55:00,
2013-02-01 03:56:00,49.5,16.0,29.56,NNE,22,1.6,1.6,26,0.00,,---,0.00,VWS V14.01,2013-02-01 01:56:00,
2013-02-01 03:57:00,49.5,16.0,29.56,NNE,22,1.3,1.6,26,0.00,,---,0.00,VWS V14.01,2013-02-01 01:57:00,
2013-02-01 03:58:00,49.3,15.9,29.56,NNE,22,0.9,1.3,26,0.00,,---,0.00,VWS V14.01,2013-02-01 01:58:00,
2013-02-01 03:59:00,49.3,15.9,29.56,NNE,22,2.0,2.0,26,0.00,,---,0.00,VWS V14.01,2013-02-01 01:59:00,
2013-02-01 04:00:00,49.3,15.9,29.56,NNE,22,1.1,2.0,26,0.00,,---,0.00,VWS V14.01,2013-02-01 02:00:00,
2013-02-01 04:01:00,49.3,15.9,29.56,North,0,1.3,1.3,26,0.00,,---,0.00,VWS V14.01,2013-02-01 02:01:00,
2013-02-01 04:02:00,49.3,15.9,29.56,North,0,2.2,2.2,26,0.00,,---,0.00,VWS V14.01,2013-02-01 02:02:00,
2013-02-01 04:03:00,49.3,15.9,29.56,North,0,1.6,2.2,26,0.00,,---,0.00,VWS V14.01,2013-02-01 02:03:00,
2013-02-01 04:04:00,49.3,15.9,29.56,North,0,0.0,1.6,26,0.00,,---,0.00,VWS V14.01,2013-02-01 02:04:00,
2013-02-01 04:05:00,49.3,15.9,29.56,North,0,1.6,1.6,26,0.00,,---,0.00,VWS V14.01,2013-02-01 02:05:00,
2013-02-01 04:06:00,49.1,15.7,29.56,North,0,0.0,1.6,26,0.00,,---,0.00,VWS V14.01,2013-02-01 02:06:00,
2013-02-01 04:07:00,49.1,15.7,29.56,NNE,22,1.1,1.1,26,0.00,,---,0.00,VWS V14.01,2013-02-01 02:07:00,
2013-02-01 04:08:00,48.9,15.6,29.56,ENE,68,2.5,2.5,26,0.00,,---,0.00,VWS V14.01,2013-02-01 02:08:00,
2013-02-01 04:09:00,49.1,15.7,29.56,NNE,22,2.0,2.5,26,0.00,,---,0.00,VWS V14.01,2013-02-01 02:09:00,
2013-02-01 04:10:00,49.1,15.7,29.56,North,0,1.6,2.0,26,0.00,,---,0.00,VWS V14.01,2013-02-01 02:10:00,
2013-02-01 04:11:00,49.1,15.7,29.56,North,0,1.1,1.6,26,0.00,,---,0.00,VWS V14.01,2013-02-01 02:11:00,
2013-02-01 04:12:00,49.1,15.7,29.56,North,0,1.3,1.3,26,0.00,,---,0.00,VWS V14.01,2013-02-01 02:12:00,
2013-02-01 04:13:00,49.1,15.7,29.56,North,0,1.3,1.3,26,0.00,,---,0.00,VWS V14.01,2013-02-01 02:13:00,
2013-02-01 04:14:00,49.1,15.7,29.56,North,0,1.1,1.3,26,0.00,,---,0.00,VWS V14.01,2013-02-01 02:14:00,
2013-02-01 04:15:00,49.1,15.7,29.56,North,0,0.9,1.1,26,0.00,,---,0.00,VWS V14.01,2013-02-01 02:15:00,
2013-02-01 04:17:00,49.1,15.7,29.56,NNE,22,0.0,0.9,26,0.00,,---,0.00,VWS V14.01,2013-02-01 02:17:00,
2013-02-01 04:18:00,49.1,15.7,29.56,NNE,22,1.1,1.1,26,0.00,,---,0.00,VWS V14.01,2013-02-01 02:18:00,
2013-02-01 04:19:00,48.9,15.6,29.56,NE,45,0.0,1.1,26,0.00,,---,0.00,VWS V14.01,2013-02-01 02:19:00,
2013-02-01 04:20:00,48.9,15.6,29.56,NE,45,0.0,0.0,26,0.00,,---,0.00,VWS V14.01,2013-02-01 02:20:00,
2013-02-01 04:21:00,48.9,15.6,29.56,NNE,22,1.1,1.1,26,0.00,,---,0.00,VWS V14.01,2013-02-01 02:21:00,
2013-02-01 04:22:00,48.9,15.6,29.56,ENE,68,2.0,2.0,26,0.00,,---,0.00,VWS V14.01,2013-02-01 02:22:00,
2013-02-01 04:23:00,48.9,15.6,29.59,East,90,0.0,2.0,26,0.00,,---,0.00,VWS V14.01,2013-02-01 02:23:00,
2013-02-01 04:24:00,48.7,15.4,29.59,ESE,112,1.1,1.1,26,0.00,,---,0.00,VWS V14.01,2013-02-01 02:24:00,
2013-02-01 04:25:00,48.7,15.4,29.59,SE,135,1.1,1.1,26,0.00,,---,0.00,VWS V14.01,2013-02-01 02:25:00,
2013-02-01 04:26:00,48.7,15.4,29.59,SE,135,0.0,1.1,26,0.00,,---,0.00,VWS V14.01,2013-02-01 02:26:00,
2013-02-01 04:27:00,48.7,15.4,29.59,SE,135,1.3,1.3,26,0.00,,---,0.00,VWS V14.01,2013-02-01 02:27:00,
2013-02-01 04:28:00,48.7,15.4,29.59,SSE,158,1.6,1.6,26,0.00,,---,0.00,VWS V14.01,2013-02-01 02:28:00,
2013-02-01 04:29:00,48.6,15.2,29.59,SSE,158,1.6,1.6,26,0.00,,---,0.00,VWS V14.01,2013-02-01 02:29:00,
2013-02-01 04:30:00,48.6,15.2,29.59,SSE,158,1.1,1.6,26,0.00,,---,0.00,VWS V14.01,2013-02-01 02:30:00,
2013-02-01 04:31:00,48.6,15.2,29.59,SSE,158,0.0,1.1,26,0.00,,---,0.00,VWS V14.01,2013-02-01 02:31:00,
2013-02-01 04:33:00,48.4,15.1,29.59,SSE,158,1.3,1.3,26,0.00,,---,0.00,VWS V14.01,2013-02-01 02:33:00,
2013-02-01 04:34:00,48.4,16.0,29.59,SSE,158,0.0,1.3,27,0.00,,---,0.00,VWS V14.01,2013-02-01 02:34:00,
2013-02-01 04:35:00,48.4,16.0,29.59,SSE,158,1.1,1.1,27,0.00,,---,0.00,VWS V14.01,2013-02-01 02:35:00,
2013-02-01 04:36:00,48.4,16.0,29.59,SSE,158,0.9,1.1,27,0.00,,---,0.00,VWS V14.01,2013-02-01 02:36:00,
2013-02-01 04:37:00,48.4,16.0,29.59,SSE,158,0.0,0.9,27,0.00,,---,0.00,VWS V14.01,2013-02-01 02:37:00,
2013-02-01 04:38:00,48.2,15.8,29.56,SSE,158,0.0,0.0,27,0.00,,---,0.00,VWS V14.01,2013-02-01 02:38:00,
2013-02-01 04:39:00,48.2,15.8,29.56,SSE,158,0.0,0.0,27,0.00,,---,0.00,VWS V14.01,2013-02-01 02:39:00,
2013-02-01 04:40:00,48.2,15.8,29.56,SSE,158,0.0,0.0,27,0.00,,---,0.00,VWS V14.01,2013-02-01 02:40:00,
2013-02-01 04:41:00,48.0,15.6,29.56,SSE,158,0.0,0.0,27,0.00,,---,0.00,VWS V14.01,2013-02-01 02:41:00,
2013-02-01 04:42:00,48.0,15.6,29.56,SSE,158,1.3,1.3,27,0.00,,---,0.00,VWS V14.01,2013-02-01 02:42:00,
2013-02-01 04:43:00,47.8,15.5,29.56,SSE,158,1.6,1.6,27,0.00,,---,0.00,VWS V14.01,2013-02-01 02:43:00,
2013-02-01 04:45:00,47.8,15.5,29.56,SSE,158,2.2,2.2,27,0.00,,---,0.00,VWS V14.01,2013-02-01 02:45:00,
2013-02-01 04:46:00,47.8,15.5,29.56,SSE,158,1.1,2.2,27,0.00,,---,0.00,VWS V14.01,2013-02-01 02:46:00,
2013-02-01 04:47:00,47.8,15.5,29.56,SSE,158,1.1,1.1,27,0.00,,---,0.00,VWS V14.01,2013-02-01 02:47:00,
2013-02-01 04:48:00,47.8,15.5,29.56,SSE,158,1.3,1.3,27,0.00,,---,0.00,VWS V14.01,2013-02-01 02:48:00,
2013-02-01 04:49:00,47.8,15.5,29.56,SSE,158,1.1,1.3,27,0.00,,---,0.00,VWS V14.01,2013-02-01 02:49:00,
2013-02-01 04:50:00,47.7,15.3,29.56,SSE,158,1.3,1.3,27,0.00,,---,0.00,VWS V14.01,2013-02-01 02:50:00,
2013-02-01 04:51:00,47.7,15.3,29.56,SSE,158,1.3,1.3,27,0.00,,---,0.00,VWS V14.01,2013-02-01 02:51:00,
2013-02-01 04:52:00,47.5,15.2,29.56,SSE,158,1.3,1.3,27,0.00,,---,0.00,VWS V14.01,2013-02-01 02:52:00,
2013-02-01 04:53:00,47.5,15.2,29.59,SSE,158,1.6,1.6,27,0.00,,---,0.00,VWS V14.01,2013-02-01 02:53:00,
2013-02-01 04:54:00,47.5,15.2,29.59,SSE,158,2.0,2.0,27,0.00,,---,0.00,VWS V14.01,2013-02-01 02:54:00,
2013-02-01 04:55:00,47.5,15.2,29.59,SSE,158,2.7,2.7,27,0.00,,---,0.00,VWS V14.01,2013-02-01 02:55:00,
2013-02-01 04:56:00,47.5,15.2,29.59,SSE,158,1.6,2.7,27,0.00,,---,0.00,VWS V14.01,2013-02-01 02:56:00,
2013-02-01 04:57:00,47.3,15.0,29.59,SSE,158,2.0,2.0,27,0.00,,---,0.00,VWS V14.01,2013-02-01 02:57:00,
2013-02-01 04:59:00,47.3,15.9,29.59,SSE,158,0.0,2.0,28,0.00,,---,0.00,VWS V14.01,2013-02-01 02:59:00,
2013-02-01 05:00:00,47.3,15.9,29.59,SE,135,2.2,2.2,28,0.00,,---,0.00,VWS V14.01,2013-02-01 03:00:00,
2013-02-01 05:01:00,47.3,15.9,29.59,SE,135,0.0,2.2,28,0.00,,---,0.00,VWS V14.01,2013-02-01 03:01:00,
2013-02-01 05:02:00,47.3,15.9,29.59,SE,135,0.0,0.0,28,0.00,,---,0.00,VWS V14.01,2013-02-01 03:02:00,
2013-02-01 05:03:00,47.1,15.7,29.59,SE,135,0.0,0.0,28,0.00,,---,0.00,VWS V14.01,2013-02-01 03:03:00,
2013-02-01 05:05:00,47.1,15.7,29.59,SE,135,0.0,0.0,28,0.00,,---,0.00,VWS V14.01,2013-02-01 03:05:00,
2013-02-01 05:06:00,47.1,15.7,29.59,ESE,112,1.6,1.6,28,0.00,,---,0.00,VWS V14.01,2013-02-01 03:06:00,
2013-02-01 05:07:00,47.1,15.7,29.59,East,90,2.0,2.0,28,0.00,,---,0.00,VWS V14.01,2013-02-01 03:07:00,
2013-02-01 05:08:00,47.1,15.7,29.59,ENE,68,1.6,2.0,28,0.00,,---,0.00,VWS V14.01,2013-02-01 03:08:00,
2013-02-01 05:09:00,47.1,15.7,29.59,ENE,68,1.6,1.6,28,0.00,,---,0.00,VWS V14.01,2013-02-01 03:09:00,
2013-02-01 05:10:00,47.1,15.7,29.59,ENE,68,1.1,1.6,28,0.00,,---,0.00,VWS V14.01,2013-02-01 03:10:00,
2013-02-01 05:11:00,47.1,15.7,29.59,ENE,68,0.0,1.1,28,0.00,,---,0.00,VWS V14.01,2013-02-01 03:11:00,
2013-02-01 05:12:00,47.1,15.7,29.59,NE,45,0.0,0.0,28,0.00,,---,0.00,VWS V14.01,2013-02-01 03:12:00,
2013-02-01 05:13:00,46.9,15.6,29.59,NE,45,0.0,0.0,28,0.00,,---,0.00,VWS V14.01,2013-02-01 03:13:00,
2013-02-01 05:14:00,46.9,15.6,29.59,NE,45,0.0,0.0,28,0.00,,---,0.00,VWS V14.01,2013-02-01 03:14:00,
2013-02-01 05:15:00,46.9,15.6,29.59,NNE,22,1.6,1.6,28,0.00,,---,0.00,VWS V14.01,2013-02-01 03:15:00,
2013-02-01 05:17:00,46.8,15.4,29.59,NNE,22,0.0,1.6,28,0.00,,---,0.00,VWS V14.01,2013-02-01 03:17:00,
2013-02-01 05:18:00,46.6,15.2,29.59,NNE,22,0.0,0.0,28,0.00,,---,0.00,VWS V14.01,2013-02-01 03:18:00,
2013-02-01 05:19:00,46.6,15.2,29.59,NNE,22,0.0,0.0,28,0.00,,---,0.00,VWS V14.01,2013-02-01 03:19:00,
2013-02-01 05:20:00,46.4,15.1,29.59,NE,45,1.1,1.1,28,0.00,,---,0.00,VWS V14.01,2013-02-01 03:20:00,
2013-02-01 05:21:00,46.4,15.1,29.59,ENE,68,1.1,1.1,28,0.00,,---,0.00,VWS V14.01,2013-02-01 03:21:00,
2013-02-01 05:22:00,46.2,14.9,29.59,ENE,68,0.0,1.1,28,0.00,,---,0.00,VWS V14.01,2013-02-01 03:22:00,
2013-02-01 05:23:00,46.2,15.7,29.59,NE,45,2.0,2.0,29,0.00,,---,0.00,VWS V14.01,2013-02-01 03:23:00,
2013-02-01 05:24:00,46.2,15.7,29.59,NE,45,1.3,2.0,29,0.00,,---,0.00,VWS V14.01,2013-02-01 03:24:00,
2013-02-01 05:25:00,46.2,15.7,29.59,NE,45,0.9,1.3,29,0.00,,---,0.00,VWS V14.01,2013-02-01 03:25:00,
2013-02-01 05:26:00,46.2,15.7,29.59,NE,45,0.0,0.9,29,0.00,,---,0.00,VWS V14.01,2013-02-01 03:26:00,
2013-02-01 05:27:00,46.0,15.6,29.59,NE,45,0.0,0.0,29,0.00,,---,0.00,VWS V14.01,2013-02-01 03:27:00,
2013-02-01 05:28:00,45.9,15.4,29.59,NE,45,0.0,0.0,29,0.00,,---,0.00,VWS V14.01,2013-02-01 03:28:00,
2013-02-01 05:29:00,45.9,15.4,29.59,NE,45,0.0,0.0,29,0.00,,---,0.00,VWS V14.01,2013-02-01 03:29:00,
2013-02-01 05:31:00,45.7,15.3,29.59,NE,45,0.0,0.0,29,0.00,,---,0.00,VWS V14.01,2013-02-01 03:31:00,
2013-02-01 05:32:00,45.5,15.1,29.59,ENE,68,2.0,2.0,29,0.00,,---,0.00,VWS V14.01,2013-02-01 03:32:00,
2013-02-01 05:33:00,45.5,15.1,29.59,East,90,0.0,2.0,29,0.00,,---,0.00,VWS V14.01,2013-02-01 03:33:00,
2013-02-01 05:34:00,45.5,15.1,29.59,NE,45,2.5,2.5,29,0.00,,---,0.00,VWS V14.01,2013-02-01 03:34:00,
2013-02-01 05:35:00,45.5,15.9,29.59,North,0,2.7,2.7,30,0.00,,---,0.00,VWS V14.01,2013-02-01 03:35:00,
2013-02-01 05:37:00,45.5,15.9,29.59,North,0,0.0,2.7,30,0.00,,---,0.00,VWS V14.01,2013-02-01 03:37:00,
2013-02-01 05:38:00,45.5,15.9,29.59,NE,45,2.0,2.0,30,0.00,,---,0.00,VWS V14.01,2013-02-01 03:38:00,
2013-02-01 05:39:00,45.5,15.9,29.59,ENE,68,1.3,2.0,30,0.00,,---,0.00,VWS V14.01,2013-02-01 03:39:00,
2013-02-01 05:40:00,45.5,15.9,29.59,ESE,112,2.7,2.7,30,0.00,,---,0.00,VWS V14.01,2013-02-01 03:40:00,
2013-02-01 05:41:00,45.5,15.9,29.59,SE,135,1.1,2.7,30,0.00,,---,0.00,VWS V14.01,2013-02-01 03:41:00,
2013-02-01 05:42:00,45.5,15.9,29.59,SSE,158,1.6,1.6,30,0.00,,---,0.00,VWS V14.01,2013-02-01 03:42:00,
2013-02-01 05:43:00,45.7,16.0,29.59,SSE,158,2.0,2.0,30,0.00,,---,0.00,VWS V14.01,2013-02-01 03:43:00,
2013-02-01 05:44:00,45.7,16.0,29.59,SSE,158,0.9,2.0,30,0.00,,---,0.00,VWS V14.01,2013-02-01 03:44:00,
2013-02-01 05:45:00,45.7,16.0,29.59,SSE,158,0.0,0.9,30,0.00,,---,0.00,VWS V14.01,2013-02-01 03:45:00,
2013-02-01 05:46:00,45.5,15.9,29.59,SSE,158,1.3,1.3,30,0.00,,---,0.00,VWS V14.01,2013-02-01 03:46:00,
2013-02-01 05:47:00,45.5,15.9,29.59,ESE,112,1.3,1.3,30,0.00,,---,0.00,VWS V14.01,2013-02-01 03:47:00,
2013-02-01 05:48:00,45.5,15.9,29.59,ESE,112,1.3,1.3,30,0.00,,---,0.00,VWS V14.01,2013-02-01 03:48:00,
2013-02-01 05:49:00,45.5,16.6,29.59,ESE,112,1.1,1.3,31,0.00,,---,0.00,VWS V14.01,2013-02-01 03:49:00,
2013-02-01 05:50:00,45.5,16.6,29.59,ESE,112,0.0,1.1,31,0.00,,---,0.00,VWS V14.01,2013-02-01 03:50:00,
2013-02-01 05:51:00,45.3,16.5,29.59,ESE,112,0.0,0.0,31,0.00,,---,0.00,VWS V14.01,2013-02-01 03:51:00,
2013-02-01 05:52:00,45.3,16.5,29.59,SE,135,1.6,1.6,31,0.00,,---,0.00,VWS V14.01,2013-02-01 03:52:00,
2013-02-01 05:53:00,45.3,16.5,29.59,SE,135,0.0,1.6,31,0.00,,---,0.00,VWS V14.01,2013-02-01 03:53:00,
2013-02-01 05:54:00,45.3,16.5,29.59,ESE,112,1.6,1.6,31,0.00,,---,0.00,VWS V14.01,2013-02-01 03:54:00,
2013-02-01 05:55:00,45.5,16.6,29.59,East,90,1.3,1.6,31,0.00,,---,0.00,VWS V14.01,2013-02-01 03:55:00,
2013-02-01 05:56:00,45.5,16.6,29.59,East,90,0.0,1.3,31,0.00,,---,0.00,VWS V14.01,2013-02-01 03:56:00,
2013-02-01 05:57:00,45.5,16.6,29.59,East,90,0.0,0.0,31,0.00,,---,0.00,VWS V14.01,2013-02-01 03:57:00,
2013-02-01 05:58:00,45.5,16.6,29.59,East,90,0.0,0.0,31,0.00,,---,0.00,VWS V14.01,2013-02-01 03:58:00,
2013-02-01 05:59:00,45.3,16.5,29.59,East,90,0.0,0.0,31,0.00,,---,0.00,VWS V14.01,2013-02-01 03:59:00,
2013-02-01 06:00:00,45.3,16.5,29.59,East,90,0.0,0.0,31,0.00,,---,0.00,VWS V14.01,2013-02-01 04:00:00,
2013-02-01 06:01:00,45.3,16.5,29.59,East,90,0.0,0.0,31,0.00,,---,0.00,VWS V14.01,2013-02-01 04:01:00,
2013-02-01 06:02:00,45.3,16.5,29.59,East,90,0.0,0.0,31,0.00,,---,0.00,VWS V14.01,2013-02-01 04:02:00,
2013-02-01 06:03:00,45.3,16.5,29.59,ENE,68,2.0,2.0,31,0.00,,---,0.00,VWS V14.01,2013-02-01 04:03:00,
2013-02-01 06:04:00,45.3,16.5,29.59,ENE,68,0.0,2.0,31,0.00,,---,0.00,VWS V14.01,2013-02-01 04:04:00,
2013-02-01 06:05:00,45.3,16.5,29.59,ENE,68,0.0,0.0,31,0.00,,---,0.00,VWS V14.01,2013-02-01 04:05:00,
2013-02-01 06:06:00,45.3,16.5,29.59,ENE,68,0.0,0.0,31,0.00,,---,0.00,VWS V14.01,2013-02-01 04:06:00,
2013-02-01 06:07:00,45.3,16.5,29.59,ENE,68,0.0,0.0,31,0.00,,---,0.00,VWS V14.01,2013-02-01 04:07:00,
2013-02-01 06:08:00,45.3,16.5,29.59,ENE,68,0.0,0.0,31,0.00,,---,0.00,VWS V14.01,2013-02-01 04:08:00,
2013-02-01 06:09:00,45.1,16.3,29.59,ENE,68,0.0,0.0,31,0.00,,---,0.00,VWS V14.01,2013-02-01 04:09:00,
2013-02-01 06:10:00,45.1,16.3,29.59,ENE,68,2.0,2.0,31,0.00,,---,0.00,VWS V14.01,2013-02-01 04:10:00,
2013-02-01 06:11:00,45.1,16.3,29.59,NE,45,0.9,2.0,31,0.00,,---,0.00,VWS V14.01,2013-02-01 04:11:00,
2013-02-01 06:13:00,45.0,16.2,29.59,NE,45,0.0,0.9,31,0.00,,---,0.00,VWS V14.01,2013-02-01 04:13:00,
2013-02-01 06:14:00,44.8,16.0,29.59,ENE,68,0.0,0.0,31,0.00,,---,0.00,VWS V14.01,2013-02-01 04:14:00,
2013-02-01 06:15:00,44.8,16.0,29.59,ENE,68,0.0,0.0,31,0.00,,---,0.00,VWS V14.01,2013-02-01 04:15:00,
2013-02-01 06:16:00,44.8,16.0,29.59,NE,45,2.7,2.7,31,0.00,,---,0.00,VWS V14.01,2013-02-01 04:16:00,
2013-02-01 06:17:00,44.8,16.0,29.59,NNE,22,1.6,2.7,31,0.00,,---,0.00,VWS V14.01,2013-02-01 04:17:00,
2013-02-01 06:19:00,44.6,16.6,29.59,NE,45,1.3,1.6,32,0.00,,---,0.00,VWS V14.01,2013-02-01 04:19:00,
2013-02-01 06:20:00,44.6,16.6,29.59,ENE,68,2.0,2.0,32,0.00,,---,0.00,VWS V14.01,2013-02-01 04:20:00,
2013-02-01 06:21:00,44.4,16.4,29.59,ESE,112,1.3,2.0,32,0.00,,---,0.00,VWS V14.01,2013-02-01 04:21:00,
2013-02-01 06:22:00,44.4,16.4,29.59,ESE,112,0.0,1.3,32,0.00,,---,0.00,VWS V14.01,2013-02-01 04:22:00,
2013-02-01 06:23:00,44.4,16.4,29.59,ESE,112,0.0,0.0,32,0.00,,---,0.00,VWS V14.01,2013-02-01 04:23:00,
2013-02-01 06:25:00,44.4,16.4,29.59,ESE,112,0.0,0.0,32,0.00,,---,0.00,VWS V14.01,2013-02-01 04:25:00,
2013-02-01 06:26:00,44.4,16.4,29.59,ESE,112,0.0,0.0,32,0.00,,---,0.00,VWS V14.01,2013-02-01 04:26:00,
2013-02-01 06:27:00,44.4,16.4,29.59,ESE,112,0.0,0.0,32,0.00,,---,0.00,VWS V14.01,2013-02-01 04:27:00,
2013-02-01 06:28:00,44.4,17.1,29.59,ESE,112,0.0,0.0,33,0.00,,---,0.00,VWS V14.01,2013-02-01 04:28:00,
2013-02-01 06:29:00,44.2,17.0,29.59,ESE,112,0.0,0.0,33,0.00,,---,0.00,VWS V14.01,2013-02-01 04:29:00,
2013-02-01 06:30:00,44.2,17.0,29.59,ESE,112,1.6,1.6,33,0.00,,---,0.00,VWS V14.01,2013-02-01 04:30:00,
2013-02-01 06:31:00,44.2,17.0,29.59,ESE,112,0.0,1.6,33,0.00,,---,0.00,VWS V14.01,2013-02-01 04:31:00,
2013-02-01 06:33:00,44.2,17.0,29.59,ESE,112,0.0,0.0,33,0.00,,---,0.00,VWS V14.01,2013-02-01 04:33:00,
2013-02-01 06:34:00,44.2,17.0,29.59,ESE,112,0.0,0.0,33,0.00,,---,0.00,VWS V14.01,2013-02-01 04:34:00,
2013-02-01 06:35:00,44.1,16.8,29.59,ESE,112,0.0,0.0,33,0.00,,---,0.00,VWS V14.01,2013-02-01 04:35:00,
2013-02-01 06:37:00,44.1,16.8,29.59,SE,135,2.5,2.5,33,0.00,,---,0.00,VWS V14.01,2013-02-01 04:37:00,
2013-02-01 06:38:00,44.1,16.8,29.59,SE,135,2.5,2.5,33,0.00,,---,0.00,VWS V14.01,2013-02-01 04:38:00,
2013-02-01 06:39:00,44.2,17.0,29.59,SE,135,1.6,2.5,33,0.00,,---,0.00,VWS V14.01,2013-02-01 04:39:00,
2013-02-01 06:40:00,44.2,17.0,29.59,SE,135,2.0,2.0,33,0.00,,---,0.00,VWS V14.01,2013-02-01 04:40:00,
2013-02-01 06:41:00,44.2,17.7,29.59,SE,135,0.9,2.0,34,0.00,,---,0.00,VWS V14.01,2013-02-01 04:41:00,
2013-02-01 06:42:00,44.2,17.7,29.59,SE,135,0.0,0.9,34,0.00,,---,0.00,VWS V14.01,2013-02-01 04:42:00,
2013-02-01 06:43:00,44.2,17.7,29.59,SE,135,0.0,0.0,34,0.00,,---,0.00,VWS V14.01,2013-02-01 04:43:00,
2013-02-01 06:44:00,44.2,17.7,29.59,SE,135,0.9,0.9,34,0.00,,---,0.00,VWS V14.01,2013-02-01 04:44:00,
2013-02-01 06:45:00,44.4,17.8,29.59,SE,135,0.0,0.9,34,0.00,,---,0.00,VWS V14.01,2013-02-01 04:45:00,
2013-02-01 06:46:00,44.4,17.8,29.59,SE,135,0.0,0.0,34,0.00,,---,0.00,VWS V14.01,2013-02-01 04:46:00,
2013-02-01 06:47:00,44.4,17.8,29.59,SE,135,0.0,0.0,34,0.00,,---,0.00,VWS V14.01,2013-02-01 04:47:00,
2013-02-01 06:48:00,44.4,17.8,29.59,SE,135,0.0,0.0,34,0.00,,---,0.00,VWS V14.01,2013-02-01 04:48:00,
2013-02-01 06:49:00,44.4,17.8,29.59,SE,135,0.0,0.0,34,0.00,,---,0.00,VWS V14.01,2013-02-01 04:49:00,
2013-02-01 06:50:00,44.2,17.7,29.59,SE,135,0.0,0.0,34,0.00,,---,0.00,VWS V14.01,2013-02-01 04:50:00,
2013-02-01 06:51:00,44.2,17.7,29.59,SE,135,0.0,0.0,34,0.00,,---,0.00,VWS V14.01,2013-02-01 04:51:00,
2013-02-01 06:52:00,44.1,17.5,29.59,SE,135,0.0,0.0,34,0.00,,---,0.00,VWS V14.01,2013-02-01 04:52:00,
2013-02-01 06:53:00,44.1,17.5,29.59,SE,135,0.0,0.0,34,0.00,,---,0.00,VWS V14.01,2013-02-01 04:53:00,
2013-02-01 06:54:00,44.1,17.5,29.59,SE,135,0.0,0.0,34,0.00,,---,0.00,VWS V14.01,2013-02-01 04:54:00,
2013-02-01 06:55:00,43.9,17.4,29.59,SE,135,0.0,0.0,34,0.00,,---,0.00,VWS V14.01,2013-02-01 04:55:00,
2013-02-01 06:56:00,43.9,17.4,29.59,SE,135,2.2,2.2,34,0.00,,---,0.00,VWS V14.01,2013-02-01 04:56:00,
2013-02-01 06:57:00,43.9,17.4,29.59,ESE,112,1.6,2.2,34,0.00,,---,0.00,VWS V14.01,2013-02-01 04:57:00,
2013-02-01 06:58:00,43.9,17.4,29.59,ESE,112,0.0,1.6,34,0.00,,---,0.00,VWS V14.01,2013-02-01 04:58:00,
2013-02-01 06:59:00,43.7,17.2,29.59,ESE,112,0.0,0.0,34,0.00,,---,0.00,VWS V14.01,2013-02-01 04:59:00,
2013-02-01 07:00:00,43.7,17.2,29.59,ESE,112,0.0,0.0,34,0.00,,---,0.00,VWS V14.01,2013-02-01 05:00:00,
2013-02-01 07:01:00,43.7,17.2,29.59,ESE,112,0.9,0.9,34,0.00,,---,0.00,VWS V14.01,2013-02-01 05:01:00,
2013-02-01 07:02:00,43.7,17.9,29.59,ESE,112,0.0,0.9,35,0.00,,---,0.00,VWS V14.01,2013-02-01 05:02:00,
2013-02-01 07:04:00,43.7,17.9,29.59,ESE,112,0.0,0.0,35,0.00,,---,0.00,VWS V14.01,2013-02-01 05:04:00,
2013-02-01 07:05:00,43.7,17.9,29.59,ESE,112,0.0,0.0,35,0.00,,---,0.00,VWS V14.01,2013-02-01 05:05:00,
2013-02-01 07:06:00,43.7,17.9,29.59,ESE,112,1.3,1.3,35,0.00,,---,0.00,VWS V14.01,2013-02-01 05:06:00,
2013-02-01 07:07:00,43.7,17.9,29.59,ESE,112,1.1,1.3,35,0.00,,---,0.00,VWS V14.01,2013-02-01 05:07:00,
2013-02-01 07:08:00,43.7,17.9,29.59,ESE,112,0.0,1.1,35,0.00,,---,0.00,VWS V14.01,2013-02-01 05:08:00,
2013-02-01 07:09:00,43.7,17.9,29.59,ESE,112,0.0,0.0,35,0.00,,---,0.00,VWS V14.01,2013-02-01 05:09:00,
2013-02-01 07:10:00,43.7,17.9,29.59,ESE,112,1.6,1.6,35,0.00,,---,0.00,VWS V14.01,2013-02-01 05:10:00,
2013-02-01 07:11:00,43.7,17.9,29.59,SE,135,2.7,2.7,35,0.00,,---,0.00,VWS V14.01,2013-02-01 05:11:00,
2013-02-01 07:12:00,43.7,18.5,29.59,SSE,158,4.0,4.0,36,0.00,,---,0.00,VWS V14.01,2013-02-01 05:12:00,
2013-02-01 07:13:00,43.9,19.3,29.59,SSE,158,2.0,4.0,37,0.00,,---,0.00,VWS V14.01,2013-02-01 05:13:00,
2013-02-01 07:14:00,43.9,19.3,29.59,SSE,158,2.0,2.0,37,0.00,,---,0.00,VWS V14.01,2013-02-01 05:14:00,
2013-02-01 07:16:00,44.1,19.5,29.59,SSE,158,0.0,2.0,37,0.00,,---,0.00,VWS V14.01,2013-02-01 05:16:00,
2013-02-01 07:17:00,44.1,19.5,29.59,SSE,158,0.9,0.9,37,0.00,,---,0.00,VWS V14.01,2013-02-01 05:17:00,
2013-02-01 07:18:00,44.1,19.5,29.59,SSE,158,1.3,1.3,37,0.00,,---,0.00,VWS V14.01,2013-02-01 05:18:00,
2013-02-01 07:19:00,44.1,19.5,29.59,SSE,158,0.9,1.3,37,0.00,,---,0.00,VWS V14.01,2013-02-01 05:19:00,
2013-02-01 07:20:00,44.1,19.5,29.59,SSE,158,0.0,0.9,37,0.00,,---,0.00,VWS V14.01,2013-02-01 05:20:00,
2013-02-01 07:21:00,44.1,19.5,29.59,SSE,158,0.0,0.0,37,0.00,,---,0.00,VWS V14.01,2013-02-01 05:21:00,
2013-02-01 07:22:00,44.1,18.8,29.59,SSE,158,0.0,0.0,36,0.00,,---,0.00,VWS V14.01,2013-02-01 05:22:00,
2013-02-01 07:23:00,44.1,18.8,29.59,SE,135,1.3,1.3,36,0.00,,---,0.00,VWS V14.01,2013-02-01 05:23:00,
2013-02-01 07:25:00,44.1,18.8,29.59,ESE,112,1.1,1.3,36,0.00,,---,0.00,VWS V14.01,2013-02-01 05:25:00,
2013-02-01 07:26:00,44.1,18.8,29.59,ESE,112,1.1,1.1,36,0.00,,---,0.00,VWS V14.01,2013-02-01 05:26:00,
2013-02-01 07:27:00,44.1,18.8,29.59,ESE,112,1.3,1.3,36,0.00,,---,0.00,VWS V14.01,2013-02-01 05:27:00,
2013-02-01 07:28:00,44.1,18.8,29.59,East,90,1.6,1.6,36,0.00,,---,0.00,VWS V14.01,2013-02-01 05:28:00,
2013-02-01 07:29:00,44.2,19.0,29.59,East,90,1.1,1.6,36,0.00,,---,0.00,VWS V14.01,2013-02-01 05:29:00,
2013-02-01 07:30:00,44.2,19.6,29.59,ENE,68,1.6,1.6,37,0.00,,---,0.00,VWS V14.01,2013-02-01 05:30:00,
2013-02-01 07:31:00,44.2,19.6,29.59,ENE,68,1.1,1.6,37,0.00,,---,0.00,VWS V14.01,2013-02-01 05:31:00,
2013-02-01 07:32:00,44.1,19.5,29.59,ENE,68,2.2,2.2,37,0.00,,---,0.00,VWS V14.01,2013-02-01 05:32:00,
2013-02-01 07:33:00,44.1,18.8,29.59,NE,45,1.6,2.2,36,0.00,,---,0.00,VWS V14.01,2013-02-01 05:33:00,
2013-02-01 07:34:00,44.1,18.8,29.59,NE,45,2.5,2.5,36,0.00,,---,0.00,VWS V14.01,2013-02-01 05:34:00,
2013-02-01 07:35:00,44.1,19.5,29.59,NNE,22,2.2,2.5,37,0.00,,---,0.00,VWS V14.01,2013-02-01 05:35:00,
2013-02-01 07:36:00,43.9,18.7,29.59,NNE,22,2.0,2.2,36,0.00,,---,0.00,VWS V14.01,2013-02-01 05:36:00,
2013-02-01 07:37:00,43.7,18.5,29.59,NNE,22,1.6,2.0,36,0.00,,---,0.00,VWS V14.01,2013-02-01 05:37:00,
2013-02-01 07:38:00,43.7,19.1,29.59,NNE,22,1.6,1.6,37,0.00,,---,0.00,VWS V14.01,2013-02-01 05:38:00,
2013-02-01 07:39:00,43.7,19.1,29.59,NNE,22,0.0,1.6,37,0.00,,---,0.00,VWS V14.01,2013-02-01 05:39:00,
2013-02-01 07:40:00,43.7,19.1,29.59,NNE,22,0.0,0.0,37,0.00,,---,0.00,VWS V14.01,2013-02-01 05:40:00,
2013-02-01 07:41:00,43.5,19.0,29.59,NNE,22,0.0,0.0,37,0.00,,---,0.00,VWS V14.01,2013-02-01 05:41:00,
2013-02-01 07:42:00,43.5,19.0,29.59,NNE,22,0.0,0.0,37,0.00,,---,0.00,VWS V14.01,2013-02-01 05:42:00,
2013-02-01 07:43:00,43.5,19.0,29.59,NNE,22,0.0,0.0,37,0.00,,---,0.00,VWS V14.01,2013-02-01 05:43:00,
2013-02-01 07:44:00,43.5,19.0,29.59,NNE,22,0.0,0.0,37,0.00,,---,0.00,VWS V14.01,2013-02-01 05:44:00,
2013-02-01 07:45:00,43.3,18.8,29.59,NNE,22,0.0,0.0,37,0.00,,---,0.00,VWS V14.01,2013-02-01 05:45:00,
2013-02-01 07:46:00,43.3,18.8,29.59,NNE,22,0.0,0.0,37,0.00,,---,0.00,VWS V14.01,2013-02-01 05:46:00,
2013-02-01 07:47:00,43.3,18.8,29.59,NNE,22,0.0,0.0,37,0.00,,---,0.00,VWS V14.01,2013-02-01 05:47:00,
2013-02-01 07:48:00,43.3,18.8,29.59,NNE,22,0.0,0.0,37,0.00,,---,0.00,VWS V14.01,2013-02-01 05:48:00,
2013-02-01 07:49:00,43.3,18.8,29.59,NNE,22,0.0,0.0,37,0.00,,---,0.00,VWS V14.01,2013-02-01 05:49:00,
2013-02-01 07:50:00,43.3,18.8,29.59,NNE,22,2.0,2.0,37,0.00,,---,0.00,VWS V14.01,2013-02-01 05:50:00,
2013-02-01 07:51:00,43.3,18.8,29.59,NNE,22,1.6,2.0,37,0.00,,---,0.00,VWS V14.01,2013-02-01 05:51:00,
2013-02-01 07:52:00,43.3,18.8,29.59,NNE,22,2.2,2.2,37,0.00,,---,0.00,VWS V14.01,2013-02-01 05:52:00,
2013-02-01 07:53:00,43.3,19.5,29.59,NNE,22,2.2,2.2,38,0.00,,---,0.00,VWS V14.01,2013-02-01 05:53:00,
2013-02-01 07:54:00,43.3,19.5,29.59,NNE,22,1.3,2.2,38,0.00,,---,0.00,VWS V14.01,2013-02-01 05:54:00,
2013-02-01 07:55:00,43.2,19.3,29.59,NNE,22,0.9,1.3,38,0.00,,---,0.00,VWS V14.01,2013-02-01 05:55:00,
2013-02-01 07:56:00,43.2,18.7,29.59,NNE,22,2.0,2.0,37,0.00,,---,0.00,VWS V14.01,2013-02-01 05:56:00,
2013-02-01 07:57:00,43.2,19.3,29.59,NNE,22,1.1,2.0,38,0.00,,---,0.00,VWS V14.01,2013-02-01 05:57:00,
2013-02-01 07:58:00,43.2,19.3,29.59,NNE,22,0.9,1.1,38,0.00,,---,0.00,VWS V14.01,2013-02-01 05:58:00,
2013-02-01 07:59:00,43.2,19.3,29.59,NNE,22,1.6,1.6,38,0.00,,---,0.00,VWS V14.01,2013-02-01 05:59:00,
2013-02-01 08:00:00,43.2,19.3,29.59,NNE,22,0.9,1.6,38,0.00,,---,0.00,VWS V14.01,2013-02-01 06:00:00,
2013-02-01 08:01:00,43.2,19.3,29.59,NNE,22,1.3,1.3,38,0.00,,---,0.00,VWS V14.01,2013-02-01 06:01:00,
2013-02-01 08:02:00,43.3,19.5,29.59,NNE,22,1.1,1.3,38,0.00,,---,0.00,VWS V14.01,2013-02-01 06:02:00,
2013-02-01 08:04:00,43.3,19.5,29.59,NNE,22,2.2,2.2,38,0.00,,---,0.00,VWS V14.01,2013-02-01 06:04:00,
2013-02-01 08:05:00,43.3,19.5,29.59,NNE,22,2.5,2.5,38,0.00,,---,0.00,VWS V14.01,2013-02-01 06:05:00,
2013-02-01 08:06:00,43.3,19.5,29.59,NNE,22,1.3,2.5,38,0.00,,---,0.00,VWS V14.01,2013-02-01 06:06:00,
2013-02-01 08:07:00,43.3,19.5,29.59,NNE,22,1.3,1.3,38,0.00,,---,0.00,VWS V14.01,2013-02-01 06:07:00,
2013-02-01 08:08:00,43.3,19.5,29.59,NNE,22,1.3,1.3,38,0.00,,---,0.00,VWS V14.01,2013-02-01 06:08:00,
2013-02-01 08:09:00,43.5,19.6,29.59,NNE,22,2.5,2.5,38,0.00,,---,0.00,VWS V14.01,2013-02-01 06:09:00,
2013-02-01 08:10:00,43.5,19.6,29.59,NNE,22,0.0,2.5,38,0.00,,---,0.00,VWS V14.01,2013-02-01 06:10:00,
2013-02-01 08:11:00,43.5,19.6,29.59,NNE,22,0.0,0.0,38,0.00,,---,0.00,VWS V14.01,2013-02-01 06:11:00,
2013-02-01 08:12:00,43.5,19.6,29.59,NNE,22,0.0,0.0,38,0.00,,---,0.00,VWS V14.01,2013-02-01 06:12:00,
2013-02-01 08:13:00,43.5,19.6,29.59,NNE,22,0.0,0.0,38,0.00,,---,0.00,VWS V14.01,2013-02-01 06:13:00,
2013-02-01 08:14:00,43.5,19.6,29.59,NNE,22,0.0,0.0,38,0.00,,---,0.00,VWS V14.01,2013-02-01 06:14:00,
2013-02-01 08:15:00,43.5,19.6,29.59,NNE,22,0.0,0.0,38,0.00,,---,0.00,VWS V14.01,2013-02-01 06:15:00,
2013-02-01 08:16:00,43.5,19.6,29.59,NNE,22,0.9,0.9,38,0.00,,---,0.00,VWS V14.01,2013-02-01 06:16:00,
2013-02-01 08:17:00,43.5,19.6,29.59,NE,45,1.6,1.6,38,0.00,,---,0.00,VWS V14.01,2013-02-01 06:17:00,
2013-02-01 08:18:00,43.5,19.6,29.59,ENE,68,1.3,1.6,38,0.00,,---,0.00,VWS V14.01,2013-02-01 06:18:00,
2013-02-01 08:19:00,43.5,19.6,29.59,SE,135,2.7,2.7,38,0.00,,---,0.00,VWS V14.01,2013-02-01 06:19:00,
2013-02-01 08:20:00,43.5,19.6,29.59,SSE,158,3.1,3.1,38,0.00,,---,0.00,VWS V14.01,2013-02-01 06:20:00,
2013-02-01 08:21:00,43.7,19.8,29.59,SSE,158,3.1,3.1,38,0.00,,---,0.00,VWS V14.01,2013-02-01 06:21:00,
2013-02-01 08:22:00,43.7,19.8,29.59,SSE,158,1.3,3.1,38,0.00,,---,0.00,VWS V14.01,2013-02-01 06:22:00,
2013-02-01 08:23:00,44.1,20.1,29.59,SSE,158,1.1,1.3,38,0.00,,---,0.00,VWS V14.01,2013-02-01 06:23:00,
2013-02-01 08:24:00,44.2,20.3,29.59,SE,135,0.0,1.1,38,0.00,,---,0.00,VWS V14.01,2013-02-01 06:24:00,
2013-02-01 08:25:00,44.2,20.3,29.59,SE,135,0.0,0.0,38,0.00,,---,0.00,VWS V14.01,2013-02-01 06:25:00,
2013-02-01 08:26:00,44.4,20.4,29.59,SE,135,1.1,1.1,38,0.00,,---,0.00,VWS V14.01,2013-02-01 06:26:00,
2013-02-01 08:27:00,44.8,20.7,29.59,SE,135,0.0,1.1,38,0.00,,---,0.00,VWS V14.01,2013-02-01 06:27:00,
2013-02-01 08:28:00,45.1,21.1,29.59,SE,135,0.0,0.0,38,0.00,,---,0.00,VWS V14.01,2013-02-01 06:28:00,
2013-02-01 08:29:00,45.7,21.5,29.59,SE,135,0.0,0.0,38,0.00,,---,0.00,VWS V14.01,2013-02-01 06:29:00,
2013-02-01 08:30:00,46.2,22.0,29.59,SE,135,0.0,0.0,38,0.00,,---,0.00,VWS V14.01,2013-02-01 06:30:00,
2013-02-01 08:31:00,47.3,23.0,29.59,SE,135,0.0,0.0,38,0.00,,---,0.00,VWS V14.01,2013-02-01 06:31:00,
2013-02-01 08:32:00,47.8,23.5,29.59,SE,135,0.0,0.0,38,0.00,,---,0.00,VWS V14.01,2013-02-01 06:32:00,
2013-02-01 08:33:00,47.8,23.5,29.59,SE,135,0.0,0.0,38,0.00,,---,0.00,VWS V14.01,2013-02-01 06:33:00,
2013-02-01 08:35:00,49.1,24.6,29.59,ESE,112,0.0,0.0,38,0.00,,---,0.00,VWS V14.01,2013-02-01 06:35:00,
2013-02-01 08:36:00,49.6,25.1,29.59,ESE,112,0.0,0.0,38,0.00,,---,0.00,VWS V14.01,2013-02-01 06:36:00,
2013-02-01 08:37:00,50.0,24.8,29.59,ESE,112,0.0,0.0,37,0.00,,---,0.00,VWS V14.01,2013-02-01 06:37:00,
2013-02-01 08:38:00,50.5,25.2,29.59,ESE,112,0.0,0.0,37,0.00,,---,0.00,VWS V14.01,2013-02-01 06:38:00,
2013-02-01 08:39:00,50.9,25.6,29.59,ESE,112,0.9,0.9,37,0.00,,---,0.00,VWS V14.01,2013-02-01 06:39:00,
2013-02-01 08:41:00,51.8,26.4,29.59,ESE,112,1.6,1.6,37,0.00,,---,0.00,VWS V14.01,2013-02-01 06:41:00,
2013-02-01 08:42:00,51.8,26.4,29.59,ESE,112,0.0,1.6,37,0.00,,---,0.00,VWS V14.01,2013-02-01 06:42:00,
2013-02-01 08:43:00,52.5,26.4,29.59,ESE,112,0.0,0.0,36,0.00,,---,0.00,VWS V14.01,2013-02-01 06:43:00,
2013-02-01 08:44:00,52.7,26.5,29.59,ESE,112,0.9,0.9,36,0.00,,---,0.00,VWS V14.01,2013-02-01 06:44:00,
2013-02-01 08:45:00,53.1,26.8,29.59,ESE,112,1.1,1.1,36,0.00,,---,0.00,VWS V14.01,2013-02-01 06:45:00,
2013-02-01 08:46:00,53.1,24.0,29.59,ESE,112,0.0,1.1,32,0.00,,---,0.00,VWS V14.01,2013-02-01 06:46:00,
2013-02-01 08:47:00,53.4,25.1,29.59,ESE,112,1.6,1.6,33,0.00,,---,0.00,VWS V14.01,2013-02-01 06:47:00,
2013-02-01 08:48:00,53.6,23.7,29.59,ESE,112,0.0,1.6,31,0.00,,---,0.00,VWS V14.01,2013-02-01 06:48:00,
2013-02-01 08:49:00,53.6,23.7,29.59,ESE,112,1.1,1.1,31,0.00,,---,0.00,VWS V14.01,2013-02-01 06:49:00,
2013-02-01 08:50:00,54.1,25.0,29.59,ESE,112,0.0,1.1,32,0.00,,---,0.00,VWS V14.01,2013-02-01 06:50:00,
2013-02-01 08:51:00,54.3,24.4,29.59,ESE,112,1.1,1.1,31,0.00,,---,0.00,VWS V14.01,2013-02-01 06:51:00,
2013-02-01 08:52:00,54.5,23.7,29.59,ESE,112,0.0,1.1,30,0.00,,---,0.00,VWS V14.01,2013-02-01 06:52:00,
2013-02-01 08:53:00,54.9,24.0,29.62,ESE,112,0.0,0.0,30,0.00,,---,0.00,VWS V14.01,2013-02-01 06:53:00,
2013-02-01 08:57:00,55.0,23.4,29.62,East,90,1.6,1.6,29,0.00,,---,0.00,VWS V14.01,2013-02-01 06:57:00,
2013-02-01 08:58:00,55.0,22.5,29.62,East,90,1.6,1.6,28,0.00,,---,0.00,VWS V14.01,2013-02-01 06:58:00,
2013-02-01 08:59:00,55.2,23.5,29.62,East,90,1.3,1.6,29,0.00,,---,0.00,VWS V14.01,2013-02-01 06:59:00,
2013-02-01 09:00:00,55.4,22.9,29.62,East,90,1.1,1.3,28,0.00,,---,0.00,VWS V14.01,2013-02-01 07:00:00,
2013-02-01 09:02:00,55.8,22.3,29.62,East,90,0.9,1.1,27,0.00,,---,0.00,VWS V14.01,2013-02-01 07:02:00,
2013-02-01 09:03:00,55.8,22.3,29.62,East,90,0.9,0.9,27,0.00,,---,0.00,VWS V14.01,2013-02-01 07:03:00,
2013-02-01 09:04:00,55.9,22.5,29.62,East,90,0.0,0.9,27,0.00,,---,0.00,VWS V14.01,2013-02-01 07:04:00,
2013-02-01 09:05:00,56.1,22.6,29.62,East,90,1.3,1.3,27,0.00,,---,0.00,VWS V14.01,2013-02-01 07:05:00,
2013-02-01 09:07:00,56.7,23.1,29.62,SE,135,2.0,2.0,27,0.00,,---,0.00,VWS V14.01,2013-02-01 07:07:00,
2013-02-01 09:08:00,56.8,23.2,29.62,SE,135,1.3,2.0,27,0.00,,---,0.00,VWS V14.01,2013-02-01 07:08:00,
2013-02-01 09:09:00,56.8,22.3,29.62,SE,135,0.0,1.3,26,0.00,,---,0.00,VWS V14.01,2013-02-01 07:09:00,
2013-02-01 09:10:00,57.2,22.6,29.62,SE,135,0.0,0.0,26,0.00,,---,0.00,VWS V14.01,2013-02-01 07:10:00,
2013-02-01 09:11:00,57.4,22.8,29.62,SE,135,0.0,0.0,26,0.00,,---,0.00,VWS V14.01,2013-02-01 07:11:00,
2013-02-01 09:13:00,57.6,23.0,29.62,East,90,0.9,0.9,26,0.00,,---,0.00,VWS V14.01,2013-02-01 07:13:00,
2013-02-01 09:15:00,57.7,23.1,29.62,East,90,1.6,1.6,26,0.00,,---,0.00,VWS V14.01,2013-02-01 07:15:00,
2013-02-01 09:16:00,57.7,22.2,29.62,East,90,2.7,2.7,25,0.00,,---,0.00,VWS V14.01,2013-02-01 07:16:00,
2013-02-01 09:17:00,57.6,22.0,29.62,NE,45,1.1,2.7,25,0.00,,---,0.00,VWS V14.01,2013-02-01 07:17:00,
2013-02-01 09:18:00,57.7,22.2,29.62,NNE,22,2.5,2.5,25,0.00,,---,0.00,VWS V14.01,2013-02-01 07:18:00,
2013-02-01 09:19:00,57.7,22.2,29.62,NNE,22,0.9,2.5,25,0.00,,---,0.00,VWS V14.01,2013-02-01 07:19:00,
2013-02-01 09:20:00,57.7,22.2,29.62,NNE,22,2.2,2.2,25,0.00,,---,0.00,VWS V14.01,2013-02-01 07:20:00,
2013-02-01 09:21:00,57.7,22.2,29.62,NNE,22,0.9,2.2,25,0.00,,---,0.00,VWS V14.01,2013-02-01 07:21:00,
2013-02-01 09:22:00,57.9,22.3,29.62,NE,45,1.1,1.1,25,0.00,,---,0.00,VWS V14.01,2013-02-01 07:22:00,
2013-02-01 09:23:00,58.3,22.6,29.62,NE,45,0.0,1.1,25,0.00,,---,0.00,VWS V14.01,2013-02-01 07:23:00,
2013-02-01 09:24:00,58.6,22.9,29.62,NNE,22,0.0,0.0,25,0.00,,---,0.00,VWS V14.01,2013-02-01 07:24:00,
2013-02-01 09:25:00,58.8,23.1,29.62,NNE,22,0.9,0.9,25,0.00,,---,0.00,VWS V14.01,2013-02-01 07:25:00,
2013-02-01 09:27:00,58.8,23.1,29.62,NNE,22,0.9,0.9,25,0.00,,---,0.00,VWS V14.01,2013-02-01 07:27:00,
2013-02-01 09:28:00,58.3,21.7,29.62,North,0,0.0,0.9,24,0.00,,---,0.00,VWS V14.01,2013-02-01 07:28:00,
2013-02-01 09:29:00,58.1,21.5,29.62,North,0,0.0,0.0,24,0.00,,---,0.00,VWS V14.01,2013-02-01 07:29:00,
2013-02-01 09:30:00,58.5,21.8,29.62,ENE,68,1.3,1.3,24,0.00,,---,0.00,VWS V14.01,2013-02-01 07:30:00,
2013-02-01 09:31:00,58.8,23.1,29.62,East,90,0.0,1.3,25,0.00,,---,0.00,VWS V14.01,2013-02-01 07:31:00,
2013-02-01 09:32:00,58.8,22.1,29.62,East,90,0.0,0.0,24,0.00,,---,0.00,VWS V14.01,2013-02-01 07:32:00,
2013-02-01 09:33:00,59.0,22.3,29.62,East,90,1.3,1.3,24,0.00,,---,0.00,VWS V14.01,2013-02-01 07:33:00,
2013-02-01 09:34:00,59.2,22.4,29.62,East,90,1.6,1.6,24,0.00,,---,0.00,VWS V14.01,2013-02-01 07:34:00,
2013-02-01 09:35:00,59.4,22.6,29.62,ENE,68,1.6,1.6,24,0.00,,---,0.00,VWS V14.01,2013-02-01 07:35:00,
2013-02-01 09:36:00,59.5,22.7,29.62,ENE,68,1.1,1.6,24,0.00,,---,0.00,VWS V14.01,2013-02-01 07:36:00,
2013-02-01 09:37:00,59.5,22.7,29.62,ENE,68,0.0,1.1,24,0.00,,---,0.00,VWS V14.01,2013-02-01 07:37:00,
2013-02-01 09:39:00,59.4,22.6,29.59,East,90,0.0,0.0,24,0.00,,---,0.00,VWS V14.01,2013-02-01 07:39:00,
2013-02-01 09:40:00,59.4,20.5,29.59,East,90,0.0,0.0,22,0.00,,---,0.00,VWS V14.01,2013-02-01 07:40:00,
2013-02-01 09:41:00,59.5,22.7,29.59,East,90,0.0,0.0,24,0.00,,---,0.00,VWS V14.01,2013-02-01 07:41:00,
2013-02-01 09:42:00,59.7,22.9,29.59,East,90,0.0,0.0,24,0.00,,---,0.00,VWS V14.01,2013-02-01 07:42:00,
2013-02-01 09:43:00,59.7,20.8,29.59,ENE,68,1.1,1.1,22,0.00,,---,0.00,VWS V14.01,2013-02-01 07:43:00,
2013-02-01 09:44:00,59.7,20.8,29.59,ENE,68,0.0,1.1,22,0.00,,---,0.00,VWS V14.01,2013-02-01 07:44:00,
2013-02-01 09:45:00,60.1,23.2,29.59,ENE,68,0.0,0.0,24,0.00,,---,0.00,VWS V14.01,2013-02-01 07:45:00,
2013-02-01 09:46:00,60.1,21.1,29.59,East,90,0.0,0.0,22,0.00,,---,0.00,VWS V14.01,2013-02-01 07:46:00,
2013-02-01 09:48:00,60.1,21.1,29.59,NE,45,1.6,1.6,22,0.00,,---,0.00,VWS V14.01,2013-02-01 07:48:00,
2013-02-01 09:49:00,60.8,20.6,29.59,NNE,22,1.3,1.6,21,0.00,,---,0.00,VWS V14.01,2013-02-01 07:49:00,
2013-02-01 09:50:00,61.0,20.8,29.59,NNE,22,0.0,1.3,21,0.00,,---,0.00,VWS V14.01,2013-02-01 07:50:00,
2013-02-01 09:51:00,61.2,20.9,29.59,NNE,22,0.0,0.0,21,0.00,,---,0.00,VWS V14.01,2013-02-01 07:51:00,
2013-02-01 09:52:00,61.3,21.1,29.59,NE,45,0.0,0.0,21,0.00,,---,0.00,VWS V14.01,2013-02-01 07:52:00,
2013-02-01 09:54:00,61.0,20.8,29.59,NNE,22,1.6,1.6,21,0.00,,---,0.00,VWS V14.01,2013-02-01 07:54:00,
2013-02-01 09:56:00,61.2,20.9,29.59,NNE,22,0.9,1.6,21,0.00,,---,0.00,VWS V14.01,2013-02-01 07:56:00,
2013-02-01 09:57:00,61.3,21.1,29.59,NNE,22,0.0,0.9,21,0.00,,---,0.00,VWS V14.01,2013-02-01 07:57:00,
2013-02-01 09:58:00,61.5,21.2,29.59,NNE,22,0.0,0.0,21,0.00,,---,0.00,VWS V14.01,2013-02-01 07:58:00,
2013-02-01 09:59:00,61.7,21.4,29.59,NNE,22,0.0,0.0,21,0.00,,---,0.00,VWS V14.01,2013-02-01 07:59:00,
2013-02-01 10:00:00,61.9,21.5,29.59,NE,45,0.0,0.0,21,0.00,,---,0.00,VWS V14.01,2013-02-01 08:00:00,
2013-02-01 10:03:00,62.4,19.6,29.59,SE,135,1.3,1.3,19,0.00,,---,0.00,VWS V14.01,2013-02-01 08:03:00,
2013-02-01 10:04:00,62.2,19.5,29.59,SE,135,0.0,1.3,19,0.00,,---,0.00,VWS V14.01,2013-02-01 08:04:00,
2013-02-01 10:05:00,62.4,19.6,29.59,ESE,112,1.6,1.6,19,0.00,,---,0.00,VWS V14.01,2013-02-01 08:05:00,
2013-02-01 10:06:00,62.4,19.6,29.59,East,90,1.6,1.6,19,0.00,,---,0.00,VWS V14.01,2013-02-01 08:06:00,
2013-02-01 10:08:00,62.2,19.5,29.59,NNE,22,2.0,2.0,19,0.00,,---,0.00,VWS V14.01,2013-02-01 08:08:00,
2013-02-01 10:09:00,61.9,19.2,29.59,North,0,1.3,2.0,19,0.00,,---,0.00,VWS V14.01,2013-02-01 08:09:00,
2013-02-01 10:10:00,61.9,19.2,29.59,North,0,1.6,1.6,19,0.00,,---,0.00,VWS V14.01,2013-02-01 08:10:00,
2013-02-01 10:11:00,61.7,19.0,29.59,North,0,2.7,2.7,19,0.00,,---,0.00,VWS V14.01,2013-02-01 08:11:00,
2013-02-01 10:12:00,61.9,19.2,29.59,NNE,22,2.0,2.7,19,0.00,,---,0.00,VWS V14.01,2013-02-01 08:12:00,
2013-02-01 10:15:00,61.7,19.0,29.59,ENE,68,1.1,2.0,19,0.00,,---,0.00,VWS V14.01,2013-02-01 08:15:00,
2013-02-01 10:16:00,61.7,19.0,29.59,East,90,0.9,1.1,19,0.00,,---,0.00,VWS V14.01,2013-02-01 08:16:00,
2013-02-01 10:17:00,61.3,18.8,29.59,ENE,68,0.0,0.9,19,0.00,,---,0.00,VWS V14.01,2013-02-01 08:17:00,
2013-02-01 10:18:00,61.3,18.8,29.59,ENE,68,0.0,0.0,19,0.00,,---,0.00,VWS V14.01,2013-02-01 08:18:00,
2013-02-01 10:19:00,61.7,19.0,29.59,ENE,68,1.6,1.6,19,0.00,,---,0.00,VWS V14.01,2013-02-01 08:19:00,
2013-02-01 10:21:00,61.7,19.0,29.59,NNE,22,2.5,2.5,19,0.00,,---,0.00,VWS V14.01,2013-02-01 08:21:00,
2013-02-01 10:22:00,61.7,19.0,29.59,NE,45,2.0,2.5,19,0.00,,---,0.00,VWS V14.01,2013-02-01 08:22:00,
2013-02-01 10:23:00,61.7,19.0,29.62,NE,45,1.6,2.0,19,0.00,,---,0.00,VWS V14.01,2013-02-01 08:23:00,
2013-02-01 10:24:00,61.9,19.2,29.62,ENE,68,1.1,1.6,19,0.00,,---,0.00,VWS V14.01,2013-02-01 08:24:00,
2013-02-01 10:25:00,61.9,19.2,29.62,NNE,22,1.1,1.1,19,0.00,,---,0.00,VWS V14.01,2013-02-01 08:25:00,
2013-02-01 10:26:00,61.9,19.2,29.62,NNE,22,0.9,1.1,19,0.00,,---,0.00,VWS V14.01,2013-02-01 08:26:00,
2013-02-01 10:27:00,62.2,19.5,29.62,SE,135,1.3,1.3,19,0.00,,---,0.00,VWS V14.01,2013-02-01 08:27:00,
2013-02-01 10:28:00,62.2,19.5,29.62,SE,135,0.0,1.3,19,0.00,,---,0.00,VWS V14.01,2013-02-01 08:28:00,
2013-02-01 10:29:00,62.6,18.5,29.62,SE,135,1.3,1.3,18,0.00,,---,0.00,VWS V14.01,2013-02-01 08:29:00,
2013-02-01 10:30:00,62.6,18.5,29.62,SE,135,2.5,2.5,18,0.00,,---,0.00,VWS V14.01,2013-02-01 08:30:00,
2013-02-01 10:31:00,62.8,18.7,29.62,SSE,158,2.0,2.5,18,0.00,,---,0.00,VWS V14.01,2013-02-01 08:31:00,
2013-02-01 10:33:00,62.8,18.7,29.62,SE,135,0.9,2.0,18,0.00,,---,0.00,VWS V14.01,2013-02-01 08:33:00,
2013-02-01 10:35:00,63.0,18.8,29.62,SSE,158,1.3,1.3,18,0.00,,---,0.00,VWS V14.01,2013-02-01 08:35:00,
2013-02-01 10:36:00,63.0,18.8,29.62,SSE,158,0.9,1.3,18,0.00,,---,0.00,VWS V14.01,2013-02-01 08:36:00,
2013-02-01 10:37:00,63.0,18.8,29.62,SE,135,2.0,2.0,18,0.00,,---,0.00,VWS V14.01,2013-02-01 08:37:00,
2013-02-01 10:38:00,63.0,18.8,29.59,SSE,158,1.6,2.0,18,0.00,,---,0.00,VWS V14.01,2013-02-01 08:38:00,
2013-02-01 10:39:00,63.0,18.8,29.59,West,270,2.5,2.5,18,0.00,,---,0.00,VWS V14.01,2013-02-01 08:39:00,
2013-02-01 10:40:00,62.4,19.6,29.59,SE,135,2.9,2.9,19,0.00,,---,0.00,VWS V14.01,2013-02-01 08:40:00,
2013-02-01 10:41:00,62.6,18.5,29.59,ENE,68,2.0,2.9,18,0.00,,---,0.00,VWS V14.01,2013-02-01 08:41:00,
2013-02-01 10:42:00,62.8,18.7,29.59,East,90,2.5,2.5,18,0.00,,---,0.00,VWS V14.01,2013-02-01 08:42:00,
2013-02-01 10:43:00,62.6,18.5,29.59,SSE,158,2.0,2.5,18,0.00,,---,0.00,VWS V14.01,2013-02-01 08:43:00,
2013-02-01 10:44:00,62.6,18.5,29.59,SSE,158,1.6,2.0,18,0.00,,---,0.00,VWS V14.01,2013-02-01 08:44:00,
2013-02-01 10:45:00,62.6,15.8,29.59,SSE,158,1.3,1.6,16,0.00,,---,0.00,VWS V14.01,2013-02-01 08:45:00,
2013-02-01 10:46:00,62.2,15.5,29.59,SSE,158,0.9,1.3,16,0.00,,---,0.00,VWS V14.01,2013-02-01 08:46:00,
2013-02-01 10:47:00,62.8,18.7,29.59,SSE,158,0.9,0.9,18,0.00,,---,0.00,VWS V14.01,2013-02-01 08:47:00,
2013-02-01 10:48:00,62.8,18.7,29.59,SSE,158,0.0,0.9,18,0.00,,---,0.00,VWS V14.01,2013-02-01 08:48:00,
2013-02-01 10:49:00,62.8,18.7,29.59,WSW,248,2.0,2.0,18,0.00,,---,0.00,VWS V14.01,2013-02-01 08:49:00,
2013-02-01 10:50:00,63.0,18.8,29.59,WNW,292,1.1,2.0,18,0.00,,---,0.00,VWS V14.01,2013-02-01 08:50:00,
2013-02-01 10:51:00,63.0,18.8,29.59,SW,225,1.1,1.1,18,0.00,,---,0.00,VWS V14.01,2013-02-01 08:51:00,
2013-02-01 10:52:00,63.0,18.8,29.59,South,180,2.2,2.2,18,0.00,,---,0.00,VWS V14.01,2013-02-01 08:52:00,
2013-02-01 10:53:00,63.1,19.0,29.59,ESE,112,2.7,2.7,18,0.00,,---,0.00,VWS V14.01,2013-02-01 08:53:00,
2013-02-01 10:54:00,63.0,18.8,29.59,South,180,2.5,2.7,18,0.00,,---,0.00,VWS V14.01,2013-02-01 08:54:00,
2013-02-01 10:55:00,63.1,19.0,29.59,North,0,1.6,2.5,18,0.00,,---,0.00,VWS V14.01,2013-02-01 08:55:00,
2013-02-01 10:56:00,63.1,16.2,29.59,West,270,2.9,2.9,16,0.00,,---,0.00,VWS V14.01,2013-02-01 08:56:00,
2013-02-01 10:57:00,63.0,18.8,29.59,East,90,2.2,2.9,18,0.00,,---,0.00,VWS V14.01,2013-02-01 08:57:00,
2013-02-01 10:58:00,62.6,15.8,29.59,SE,135,1.3,2.2,16,0.00,,---,0.00,VWS V14.01,2013-02-01 08:58:00,
2013-02-01 10:59:00,63.1,19.0,29.59,SSE,158,2.0,2.0,18,0.00,,---,0.00,VWS V14.01,2013-02-01 08:59:00,
2013-02-01 11:00:00,63.1,19.0,29.59,SSE,158,1.6,2.0,18,0.00,,---,0.00,VWS V14.01,2013-02-01 09:00:00,
2013-02-01 11:01:00,63.1,19.0,29.59,South,180,0.0,1.6,18,0.00,,---,0.00,VWS V14.01,2013-02-01 09:01:00,
2013-02-01 11:02:00,63.3,19.1,29.59,South,180,0.0,0.0,18,0.00,,---,0.00,VWS V14.01,2013-02-01 09:02:00,
2013-02-01 11:03:00,63.5,19.3,29.59,SW,225,1.3,1.3,18,0.00,,---,0.00,VWS V14.01,2013-02-01 09:03:00,
2013-02-01 11:04:00,63.0,18.8,29.59,SW,225,1.1,1.3,18,0.00,,---,0.00,VWS V14.01,2013-02-01 09:04:00,
2013-02-01 11:05:00,63.1,19.0,29.59,ESE,112,1.1,1.1,18,0.00,,---,0.00,VWS V14.01,2013-02-01 09:05:00,
2013-02-01 11:07:00,63.1,19.0,29.59,SE,135,1.1,1.1,18,0.00,,---,0.00,VWS V14.01,2013-02-01 09:07:00,
2013-02-01 11:08:00,63.3,19.1,29.62,South,180,1.1,1.1,18,0.00,,---,0.00,VWS V14.01,2013-02-01 09:08:00,
2013-02-01 11:09:00,63.3,19.1,29.62,WNW,292,1.6,1.6,18,0.00,,---,0.00,VWS V14.01,2013-02-01 09:09:00,
2013-02-01 11:10:00,63.1,19.0,29.62,WSW,248,2.2,2.2,18,0.00,,---,0.00,VWS V14.01,2013-02-01 09:10:00,
2013-02-01 11:11:00,62.8,18.7,29.62,SW,225,1.6,2.2,18,0.00,,---,0.00,VWS V14.01,2013-02-01 09:11:00,
2013-02-01 11:12:00,63.1,19.0,29.62,North,0,2.0,2.0,18,0.00,,---,0.00,VWS V14.01,2013-02-01 09:12:00,
2013-02-01 11:13:00,63.0,16.1,29.62,ENE,68,2.0,2.0,16,0.00,,---,0.00,VWS V14.01,2013-02-01 09:13:00,
2013-02-01 11:14:00,63.0,18.8,29.62,NNW,338,2.9,2.9,18,0.00,,---,0.00,VWS V14.01,2013-02-01 09:14:00,
2013-02-01 11:15:00,62.6,15.8,29.62,SSW,202,1.6,2.9,16,0.00,,---,0.00,VWS V14.01,2013-02-01 09:15:00,
2013-02-01 11:16:00,62.6,18.5,29.62,NNE,22,1.6,1.6,18,0.00,,---,0.00,VWS V14.01,2013-02-01 09:16:00,
2013-02-01 11:17:00,62.4,15.7,29.62,SSE,158,1.3,1.6,16,0.00,,---,0.00,VWS V14.01,2013-02-01 09:17:00,
2013-02-01 11:18:00,62.4,15.7,29.62,NW,315,2.9,2.9,16,0.00,,---,0.00,VWS V14.01,2013-02-01 09:18:00,
2013-02-01 11:19:00,62.4,15.7,29.62,South,180,1.6,2.9,16,0.00,,---,0.00,VWS V14.01,2013-02-01 09:19:00,
2013-02-01 11:20:00,62.2,15.5,29.62,NW,315,2.2,2.2,16,0.00,,---,0.00,VWS V14.01,2013-02-01 09:20:00,
2013-02-01 11:21:00,62.6,15.8,29.62,SE,135,4.3,4.3,16,0.00,,---,0.00,VWS V14.01,2013-02-01 09:21:00,
2013-02-01 11:22:00,62.6,15.8,29.62,SE,135,1.3,4.3,16,0.00,,---,0.00,VWS V14.01,2013-02-01 09:22:00,
2013-02-01 11:23:00,62.8,15.9,29.59,SE,135,2.0,2.0,16,0.00,,---,0.00,VWS V14.01,2013-02-01 09:23:00,
2013-02-01 11:24:00,63.0,18.8,29.59,West,270,2.5,2.5,18,0.00,,---,0.00,VWS V14.01,2013-02-01 09:24:00,
2013-02-01 11:25:00,62.8,18.7,29.59,South,180,2.0,2.5,18,0.00,,---,0.00,VWS V14.01,2013-02-01 09:25:00,
2013-02-01 11:26:00,62.8,18.7,29.59,NW,315,1.1,2.0,18,0.00,,---,0.00,VWS V14.01,2013-02-01 09:26:00,
2013-02-01 11:27:00,62.8,18.7,29.59,NNE,22,1.3,1.3,18,0.00,,---,0.00,VWS V14.01,2013-02-01 09:27:00,
2013-02-01 11:28:00,62.6,18.5,29.59,South,180,2.5,2.5,18,0.00,,---,0.00,VWS V14.01,2013-02-01 09:28:00,
2013-02-01 11:29:00,62.6,15.8,29.59,NNW,338,1.3,2.5,16,0.00,,---,0.00,VWS V14.01,2013-02-01 09:29:00,
2013-02-01 11:30:00,62.6,15.8,29.59,SSE,158,3.4,3.4,16,0.00,,---,0.00,VWS V14.01,2013-02-01 09:30:00,
2013-02-01 11:31:00,62.8,15.9,29.59,East,90,0.9,3.4,16,0.00,,---,0.00,VWS V14.01,2013-02-01 09:31:00,
2013-02-01 11:32:00,63.0,16.1,29.59,NNE,22,1.6,1.6,16,0.00,,---,0.00,VWS V14.01,2013-02-01 09:32:00,
2013-02-01 11:33:00,63.1,19.0,29.59,NW,315,2.0,2.0,18,0.00,,---,0.00,VWS V14.01,2013-02-01 09:33:00,
2013-02-01 11:34:00,62.6,18.5,29.59,NNW,338,2.5,2.5,18,0.00,,---,0.00,VWS V14.01,2013-02-01 09:34:00,
2013-02-01 11:35:00,62.4,15.7,29.59,SSE,158,2.5,2.5,16,0.00,,---,0.00,VWS V14.01,2013-02-01 09:35:00,
2013-02-01 11:36:00,62.6,18.5,29.59,North,0,1.6,2.5,18,0.00,,---,0.00,VWS V14.01,2013-02-01 09:36:00,
2013-02-01 11:37:00,62.6,18.5,29.59,ESE,112,1.6,1.6,18,0.00,,---,0.00,VWS V14.01,2013-02-01 09:37:00,
2013-02-01 11:38:00,63.0,16.1,29.59,South,180,1.1,1.6,16,0.00,,---,0.00,VWS V14.01,2013-02-01 09:38:00,
2013-02-01 11:39:00,63.0,16.1,29.59,ESE,112,1.1,1.1,16,0.00,,---,0.00,VWS V14.01,2013-02-01 09:39:00,
2013-02-01 11:40:00,63.1,19.0,29.59,East,90,2.0,2.0,18,0.00,,---,0.00,VWS V14.01,2013-02-01 09:40:00,
2013-02-01 11:41:00,63.1,19.0,29.59,North,0,1.3,2.0,18,0.00,,---,0.00,VWS V14.01,2013-02-01 09:41:00,
2013-02-01 11:42:00,62.6,15.8,29.59,SSW,202,1.3,1.3,16,0.00,,---,0.00,VWS V14.01,2013-02-01 09:42:00,
2013-02-01 11:43:00,62.6,18.5,29.59,North,0,1.3,1.3,18,0.00,,---,0.00,VWS V14.01,2013-02-01 09:43:00,
2013-02-01 11:44:00,62.6,18.5,29.59,North,0,2.0,2.0,18,0.00,,---,0.00,VWS V14.01,2013-02-01 09:44:00,
2013-02-01 11:45:00,62.6,18.5,29.59,ENE,68,2.5,2.5,18,0.00,,---,0.00,VWS V14.01,2013-02-01 09:45:00,
2013-02-01 11:46:00,62.6,18.5,29.59,ESE,112,2.7,2.7,18,0.00,,---,0.00,VWS V14.01,2013-02-01 09:46:00,
2013-02-01 11:47:00,62.4,15.7,29.59,ESE,112,3.6,3.6,16,0.00,,---,0.00,VWS V14.01,2013-02-01 09:47:00,
2013-02-01 11:48:00,62.1,15.4,29.59,SE,135,2.2,3.6,16,0.00,,---,0.00,VWS V14.01,2013-02-01 09:48:00,
2013-02-01 11:50:00,61.9,15.2,29.59,SSE,158,1.6,2.2,16,0.00,,---,0.00,VWS V14.01,2013-02-01 09:50:00,
2013-02-01 11:51:00,61.7,15.1,29.59,South,180,2.0,2.0,16,0.00,,---,0.00,VWS V14.01,2013-02-01 09:51:00,
2013-02-01 11:52:00,61.9,15.2,29.59,WNW,292,3.1,3.1,16,0.00,,---,0.00,VWS V14.01,2013-02-01 09:52:00,
2013-02-01 11:53:00,61.9,15.2,29.59,NNW,338,2.5,3.1,16,0.00,,---,0.00,VWS V14.01,2013-02-01 09:53:00,
2013-02-01 11:54:00,61.9,15.2,29.59,WNW,292,1.1,2.5,16,0.00,,---,0.00,VWS V14.01,2013-02-01 09:54:00,
2013-02-01 11:55:00,61.9,15.2,29.59,NE,45,1.1,1.1,16,0.00,,---,0.00,VWS V14.01,2013-02-01 09:55:00,
2013-02-01 11:56:00,62.2,19.5,29.59,SW,225,2.0,2.0,19,0.00,,---,0.00,VWS V14.01,2013-02-01 09:56:00,
2013-02-01 11:57:00,62.4,19.6,29.59,NW,315,1.6,2.0,19,0.00,,---,0.00,VWS V14.01,2013-02-01 09:57:00,
2013-02-01 11:58:00,62.6,18.5,29.59,ENE,68,1.1,1.6,18,0.00,,---,0.00,VWS V14.01,2013-02-01 09:58:00,
2013-02-01 11:59:00,62.8,18.7,29.59,NNE,22,1.6,1.6,18,0.00,,---,0.00,VWS V14.01,2013-02-01 09:59:00,
2013-02-01 12:00:00,63.0,18.8,29.59,North,0,2.5,2.5,18,0.00,,---,0.00,VWS V14.01,2013-02-01 10:00:00,
2013-02-01 12:01:00,63.0,18.8,29.59,East,90,1.6,2.5,18,0.00,,---,0.00,VWS V14.01,2013-02-01 10:01:00,
2013-02-01 12:02:00,63.3,19.1,29.59,South,180,3.6,3.6,18,0.00,,---,0.00,VWS V14.01,2013-02-01 10:02:00,
2013-02-01 12:03:00,63.5,19.3,29.59,ESE,112,1.3,3.6,18,0.00,,---,0.00,VWS V14.01,2013-02-01 10:03:00,
2013-02-01 12:04:00,63.5,19.3,29.59,West,270,2.0,2.0,18,0.00,,---,0.00,VWS V14.01,2013-02-01 10:04:00,
2013-02-01 12:05:00,63.7,19.4,29.59,SE,135,2.5,2.5,18,0.00,,---,0.00,VWS V14.01,2013-02-01 10:05:00,
2013-02-01 12:06:00,63.7,19.4,29.59,SE,135,1.1,2.5,18,0.00,,---,0.00,VWS V14.01,2013-02-01 10:06:00,
2013-02-01 12:07:00,63.9,19.6,29.59,ESE,112,3.4,3.4,18,0.00,,---,0.00,VWS V14.01,2013-02-01 10:07:00,
2013-02-01 12:09:00,63.3,16.4,29.59,NNE,22,1.6,3.4,16,0.00,,---,0.00,VWS V14.01,2013-02-01 10:09:00,
2013-02-01 12:11:00,63.0,16.1,29.59,ESE,112,2.2,2.2,16,0.00,,---,0.00,VWS V14.01,2013-02-01 10:11:00,
2013-02-01 12:12:00,63.0,18.8,29.59,South,180,2.9,2.9,18,0.00,,---,0.00,VWS V14.01,2013-02-01 10:12:00,
2013-02-01 12:13:00,62.8,18.7,29.59,ESE,112,2.0,2.9,18,0.00,,---,0.00,VWS V14.01,2013-02-01 10:13:00,
2013-02-01 12:14:00,63.0,16.1,29.59,ESE,112,1.3,2.0,16,0.00,,---,0.00,VWS V14.01,2013-02-01 10:14:00,
2013-02-01 12:15:00,62.8,15.9,29.59,SSW,202,4.5,4.5,16,0.00,,---,0.00,VWS V14.01,2013-02-01 10:15:00,
2013-02-01 12:16:00,62.4,15.7,29.59,SSW,202,2.9,4.5,16,0.00,,---,0.00,VWS V14.01,2013-02-01 10:16:00,
2013-02-01 12:17:00,62.4,15.7,29.59,SSE,158,3.1,3.1,16,0.00,,---,0.00,VWS V14.01,2013-02-01 10:17:00,
2013-02-01 12:18:00,62.4,15.7,29.59,SSE,158,1.6,3.1,16,0.00,,---,0.00,VWS V14.01,2013-02-01 10:18:00,
2013-02-01 12:19:00,62.2,15.5,29.59,South,180,3.1,3.1,16,0.00,,---,0.00,VWS V14.01,2013-02-01 10:19:00,
2013-02-01 12:20:00,62.2,15.5,29.59,SE,135,2.5,3.1,16,0.00,,---,0.00,VWS V14.01,2013-02-01 10:20:00,
2013-02-01 12:21:00,62.2,15.5,29.59,East,90,1.3,2.5,16,0.00,,---,0.00,VWS V14.01,2013-02-01 10:21:00,
2013-02-01 12:22:00,62.2,15.5,29.59,South,180,2.5,2.5,16,0.00,,---,0.00,VWS V14.01,2013-02-01 10:22:00,
2013-02-01 12:23:00,62.2,15.5,29.59,East,90,4.0,4.0,16,0.00,,---,0.00,VWS V14.01,2013-02-01 10:23:00,
2013-02-01 12:24:00,62.2,15.5,29.59,SSW,202,2.7,4.0,16,0.00,,---,0.00,VWS V14.01,2013-02-01 10:24:00,
2013-02-01 12:25:00,62.2,15.5,29.59,SE,135,2.5,2.7,16,0.00,,---,0.00,VWS V14.01,2013-02-01 10:25:00,
2013-02-01 12:26:00,62.2,15.5,29.59,SW,225,2.2,2.5,16,0.00,,---,0.00,VWS V14.01,2013-02-01 10:26:00,
2013-02-01 12:27:00,62.1,15.4,29.59,ESE,112,1.3,2.2,16,0.00,,---,0.00,VWS V14.01,2013-02-01 10:27:00,
2013-02-01 12:28:00,61.5,14.9,29.59,ENE,68,2.0,2.0,16,0.00,,---,0.00,VWS V14.01,2013-02-01 10:28:00,
2013-02-01 12:29:00,61.5,14.9,29.59,WSW,248,3.4,3.4,16,0.00,,---,0.00,VWS V14.01,2013-02-01 10:29:00,
2013-02-01 12:30:00,61.5,14.9,29.59,SSW,202,1.1,3.4,16,0.00,,---,0.00,VWS V14.01,2013-02-01 10:30:00,
2013-02-01 12:31:00,60.3,15.3,29.59,NNW,338,2.7,2.7,17,0.00,,---,0.00,VWS V14.01,2013-02-01 10:31:00,
2013-02-01 12:32:00,60.1,15.1,29.59,East,90,2.7,2.7,17,0.00,,---,0.00,VWS V14.01,2013-02-01 10:32:00,
2013-02-01 12:33:00,60.1,15.1,29.59,East,90,2.2,2.7,17,0.00,,---,0.00,VWS V14.01,2013-02-01 10:33:00,
2013-02-01 12:34:00,60.6,15.6,29.59,ENE,68,1.1,2.2,17,0.00,,---,0.00,VWS V14.01,2013-02-01 10:34:00,
2013-02-01 12:36:00,61.0,14.5,29.59,WNW,292,3.4,3.4,16,0.00,,---,0.00,VWS V14.01,2013-02-01 10:36:00,
2013-02-01 12:37:00,60.6,15.6,29.59,East,90,2.5,3.4,17,0.00,,---,0.00,VWS V14.01,2013-02-01 10:37:00,
2013-02-01 12:38:00,60.6,15.6,29.56,SW,225,2.2,2.5,17,0.00,,---,0.00,VWS V14.01,2013-02-01 10:38:00,
2013-02-01 12:39:00,60.6,15.6,29.56,NNW,338,2.0,2.2,17,0.00,,---,0.00,VWS V14.01,2013-02-01 10:39:00,
2013-02-01 12:40:00,60.8,14.4,29.56,North,0,0.9,2.0,16,0.00,,---,0.00,VWS V14.01,2013-02-01 10:40:00,
2013-02-01 12:42:00,61.2,18.6,29.56,NW,315,1.6,1.6,19,0.00,,---,0.00,VWS V14.01,2013-02-01 10:42:00,
2013-02-01 12:43:00,61.3,18.8,29.56,SSE,158,1.3,1.6,19,0.00,,---,0.00,VWS V14.01,2013-02-01 10:43:00,
2013-02-01 12:44:00,61.5,18.9,29.56,ENE,68,2.7,2.7,19,0.00,,---,0.00,VWS V14.01,2013-02-01 10:44:00,
2013-02-01 12:45:00,61.7,19.0,29.56,SSE,158,2.0,2.7,19,0.00,,---,0.00,VWS V14.01,2013-02-01 10:45:00,
2013-02-01 12:46:00,61.7,19.0,29.56,NE,45,2.5,2.5,19,0.00,,---,0.00,VWS V14.01,2013-02-01 10:46:00,
2013-02-01 12:47:00,61.7,19.0,29.56,NE,45,3.1,3.1,19,0.00,,---,0.00,VWS V14.01,2013-02-01 10:47:00,
2013-02-01 12:48:00,61.3,18.8,29.56,South,180,1.6,3.1,19,0.00,,---,0.00,VWS V14.01,2013-02-01 10:48:00,
2013-02-01 12:49:00,61.7,19.0,29.56,ESE,112,1.3,1.6,19,0.00,,---,0.00,VWS V14.01,2013-02-01 10:49:00,
2013-02-01 12:50:00,61.7,19.0,29.56,South,180,5.4,5.4,19,0.00,,---,0.00,VWS V14.01,2013-02-01 10:50:00,
2013-02-01 12:51:00,61.9,19.2,29.56,WSW,248,1.6,5.4,19,0.00,,---,0.00,VWS V14.01,2013-02-01 10:51:00,
2013-02-01 12:52:00,62.1,19.3,29.56,SSW,202,3.4,3.4,19,0.00,,---,0.00,VWS V14.01,2013-02-01 10:52:00,
2013-02-01 12:53:00,61.9,19.2,29.59,West,270,2.0,3.4,19,0.00,,---,0.00,VWS V14.01,2013-02-01 10:53:00,
2013-02-01 12:54:00,61.9,19.2,29.59,WNW,292,2.7,2.7,19,0.00,,---,0.00,VWS V14.01,2013-02-01 10:54:00,
2013-02-01 12:55:00,61.9,19.2,29.59,WSW,248,1.1,2.7,19,0.00,,---,0.00,VWS V14.01,2013-02-01 10:55:00,
2013-02-01 12:56:00,62.1,19.3,29.59,NNE,22,2.0,2.0,19,0.00,,---,0.00,VWS V14.01,2013-02-01 10:56:00,
2013-02-01 12:57:00,62.2,19.5,29.59,SSE,158,2.0,2.0,19,0.00,,---,0.00,VWS V14.01,2013-02-01 10:57:00,
2013-02-01 12:58:00,62.2,19.5,29.59,SSE,158,2.7,2.7,19,0.00,,---,0.00,VWS V14.01,2013-02-01 10:58:00,
2013-02-01 12:59:00,62.2,19.5,29.59,SSE,158,2.7,2.7,19,0.00,,---,0.00,VWS V14.01,2013-02-01 10:59:00,
2013-02-01 13:00:00,62.2,19.5,29.59,SSE,158,2.0,2.7,19,0.00,,---,0.00,VWS V14.01,2013-02-01 11:00:00,
2013-02-01 13:01:00,62.2,19.5,29.59,South,180,4.0,4.0,19,0.00,,---,0.00,VWS V14.01,2013-02-01 11:01:00,
2013-02-01 13:02:00,62.4,19.6,29.59,NW,315,2.5,4.0,19,0.00,,---,0.00,VWS V14.01,2013-02-01 11:02:00,
2013-02-01 13:04:00,62.2,19.5,29.59,ESE,112,2.0,2.5,19,0.00,,---,0.00,VWS V14.01,2013-02-01 11:04:00,
2013-02-01 13:05:00,62.1,19.3,29.59,NNE,22,2.5,2.5,19,0.00,,---,0.00,VWS V14.01,2013-02-01 11:05:00,
2013-02-01 13:06:00,62.1,19.3,29.59,ESE,112,2.9,2.9,19,0.00,,---,0.00,VWS V14.01,2013-02-01 11:06:00,
2013-02-01 13:07:00,62.1,19.3,29.59,SE,135,1.3,2.9,19,0.00,,---,0.00,VWS V14.01,2013-02-01 11:07:00,
2013-02-01 13:08:00,61.9,19.2,29.56,SSE,158,2.0,2.0,19,0.00,,---,0.00,VWS V14.01,2013-02-01 11:08:00,
2013-02-01 13:09:00,61.9,19.2,29.56,NW,315,3.1,3.1,19,0.00,,---,0.00,VWS V14.01,2013-02-01 11:09:00,
2013-02-01 13:10:00,61.9,19.2,29.56,South,180,4.0,4.0,19,0.00,,---,0.00,VWS V14.01,2013-02-01 11:10:00,
2013-02-01 13:11:00,62.1,19.3,29.56,ESE,112,1.3,4.0,19,0.00,,---,0.00,VWS V14.01,2013-02-01 11:11:00,
2013-02-01 13:12:00,62.2,19.5,29.56,SE,135,1.3,1.3,19,0.00,,---,0.00,VWS V14.01,2013-02-01 11:12:00,
2013-02-01 13:13:00,62.2,19.5,29.56,WNW,292,2.7,2.7,19,0.00,,---,0.00,VWS V14.01,2013-02-01 11:13:00,
2013-02-01 13:14:00,62.2,19.5,29.56,NNW,338,1.3,2.7,19,0.00,,---,0.00,VWS V14.01,2013-02-01 11:14:00,
2013-02-01 13:15:00,62.2,19.5,29.56,SSW,202,2.0,2.0,19,0.00,,---,0.00,VWS V14.01,2013-02-01 11:15:00,
2013-02-01 13:16:00,62.2,19.5,29.56,SSE,158,5.8,5.8,19,0.00,,---,0.00,VWS V14.01,2013-02-01 11:16:00,
2013-02-01 13:17:00,62.2,19.5,29.56,ESE,112,2.2,5.8,19,0.00,,---,0.00,VWS V14.01,2013-02-01 11:17:00,
2013-02-01 13:18:00,62.1,19.3,29.56,SSW,202,2.7,2.7,19,0.00,,---,0.00,VWS V14.01,2013-02-01 11:18:00,
2013-02-01 13:19:00,62.1,19.3,29.56,NNE,22,2.7,2.7,19,0.00,,---,0.00,VWS V14.01,2013-02-01 11:19:00,
2013-02-01 13:20:00,62.1,19.3,29.56,NNW,338,2.0,2.7,19,0.00,,---,0.00,VWS V14.01,2013-02-01 11:20:00,
2013-02-01 13:21:00,62.1,19.3,29.56,WNW,292,2.9,2.9,19,0.00,,---,0.00,VWS V14.01,2013-02-01 11:21:00,
2013-02-01 13:23:00,62.2,19.5,29.56,ESE,112,7.6,7.6,19,0.00,,---,0.00,VWS V14.01,2013-02-01 11:23:00,
2013-02-01 13:25:00,61.9,19.2,29.56,NW,315,2.9,7.6,19,0.00,,---,0.00,VWS V14.01,2013-02-01 11:25:00,
2013-02-01 13:26:00,61.9,19.2,29.56,South,180,3.6,3.6,19,0.00,,---,0.00,VWS V14.01,2013-02-01 11:26:00,
2013-02-01 13:27:00,61.9,19.2,29.56,South,180,4.0,4.0,19,0.00,,---,0.00,VWS V14.01,2013-02-01 11:27:00,
2013-02-01 13:28:00,61.9,19.2,29.56,West,270,2.7,4.0,19,0.00,,---,0.00,VWS V14.01,2013-02-01 11:28:00,
2013-02-01 13:29:00,61.7,19.0,29.56,East,90,1.6,2.7,19,0.00,,---,0.00,VWS V14.01,2013-02-01 11:29:00,
2013-02-01 13:31:00,61.9,19.2,29.56,NNE,22,2.5,2.5,19,0.00,,---,0.00,VWS V14.01,2013-02-01 11:31:00,
2013-02-01 13:32:00,61.7,19.0,29.56,SE,135,2.5,2.5,19,0.00,,---,0.00,VWS V14.01,2013-02-01 11:32:00,
2013-02-01 13:33:00,61.9,19.2,29.56,NNW,338,3.4,3.4,19,0.00,,---,0.00,VWS V14.01,2013-02-01 11:33:00,
2013-02-01 13:34:00,61.9,19.2,29.56,South,180,1.6,3.4,19,0.00,,---,0.00,VWS V14.01,2013-02-01 11:34:00,
2013-02-01 13:35:00,61.9,19.2,29.56,North,0,1.6,1.6,19,0.00,,---,0.00,VWS V14.01,2013-02-01 11:35:00,
2013-02-01 13:36:00,61.9,19.2,29.56,NNW,338,4.0,4.0,19,0.00,,---,0.00,VWS V14.01,2013-02-01 11:36:00,
2013-02-01 13:37:00,61.9,19.2,29.56,SSE,158,2.7,4.0,19,0.00,,---,0.00,VWS V14.01,2013-02-01 11:37:00,
2013-02-01 13:38:00,61.9,19.2,29.56,SSE,158,3.6,3.6,19,0.00,,---,0.00,VWS V14.01,2013-02-01 11:38:00,
2013-02-01 13:39:00,61.9,19.2,29.56,SSW,202,3.4,3.6,19,0.00,,---,0.00,VWS V14.01,2013-02-01 11:39:00,
2013-02-01 13:40:00,62.2,19.5,29.56,ESE,112,4.9,4.9,19,0.00,,---,0.00,VWS V14.01,2013-02-01 11:40:00,
2013-02-01 13:42:00,61.9,19.2,29.56,SSE,158,5.6,5.6,19,0.00,,---,0.00,VWS V14.01,2013-02-01 11:42:00,
2013-02-01 13:43:00,61.7,19.0,29.56,NNW,338,2.9,5.6,19,0.00,,---,0.00,VWS V14.01,2013-02-01 11:43:00,
2013-02-01 13:44:00,61.5,18.9,29.56,NNE,22,2.2,2.9,19,0.00,,---,0.00,VWS V14.01,2013-02-01 11:44:00,
2013-02-01 13:45:00,61.7,19.0,29.56,SSE,158,3.4,3.4,19,0.00,,---,0.00,VWS V14.01,2013-02-01 11:45:00,
2013-02-01 13:46:00,61.5,18.9,29.56,WSW,248,4.0,4.0,19,0.00,,---,0.00,VWS V14.01,2013-02-01 11:46:00,
2013-02-01 13:48:00,61.7,19.0,29.56,WSW,248,3.1,4.0,19,0.00,,---,0.00,VWS V14.01,2013-02-01 11:48:00,
2013-02-01 13:49:00,61.3,18.8,29.56,NNE,22,4.0,4.0,19,0.00,,---,0.00,VWS V14.01,2013-02-01 11:49:00,
2013-02-01 13:50:00,61.3,18.8,29.56,SSW,202,3.1,4.0,19,0.00,,---,0.00,VWS V14.01,2013-02-01 11:50:00,
2013-02-01 13:51:00,61.2,18.6,29.56,WNW,292,2.5,3.1,19,0.00,,---,0.00,VWS V14.01,2013-02-01 11:51:00,
2013-02-01 13:52:00,61.2,18.6,29.56,SSW,202,2.7,2.7,19,0.00,,---,0.00,VWS V14.01,2013-02-01 11:52:00,
2013-02-01 13:53:00,61.3,18.8,29.56,NNW,338,3.6,3.6,19,0.00,,---,0.00,VWS V14.01,2013-02-01 11:53:00,
2013-02-01 13:54:00,61.3,18.8,29.56,SSW,202,1.6,3.6,19,0.00,,---,0.00,VWS V14.01,2013-02-01 11:54:00,
2013-02-01 13:55:00,61.3,18.8,29.56,East,90,1.6,1.6,19,0.00,,---,0.00,VWS V14.01,2013-02-01 11:55:00,
2013-02-01 13:56:00,61.5,18.9,29.56,SE,135,2.9,2.9,19,0.00,,---,0.00,VWS V14.01,2013-02-01 11:56:00,
2013-02-01 13:57:00,61.9,19.2,29.56,East,90,2.7,2.9,19,0.00,,---,0.00,VWS V14.01,2013-02-01 11:57:00,
2013-02-01 13:58:00,61.9,19.2,29.56,ESE,112,1.3,2.7,19,0.00,,---,0.00,VWS V14.01,2013-02-01 11:58:00,
2013-02-01 13:59:00,61.9,19.2,29.56,NNW,338,3.6,3.6,19,0.00,,---,0.00,VWS V14.01,2013-02-01 11:59:00,
2013-02-01 14:00:00,61.7,19.0,29.56,South,180,2.5,3.6,19,0.00,,---,0.00,VWS V14.01,2013-02-01 12:00:00,
2013-02-01 14:01:00,61.7,19.0,29.56,WSW,248,1.1,2.5,19,0.00,,---,0.00,VWS V14.01,2013-02-01 12:01:00,
2013-02-01 14:02:00,61.7,19.0,29.56,South,180,4.3,4.3,19,0.00,,---,0.00,VWS V14.01,2013-02-01 12:02:00,
2013-02-01 14:04:00,61.9,19.2,29.56,SSW,202,2.9,4.3,19,0.00,,---,0.00,VWS V14.01,2013-02-01 12:04:00,
2013-02-01 14:05:00,61.9,19.2,29.56,SSE,158,2.0,2.9,19,0.00,,---,0.00,VWS V14.01,2013-02-01 12:05:00,
2013-02-01 14:06:00,62.1,19.3,29.56,ESE,112,3.1,3.1,19,0.00,,---,0.00,VWS V14.01,2013-02-01 12:06:00,
2013-02-01 14:07:00,62.1,19.3,29.56,South,180,2.5,3.1,19,0.00,,---,0.00,VWS V14.01,2013-02-01 12:07:00,
2013-02-01 14:08:00,61.9,19.2,29.56,SSE,158,2.5,2.5,19,0.00,,---,0.00,VWS V14.01,2013-02-01 12:08:00,
2013-02-01 14:09:00,62.2,19.5,29.56,South,180,4.0,4.0,19,0.00,,---,0.00,VWS V14.01,2013-02-01 12:09:00,
2013-02-01 14:10:00,62.1,19.3,29.56,SE,135,1.3,4.0,19,0.00,,---,0.00,VWS V14.01,2013-02-01 12:10:00,
2013-02-01 14:11:00,62.1,19.3,29.56,SSW,202,4.3,4.3,19,0.00,,---,0.00,VWS V14.01,2013-02-01 12:11:00,
2013-02-01 14:12:00,61.9,19.2,29.56,SW,225,1.6,4.3,19,0.00,,---,0.00,VWS V14.01,2013-02-01 12:12:00,
2013-02-01 14:13:00,61.9,19.2,29.56,ESE,112,3.6,3.6,19,0.00,,---,0.00,VWS V14.01,2013-02-01 12:13:00,
2013-02-01 14:14:00,61.9,19.2,29.56,SSE,158,5.8,5.8,19,0.00,,---,0.00,VWS V14.01,2013-02-01 12:14:00,
2013-02-01 14:15:00,61.9,19.2,29.56,SSE,158,2.0,5.8,19,0.00,,---,0.00,VWS V14.01,2013-02-01 12:15:00,
2013-02-01 14:16:00,62.1,19.3,29.56,South,180,2.5,2.5,19,0.00,,---,0.00,VWS V14.01,2013-02-01 12:16:00,
2013-02-01 14:17:00,61.9,19.2,29.56,SW,225,2.7,2.7,19,0.00,,---,0.00,VWS V14.01,2013-02-01 12:17:00,
2013-02-01 14:18:00,61.9,19.2,29.56,ENE,68,1.6,2.7,19,0.00,,---,0.00,VWS V14.01,2013-02-01 12:18:00,
2013-02-01 14:19:00,62.1,19.3,29.56,SSE,158,2.0,2.0,19,0.00,,---,0.00,VWS V14.01,2013-02-01 12:19:00,
2013-02-01 14:20:00,62.2,19.5,29.56,SSE,158,3.6,3.6,19,0.00,,---,0.00,VWS V14.01,2013-02-01 12:20:00,
2013-02-01 14:21:00,62.1,19.3,29.56,South,180,4.7,4.7,19,0.00,,---,0.00,VWS V14.01,2013-02-01 12:21:00,
2013-02-01 14:22:00,61.7,19.0,29.56,SSW,202,3.1,4.7,19,0.00,,---,0.00,VWS V14.01,2013-02-01 12:22:00,
2013-02-01 14:23:00,61.9,19.2,29.56,SE,135,3.1,3.1,19,0.00,,---,0.00,VWS V14.01,2013-02-01 12:23:00,
2013-02-01 14:24:00,61.7,19.0,29.56,SSE,158,4.0,4.0,19,0.00,,---,0.00,VWS V14.01,2013-02-01 12:24:00,
2013-02-01 14:25:00,61.7,19.0,29.56,SSE,158,2.9,4.0,19,0.00,,---,0.00,VWS V14.01,2013-02-01 12:25:00,
2013-02-01 14:26:00,61.3,18.8,29.56,SSE,158,7.6,7.6,19,0.00,,---,0.00,VWS V14.01,2013-02-01 12:26:00,
2013-02-01 14:27:00,61.5,18.9,29.56,SSE,158,3.8,7.6,19,0.00,,---,0.00,VWS V14.01,2013-02-01 12:27:00,
2013-02-01 14:28:00,61.5,18.9,29.56,NW,315,2.9,3.8,19,0.00,,---,0.00,VWS V14.01,2013-02-01 12:28:00,
2013-02-01 14:29:00,61.3,18.8,29.56,West,270,2.0,2.9,19,0.00,,---,0.00,VWS V14.01,2013-02-01 12:29:00,
2013-02-01 14:30:00,61.2,18.6,29.56,NE,45,2.9,2.9,19,0.00,,---,0.00,VWS V14.01,2013-02-01 12:30:00,
2013-02-01 14:31:00,61.3,18.8,29.56,WNW,292,2.2,2.9,19,0.00,,---,0.00,VWS V14.01,2013-02-01 12:31:00,
2013-02-01 14:32:00,61.2,18.6,29.56,NNE,22,2.7,2.7,19,0.00,,---,0.00,VWS V14.01,2013-02-01 12:32:00,
2013-02-01 14:33:00,61.5,18.9,29.56,ESE,112,2.9,2.9,19,0.00,,---,0.00,VWS V14.01,2013-02-01 12:33:00,
2013-02-01 14:34:00,61.3,18.8,29.56,North,0,2.5,2.9,19,0.00,,---,0.00,VWS V14.01,2013-02-01 12:34:00,
2013-02-01 14:35:00,61.5,18.9,29.56,ESE,112,3.6,3.6,19,0.00,,---,0.00,VWS V14.01,2013-02-01 12:35:00,
2013-02-01 14:36:00,61.5,18.9,29.56,WSW,248,3.8,3.8,19,0.00,,---,0.00,VWS V14.01,2013-02-01 12:36:00,
2013-02-01 14:37:00,61.5,18.9,29.56,SW,225,4.0,4.0,19,0.00,,---,0.00,VWS V14.01,2013-02-01 12:37:00,
2013-02-01 14:38:00,61.5,18.9,29.56,SSE,158,3.4,4.0,19,0.00,,---,0.00,VWS V14.01,2013-02-01 12:38:00,
2013-02-01 14:39:00,61.5,18.9,29.56,SSE,158,2.9,3.4,19,0.00,,---,0.00,VWS V14.01,2013-02-01 12:39:00,
2013-02-01 14:40:00,61.5,18.9,29.56,WNW,292,1.6,2.9,19,0.00,,---,0.00,VWS V14.01,2013-02-01 12:40:00,
2013-02-01 14:41:00,61.5,18.9,29.56,WSW,248,5.6,5.6,19,0.00,,---,0.00,VWS V14.01,2013-02-01 12:41:00,
2013-02-01 14:42:00,61.3,18.8,29.56,SE,135,2.0,5.6,19,0.00,,---,0.00,VWS V14.01,2013-02-01 12:42:00,
2013-02-01 14:43:00,61.3,18.8,29.56,WNW,292,0.9,2.0,19,0.00,,---,0.00,VWS V14.01,2013-02-01 12:43:00,
2013-02-01 14:44:00,61.3,18.8,29.56,NNW,338,4.0,4.0,19,0.00,,---,0.00,VWS V14.01,2013-02-01 12:44:00,
2013-02-01 14:45:00,61.3,18.8,29.56,SSE,158,4.3,4.3,19,0.00,,---,0.00,VWS V14.01,2013-02-01 12:45:00,
2013-02-01 14:46:00,61.5,18.9,29.56,SSE,158,2.9,4.3,19,0.00,,---,0.00,VWS V14.01,2013-02-01 12:46:00,
2013-02-01 14:47:00,61.5,18.9,29.56,ESE,112,1.6,2.9,19,0.00,,---,0.00,VWS V14.01,2013-02-01 12:47:00,
2013-02-01 14:48:00,61.7,19.0,29.56,SE,135,1.6,1.6,19,0.00,,---,0.00,VWS V14.01,2013-02-01 12:48:00,
2013-02-01 14:49:00,61.7,19.0,29.56,SSE,158,1.3,1.6,19,0.00,,---,0.00,VWS V14.01,2013-02-01 12:49:00,
2013-02-01 14:50:00,62.1,19.3,29.56,SSE,158,2.9,2.9,19,0.00,,---,0.00,VWS V14.01,2013-02-01 12:50:00,
2013-02-01 14:51:00,61.9,19.2,29.56,ESE,112,2.5,2.9,19,0.00,,---,0.00,VWS V14.01,2013-02-01 12:51:00,
2013-02-01 14:52:00,61.9,19.2,29.56,NNW,338,2.9,2.9,19,0.00,,---,0.00,VWS V14.01,2013-02-01 12:52:00,
2013-02-01 14:53:00,61.9,19.2,29.53,SSE,158,4.3,4.3,19,0.00,,---,0.00,VWS V14.01,2013-02-01 12:53:00,
2013-02-01 14:54:00,62.1,19.3,29.53,SE,135,7.4,7.4,19,0.00,,---,0.00,VWS V14.01,2013-02-01 12:54:00,
2013-02-01 14:55:00,61.9,19.2,29.53,SSE,158,2.5,7.4,19,0.00,,---,0.00,VWS V14.01,2013-02-01 12:55:00,
2013-02-01 14:56:00,61.9,19.2,29.53,South,180,4.3,4.3,19,0.00,,---,0.00,VWS V14.01,2013-02-01 12:56:00,
2013-02-01 14:57:00,61.7,19.0,29.53,South,180,6.5,6.5,19,0.00,,---,0.00,VWS V14.01,2013-02-01 12:57:00,
2013-02-01 14:58:00,61.7,19.0,29.53,South,180,6.3,6.5,19,0.00,,---,0.00,VWS V14.01,2013-02-01 12:58:00,
2013-02-01 14:59:00,61.5,18.9,29.53,South,180,2.0,6.3,19,0.00,,---,0.00,VWS V14.01,2013-02-01 12:59:00,
2013-02-01 15:00:00,61.5,18.9,29.53,WNW,292,3.1,3.1,19,0.00,,---,0.00,VWS V14.01,2013-02-01 13:00:00,
2013-02-01 15:01:00,61.3,18.8,29.53,SSE,158,2.0,3.1,19,0.00,,---,0.00,VWS V14.01,2013-02-01 13:01:00,
2013-02-01 15:02:00,61.3,18.8,29.53,SSE,158,2.9,2.9,19,0.00,,---,0.00,VWS V14.01,2013-02-01 13:02:00,
2013-02-01 15:04:00,61.7,19.0,29.53,South,180,2.7,2.9,19,0.00,,---,0.00,VWS V14.01,2013-02-01 13:04:00,
2013-02-01 15:05:00,61.5,18.9,29.53,ESE,112,5.4,5.4,19,0.00,,---,0.00,VWS V14.01,2013-02-01 13:05:00,
2013-02-01 15:06:00,61.5,18.9,29.53,South,180,5.8,5.8,19,0.00,,---,0.00,VWS V14.01,2013-02-01 13:06:00,
2013-02-01 15:07:00,61.3,18.8,29.53,SE,135,4.0,5.8,19,0.00,,---,0.00,VWS V14.01,2013-02-01 13:07:00,
2013-02-01 15:08:00,61.2,18.6,29.53,SSE,158,1.3,4.0,19,0.00,,---,0.00,VWS V14.01,2013-02-01 13:08:00,
2013-02-01 15:09:00,61.5,18.9,29.53,South,180,3.6,3.6,19,0.00,,---,0.00,VWS V14.01,2013-02-01 13:09:00,
2013-02-01 15:10:00,61.5,18.9,29.53,SE,135,3.4,3.6,19,0.00,,---,0.00,VWS V14.01,2013-02-01 13:10:00,
2013-02-01 15:11:00,61.3,18.8,29.53,SSE,158,1.3,3.4,19,0.00,,---,0.00,VWS V14.01,2013-02-01 13:11:00,
2013-02-01 15:12:00,61.3,18.8,29.53,SE,135,5.6,5.6,19,0.00,,---,0.00,VWS V14.01,2013-02-01 13:12:00,
2013-02-01 15:13:00,61.2,18.6,29.53,SW,225,2.9,5.6,19,0.00,,---,0.00,VWS V14.01,2013-02-01 13:13:00,
2013-02-01 15:14:00,61.3,18.8,29.53,North,0,1.3,2.9,19,0.00,,---,0.00,VWS V14.01,2013-02-01 13:14:00,
2013-02-01 15:15:00,61.3,18.8,29.53,South,180,2.5,2.5,19,0.00,,---,0.00,VWS V14.01,2013-02-01 13:15:00,
2013-02-01 15:17:00,61.2,18.6,29.53,ESE,112,1.3,2.5,19,0.00,,---,0.00,VWS V14.01,2013-02-01 13:17:00,
2013-02-01 15:18:00,61.2,18.6,29.53,ESE,112,3.4,3.4,19,0.00,,---,0.00,VWS V14.01,2013-02-01 13:18:00,
2013-02-01 15:19:00,61.2,18.6,29.53,South,180,6.0,6.0,19,0.00,,---,0.00,VWS V14.01,2013-02-01 13:19:00,
2013-02-01 15:20:00,61.0,18.5,29.53,SSE,158,4.3,6.0,19,0.00,,---,0.00,VWS V14.01,2013-02-01 13:20:00,
2013-02-01 15:21:00,60.4,18.0,29.53,South,180,2.9,4.3,19,0.00,,---,0.00,VWS V14.01,2013-02-01 13:21:00,
2013-02-01 15:24:00,59.7,17.4,29.53,WNW,292,1.6,2.9,19,0.00,,---,0.00,VWS V14.01,2013-02-01 13:24:00,
2013-02-01 15:25:00,59.5,17.3,29.53,NNW,338,2.0,2.0,19,0.00,,---,0.00,VWS V14.01,2013-02-01 13:25:00,
2013-02-01 15:26:00,59.4,17.1,29.53,SE,135,3.8,3.8,19,0.00,,---,0.00,VWS V14.01,2013-02-01 13:26:00,
2013-02-01 15:27:00,59.2,17.0,29.53,WNW,292,2.0,3.8,19,0.00,,---,0.00,VWS V14.01,2013-02-01 13:27:00,
2013-02-01 15:28:00,59.0,16.8,29.53,NW,315,3.8,3.8,19,0.00,,---,0.00,VWS V14.01,2013-02-01 13:28:00,
2013-02-01 15:30:00,59.0,16.8,29.53,North,0,2.0,3.8,19,0.00,,---,0.00,VWS V14.01,2013-02-01 13:30:00,
2013-02-01 15:31:00,59.0,16.8,29.53,SSE,158,2.0,2.0,19,0.00,,---,0.00,VWS V14.01,2013-02-01 13:31:00,
2013-02-01 15:32:00,59.0,16.8,29.53,ESE,112,3.1,3.1,19,0.00,,---,0.00,VWS V14.01,2013-02-01 13:32:00,
2013-02-01 15:33:00,59.0,16.8,29.53,NE,45,3.8,3.8,19,0.00,,---,0.00,VWS V14.01,2013-02-01 13:33:00,
2013-02-01 15:34:00,59.0,20.2,29.53,SSE,158,2.5,3.8,22,0.00,,---,0.00,VWS V14.01,2013-02-01 13:34:00,
2013-02-01 15:35:00,58.8,20.1,29.53,South,180,3.1,3.1,22,0.00,,---,0.00,VWS V14.01,2013-02-01 13:35:00,
2013-02-01 15:36:00,58.6,19.9,29.53,SSE,158,4.0,4.0,22,0.00,,---,0.00,VWS V14.01,2013-02-01 13:36:00,
2013-02-01 15:37:00,58.6,19.9,29.53,ESE,112,1.3,4.0,22,0.00,,---,0.00,VWS V14.01,2013-02-01 13:37:00,
2013-02-01 15:38:00,58.6,19.9,29.50,ESE,112,4.7,4.7,22,0.00,,---,0.00,VWS V14.01,2013-02-01 13:38:00,
2013-02-01 15:39:00,58.5,19.8,29.50,SSE,158,1.6,4.7,22,0.00,,---,0.00,VWS V14.01,2013-02-01 13:39:00,
2013-02-01 15:40:00,58.5,19.8,29.50,SSE,158,2.0,2.0,22,0.00,,---,0.00,VWS V14.01,2013-02-01 13:40:00,
2013-02-01 15:41:00,58.5,19.8,29.50,SE,135,9.6,9.6,22,0.00,,---,0.00,VWS V14.01,2013-02-01 13:41:00,
2013-02-01 15:42:00,58.5,19.8,29.50,ESE,112,3.6,9.6,22,0.00,,---,0.00,VWS V14.01,2013-02-01 13:42:00,
2013-02-01 15:43:00,58.5,19.8,29.50,SE,135,4.9,4.9,22,0.00,,---,0.00,VWS V14.01,2013-02-01 13:43:00,
2013-02-01 15:44:00,58.5,21.8,29.50,SSE,158,3.8,4.9,24,0.00,,---,0.00,VWS V14.01,2013-02-01 13:44:00,
2013-02-01 15:45:00,58.5,21.8,29.50,SE,135,2.5,3.8,24,0.00,,---,0.00,VWS V14.01,2013-02-01 13:45:00,
2013-02-01 15:46:00,58.5,21.8,29.50,South,180,3.6,3.6,24,0.00,,---,0.00,VWS V14.01,2013-02-01 13:46:00,
2013-02-01 15:47:00,58.3,21.7,29.50,SE,135,3.4,3.6,24,0.00,,---,0.00,VWS V14.01,2013-02-01 13:47:00,
2013-02-01 15:48:00,58.3,21.7,29.50,South,180,1.1,3.4,24,0.00,,---,0.00,VWS V14.01,2013-02-01 13:48:00,
2013-02-01 15:49:00,58.3,21.7,29.50,SSE,158,1.1,1.1,24,0.00,,---,0.00,VWS V14.01,2013-02-01 13:49:00,
2013-02-01 15:50:00,58.3,21.7,29.50,ESE,112,0.9,1.1,24,0.00,,---,0.00,VWS V14.01,2013-02-01 13:50:00,
2013-02-01 15:51:00,58.3,21.7,29.50,SSW,202,2.0,2.0,24,0.00,,---,0.00,VWS V14.01,2013-02-01 13:51:00,
2013-02-01 15:52:00,58.3,21.7,29.50,NW,315,2.5,2.5,24,0.00,,---,0.00,VWS V14.01,2013-02-01 13:52:00,
2013-02-01 15:53:00,58.1,21.5,29.50,SSE,158,2.9,2.9,24,0.00,,---,0.00,VWS V14.01,2013-02-01 13:53:00,
2013-02-01 15:54:00,58.1,21.5,29.50,SE,135,3.1,3.1,24,0.00,,---,0.00,VWS V14.01,2013-02-01 13:54:00,
2013-02-01 15:55:00,58.1,21.5,29.50,South,180,2.7,3.1,24,0.00,,---,0.00,VWS V14.01,2013-02-01 13:55:00,
2013-02-01 15:56:00,58.1,21.5,29.50,South,180,7.6,7.6,24,0.00,,---,0.00,VWS V14.01,2013-02-01 13:56:00,
2013-02-01 15:57:00,58.1,22.5,29.50,SSE,158,3.4,7.6,25,0.00,,---,0.00,VWS V14.01,2013-02-01 13:57:00,
2013-02-01 15:58:00,57.9,22.3,29.50,SSE,158,4.7,4.7,25,0.00,,---,0.00,VWS V14.01,2013-02-01 13:58:00,
2013-02-01 15:59:00,57.9,22.3,29.50,ENE,68,2.7,4.7,25,0.00,,---,0.00,VWS V14.01,2013-02-01 13:59:00,
2013-02-01 16:00:00,57.7,22.2,29.50,SSE,158,5.8,5.8,25,0.00,,---,0.00,VWS V14.01,2013-02-01 14:00:00,
2013-02-01 16:01:00,57.7,22.2,29.50,SSE,158,2.7,5.8,25,0.00,,---,0.00,VWS V14.01,2013-02-01 14:01:00,
2013-02-01 16:02:00,57.7,22.2,29.50,SSE,158,2.9,2.9,25,0.00,,---,0.00,VWS V14.01,2013-02-01 14:02:00,
2013-02-01 16:05:00,57.6,22.0,29.50,SSW,202,3.6,3.6,25,0.00,,---,0.00,VWS V14.01,2013-02-01 14:05:00,
2013-02-01 16:06:00,57.6,22.0,29.50,SSW,202,1.6,3.6,25,0.00,,---,0.00,VWS V14.01,2013-02-01 14:06:00,
2013-02-01 16:07:00,57.6,22.0,29.50,WNW,292,2.0,2.0,25,0.00,,---,0.00,VWS V14.01,2013-02-01 14:07:00,
2013-02-01 16:08:00,57.6,22.0,29.50,SSE,158,4.0,4.0,25,0.00,,---,0.00,VWS V14.01,2013-02-01 14:08:00,
2013-02-01 16:09:00,57.6,22.0,29.50,SW,225,2.0,4.0,25,0.00,,---,0.00,VWS V14.01,2013-02-01 14:09:00,
2013-02-01 16:11:00,57.6,22.0,29.50,South,180,4.5,4.5,25,0.00,,---,0.00,VWS V14.01,2013-02-01 14:11:00,
2013-02-01 16:12:00,57.6,22.0,29.50,South,180,2.9,4.5,25,0.00,,---,0.00,VWS V14.01,2013-02-01 14:12:00,
2013-02-01 16:13:00,57.4,21.9,29.50,SE,135,1.3,2.9,25,0.00,,---,0.00,VWS V14.01,2013-02-01 14:13:00,
2013-02-01 16:14:00,57.4,21.9,29.50,WSW,248,2.2,2.2,25,0.00,,---,0.00,VWS V14.01,2013-02-01 14:14:00,
2013-02-01 16:15:00,57.4,21.9,29.50,WNW,292,2.5,2.5,25,0.00,,---,0.00,VWS V14.01,2013-02-01 14:15:00,
2013-02-01 16:16:00,57.4,21.9,29.50,SSW,202,1.3,2.5,25,0.00,,---,0.00,VWS V14.01,2013-02-01 14:16:00,
2013-02-01 16:17:00,57.4,21.9,29.50,SSW,202,2.0,2.0,25,0.00,,---,0.00,VWS V14.01,2013-02-01 14:17:00,
2013-02-01 16:18:00,57.4,21.9,29.50,SE,135,2.2,2.2,25,0.00,,---,0.00,VWS V14.01,2013-02-01 14:18:00,
2013-02-01 16:19:00,57.4,21.9,29.50,South,180,2.5,2.5,25,0.00,,---,0.00,VWS V14.01,2013-02-01 14:19:00,
2013-02-01 16:20:00,57.2,21.7,29.50,West,270,3.4,3.4,25,0.00,,---,0.00,VWS V14.01,2013-02-01 14:20:00,
2013-02-01 16:21:00,57.2,21.7,29.50,NE,45,2.7,3.4,25,0.00,,---,0.00,VWS V14.01,2013-02-01 14:21:00,
2013-02-01 16:22:00,57.2,21.7,29.50,ESE,112,0.9,2.7,25,0.00,,---,0.00,VWS V14.01,2013-02-01 14:22:00,
2013-02-01 16:23:00,57.2,21.7,29.50,SSE,158,2.0,2.0,25,0.00,,---,0.00,VWS V14.01,2013-02-01 14:23:00,
2013-02-01 16:24:00,57.2,21.7,29.50,NNE,22,2.5,2.5,25,0.00,,---,0.00,VWS V14.01,2013-02-01 14:24:00,
2013-02-01 16:25:00,57.2,21.7,29.50,SSW,202,2.5,2.5,25,0.00,,---,0.00,VWS V14.01,2013-02-01 14:25:00,
2013-02-01 16:26:00,57.2,21.7,29.50,South,180,3.6,3.6,25,0.00,,---,0.00,VWS V14.01,2013-02-01 14:26:00,
2013-02-01 16:27:00,57.2,21.7,29.50,SSE,158,2.7,3.6,25,0.00,,---,0.00,VWS V14.01,2013-02-01 14:27:00,
2013-02-01 16:28:00,57.2,21.7,29.50,NNW,338,2.9,2.9,25,0.00,,---,0.00,VWS V14.01,2013-02-01 14:28:00,
2013-02-01 16:29:00,57.0,22.5,29.50,NNW,338,0.9,2.9,26,0.00,,---,0.00,VWS V14.01,2013-02-01 14:29:00,
2013-02-01 16:30:00,57.0,22.5,29.50,NNE,22,3.4,3.4,26,0.00,,---,0.00,VWS V14.01,2013-02-01 14:30:00,
2013-02-01 16:31:00,57.0,22.5,29.50,WSW,248,1.3,3.4,26,0.00,,---,0.00,VWS V14.01,2013-02-01 14:31:00,
2013-02-01 16:32:00,57.0,22.5,29.50,WSW,248,2.5,2.5,26,0.00,,---,0.00,VWS V14.01,2013-02-01 14:32:00,
2013-02-01 16:33:00,57.0,22.5,29.50,SE,135,3.1,3.1,26,0.00,,---,0.00,VWS V14.01,2013-02-01 14:33:00,
2013-02-01 16:34:00,57.0,22.5,29.50,SE,135,4.7,4.7,26,0.00,,---,0.00,VWS V14.01,2013-02-01 14:34:00,
2013-02-01 16:35:00,56.8,22.3,29.50,SSW,202,1.6,4.7,26,0.00,,---,0.00,VWS V14.01,2013-02-01 14:35:00,
2013-02-01 16:36:00,56.8,22.3,29.50,SSE,158,1.3,1.6,26,0.00,,---,0.00,VWS V14.01,2013-02-01 14:36:00,
2013-02-01 16:37:00,56.8,22.3,29.50,ESE,112,2.0,2.0,26,0.00,,---,0.00,VWS V14.01,2013-02-01 14:37:00,
2013-02-01 16:38:00,56.8,22.3,29.50,South,180,1.6,2.0,26,0.00,,---,0.00,VWS V14.01,2013-02-01 14:38:00,
2013-02-01 16:39:00,56.8,22.3,29.50,SSE,158,6.5,6.5,26,0.00,,---,0.00,VWS V14.01,2013-02-01 14:39:00,
2013-02-01 16:40:00,56.7,23.1,29.50,South,180,4.3,6.5,27,0.00,,---,0.00,VWS V14.01,2013-02-01 14:40:00,
2013-02-01 16:42:00,56.7,23.1,29.50,South,180,4.0,4.3,27,0.00,,---,0.00,VWS V14.01,2013-02-01 14:42:00,
2013-02-01 16:43:00,56.7,23.1,29.50,SW,225,2.9,4.0,27,0.00,,---,0.00,VWS V14.01,2013-02-01 14:43:00,
2013-02-01 16:44:00,56.7,23.1,29.50,East,90,2.0,2.9,27,0.00,,---,0.00,VWS V14.01,2013-02-01 14:44:00,
2013-02-01 16:45:00,56.7,23.1,29.50,South,180,1.3,2.0,27,0.00,,---,0.00,VWS V14.01,2013-02-01 14:45:00,
2013-02-01 16:46:00,56.7,23.1,29.50,SE,135,2.0,2.0,27,0.00,,---,0.00,VWS V14.01,2013-02-01 14:46:00,
2013-02-01 16:48:00,56.5,22.9,29.50,ESE,112,7.4,7.4,27,0.00,,---,0.00,VWS V14.01,2013-02-01 14:48:00,
2013-02-01 16:49:00,56.5,22.9,29.50,WSW,248,2.7,7.4,27,0.00,,---,0.00,VWS V14.01,2013-02-01 14:49:00,
2013-02-01 16:50:00,56.5,22.9,29.50,NNW,338,2.7,2.7,27,0.00,,---,0.00,VWS V14.01,2013-02-01 14:50:00,
2013-02-01 16:51:00,56.5,22.9,29.50,South,180,2.7,2.7,27,0.00,,---,0.00,VWS V14.01,2013-02-01 14:51:00,
2013-02-01 16:52:00,56.5,22.9,29.50,SSW,202,2.9,2.9,27,0.00,,---,0.00,VWS V14.01,2013-02-01 14:52:00,
2013-02-01 16:53:00,56.5,22.9,29.50,West,270,2.2,2.9,27,0.00,,---,0.00,VWS V14.01,2013-02-01 14:53:00,
2013-02-01 16:54:00,56.5,22.9,29.50,WNW,292,1.1,2.2,27,0.00,,---,0.00,VWS V14.01,2013-02-01 14:54:00,
2013-02-01 16:55:00,56.5,22.9,29.50,SW,225,1.3,1.3,27,0.00,,---,0.00,VWS V14.01,2013-02-01 14:55:00,
2013-02-01 16:56:00,56.3,22.8,29.50,ESE,112,2.5,2.5,27,0.00,,---,0.00,VWS V14.01,2013-02-01 14:56:00,
2013-02-01 16:57:00,56.3,22.8,29.50,SSW,202,0.9,2.5,27,0.00,,---,0.00,VWS V14.01,2013-02-01 14:57:00,
2013-02-01 16:58:00,56.3,22.8,29.50,SE,135,2.5,2.5,27,0.00,,---,0.00,VWS V14.01,2013-02-01 14:58:00,
2013-02-01 16:59:00,56.3,22.8,29.50,East,90,2.0,2.5,27,0.00,,---,0.00,VWS V14.01,2013-02-01 14:59:00,
2013-02-01 17:00:00,56.3,22.8,29.50,NE,45,1.6,2.0,27,0.00,,---,0.00,VWS V14.01,2013-02-01 15:00:00,
2013-02-01 17:01:00,56.3,22.8,29.50,NNE,22,2.5,2.5,27,0.00,,---,0.00,VWS V14.01,2013-02-01 15:01:00,
2013-02-01 17:02:00,56.3,22.8,29.50,NW,315,3.8,3.8,27,0.00,,---,0.00,VWS V14.01,2013-02-01 15:02:00,
2013-02-01 17:04:00,56.3,22.8,29.50,ESE,112,3.4,3.8,27,0.00,,---,0.00,VWS V14.01,2013-02-01 15:04:00,
2013-02-01 17:05:00,56.3,22.8,29.50,East,90,2.9,3.4,27,0.00,,---,0.00,VWS V14.01,2013-02-01 15:05:00,
2013-02-01 17:06:00,56.3,22.8,29.50,East,90,0.0,2.9,27,0.00,,---,0.00,VWS V14.01,2013-02-01 15:06:00,
2013-02-01 17:07:00,56.3,22.8,29.50,ENE,68,1.6,1.6,27,0.00,,---,0.00,VWS V14.01,2013-02-01 15:07:00,
2013-02-01 17:08:00,56.3,22.8,29.47,ENE,68,1.6,1.6,27,0.00,,---,0.00,VWS V14.01,2013-02-01 15:08:00,
2013-02-01 17:09:00,56.3,22.8,29.47,NNE,22,2.5,2.5,27,0.00,,---,0.00,VWS V14.01,2013-02-01 15:09:00,
2013-02-01 17:10:00,56.1,22.6,29.47,NE,45,2.0,2.5,27,0.00,,---,0.00,VWS V14.01,2013-02-01 15:10:00,
2013-02-01 17:11:00,56.1,22.6,29.47,SSE,158,3.4,3.4,27,0.00,,---,0.00,VWS V14.01,2013-02-01 15:11:00,
2013-02-01 17:12:00,56.1,22.6,29.47,East,90,1.1,3.4,27,0.00,,---,0.00,VWS V14.01,2013-02-01 15:12:00,
2013-02-01 17:13:00,56.1,22.6,29.47,ENE,68,2.0,2.0,27,0.00,,---,0.00,VWS V14.01,2013-02-01 15:13:00,
2013-02-01 17:14:00,56.1,22.6,29.47,SE,135,1.1,2.0,27,0.00,,---,0.00,VWS V14.01,2013-02-01 15:14:00,
2013-02-01 17:15:00,55.9,23.3,29.47,SSW,202,2.0,2.0,28,0.00,,---,0.00,VWS V14.01,2013-02-01 15:15:00,
2013-02-01 17:16:00,55.9,23.3,29.47,SSE,158,2.5,2.5,28,0.00,,---,0.00,VWS V14.01,2013-02-01 15:16:00,
2013-02-01 17:17:00,55.9,23.3,29.47,East,90,2.0,2.5,28,0.00,,---,0.00,VWS V14.01,2013-02-01 15:17:00,
2013-02-01 17:18:00,55.9,24.2,29.47,East,90,2.7,2.7,29,0.00,,---,0.00,VWS V14.01,2013-02-01 15:18:00,
2013-02-01 17:19:00,55.9,23.3,29.47,SSE,158,0.9,2.7,28,0.00,,---,0.00,VWS V14.01,2013-02-01 15:19:00,
2013-02-01 17:20:00,55.9,23.3,29.47,SSW,202,2.5,2.5,28,0.00,,---,0.00,VWS V14.01,2013-02-01 15:20:00,
2013-02-01 17:21:00,55.9,23.3,29.47,South,180,2.2,2.5,28,0.00,,---,0.00,VWS V14.01,2013-02-01 15:21:00,
2013-02-01 17:22:00,55.9,23.3,29.47,SSE,158,2.2,2.2,28,0.00,,---,0.00,VWS V14.01,2013-02-01 15:22:00,
2013-02-01 17:23:00,55.8,23.2,29.47,South,180,2.0,2.2,28,0.00,,---,0.00,VWS V14.01,2013-02-01 15:23:00,
2013-02-01 17:24:00,55.8,23.2,29.47,South,180,1.1,2.0,28,0.00,,---,0.00,VWS V14.01,2013-02-01 15:24:00,
2013-02-01 17:25:00,55.8,23.2,29.47,SSE,158,2.2,2.2,28,0.00,,---,0.00,VWS V14.01,2013-02-01 15:25:00,
2013-02-01 17:26:00,55.8,23.2,29.47,SSE,158,2.5,2.5,28,0.00,,---,0.00,VWS V14.01,2013-02-01 15:26:00,
2013-02-01 17:27:00,55.8,23.2,29.47,ESE,112,1.1,2.5,28,0.00,,---,0.00,VWS V14.01,2013-02-01 15:27:00,
2013-02-01 17:29:00,55.6,23.0,29.47,North,0,1.6,1.6,28,0.00,,---,0.00,VWS V14.01,2013-02-01 15:29:00,
2013-02-01 17:30:00,55.6,23.9,29.47,SSE,158,1.1,1.6,29,0.00,,---,0.00,VWS V14.01,2013-02-01 15:30:00,
2013-02-01 17:31:00,55.6,23.9,29.47,NNW,338,2.5,2.5,29,0.00,,---,0.00,VWS V14.01,2013-02-01 15:31:00,
2013-02-01 17:32:00,55.6,23.9,29.47,SSE,158,2.5,2.5,29,0.00,,---,0.00,VWS V14.01,2013-02-01 15:32:00,
2013-02-01 17:33:00,55.6,23.9,29.47,NW,315,2.9,2.9,29,0.00,,---,0.00,VWS V14.01,2013-02-01 15:33:00,
2013-02-01 17:35:00,55.6,23.9,29.47,SSE,158,1.3,2.9,29,0.00,,---,0.00,VWS V14.01,2013-02-01 15:35:00,
2013-02-01 17:36:00,55.6,24.7,29.47,South,180,3.8,3.8,30,0.00,,---,0.00,VWS V14.01,2013-02-01 15:36:00,
2013-02-01 17:37:00,55.4,24.5,29.47,SW,225,0.0,3.8,30,0.00,,---,0.00,VWS V14.01,2013-02-01 15:37:00,
2013-02-01 17:38:00,55.4,24.5,29.50,SSW,202,2.7,2.7,30,0.00,,---,0.00,VWS V14.01,2013-02-01 15:38:00,
2013-02-01 17:39:00,55.4,24.5,29.50,WSW,248,2.7,2.7,30,0.00,,---,0.00,VWS V14.01,2013-02-01 15:39:00,
2013-02-01 17:40:00,55.4,24.5,29.50,ESE,112,1.3,2.7,30,0.00,,---,0.00,VWS V14.01,2013-02-01 15:40:00,
2013-02-01 17:41:00,55.2,24.4,29.50,ESE,112,0.9,1.3,30,0.00,,---,0.00,VWS V14.01,2013-02-01 15:41:00,
2013-02-01 17:42:00,55.2,24.4,29.50,ESE,112,1.1,1.1,30,0.00,,---,0.00,VWS V14.01,2013-02-01 15:42:00,
2013-02-01 17:43:00,55.2,24.4,29.50,West,270,3.1,3.1,30,0.00,,---,0.00,VWS V14.01,2013-02-01 15:43:00,
2013-02-01 17:44:00,55.2,26.6,29.50,South,180,3.4,3.4,33,0.00,,---,0.00,VWS V14.01,2013-02-01 15:44:00,
2013-02-01 17:45:00,55.0,25.7,29.50,ENE,68,1.3,3.4,32,0.00,,---,0.00,VWS V14.01,2013-02-01 15:45:00,
2013-02-01 17:46:00,55.0,26.5,29.50,NW,315,1.1,1.3,33,0.00,,---,0.00,VWS V14.01,2013-02-01 15:46:00,
2013-02-01 17:47:00,55.0,26.5,29.50,SSE,158,1.6,1.6,33,0.00,,---,0.00,VWS V14.01,2013-02-01 15:47:00,
2013-02-01 17:48:00,55.0,26.5,29.50,SSE,158,2.7,2.7,33,0.00,,---,0.00,VWS V14.01,2013-02-01 15:48:00,
2013-02-01 17:49:00,55.0,26.5,29.50,SW,225,3.6,3.6,33,0.00,,---,0.00,VWS V14.01,2013-02-01 15:49:00,
2013-02-01 17:50:00,55.0,26.5,29.50,SE,135,2.2,3.6,33,0.00,,---,0.00,VWS V14.01,2013-02-01 15:50:00,
2013-02-01 17:51:00,54.9,26.3,29.50,SSE,158,2.5,2.5,33,0.00,,---,0.00,VWS V14.01,2013-02-01 15:51:00,
2013-02-01 17:52:00,54.9,26.3,29.50,ENE,68,1.3,2.5,33,0.00,,---,0.00,VWS V14.01,2013-02-01 15:52:00,
2013-02-01 17:53:00,54.9,26.3,29.47,NNE,22,1.6,1.6,33,0.00,,---,0.00,VWS V14.01,2013-02-01 15:53:00,
2013-02-01 17:54:00,54.9,26.3,29.47,ENE,68,2.7,2.7,33,0.00,,---,0.00,VWS V14.01,2013-02-01 15:54:00,
2013-02-01 17:55:00,54.9,26.3,29.47,South,180,2.7,2.7,33,0.00,,---,0.00,VWS V14.01,2013-02-01 15:55:00,
2013-02-01 17:56:00,54.9,27.8,29.47,SE,135,2.7,2.7,35,0.00,,---,0.00,VWS V14.01,2013-02-01 15:56:00,
2013-02-01 17:57:00,54.9,27.8,29.47,SSW,202,3.8,3.8,35,0.00,,---,0.00,VWS V14.01,2013-02-01 15:57:00,
2013-02-01 17:58:00,54.9,27.8,29.47,ENE,68,1.6,3.8,35,0.00,,---,0.00,VWS V14.01,2013-02-01 15:58:00,
2013-02-01 17:59:00,54.7,27.6,29.47,ENE,68,0.0,1.6,35,0.00,,---,0.00,VWS V14.01,2013-02-01 15:59:00,
2013-02-01 18:01:00,54.7,27.6,29.47,South,180,2.0,2.0,35,0.00,,---,0.00,VWS V14.01,2013-02-01 16:01:00,
2013-02-01 18:02:00,54.7,27.6,29.47,WSW,248,2.0,2.0,35,0.00,,---,0.00,VWS V14.01,2013-02-01 16:02:00,
2013-02-01 18:03:00,54.7,28.3,29.47,SSE,158,2.0,2.0,36,0.00,,---,0.00,VWS V14.01,2013-02-01 16:03:00,
2013-02-01 18:04:00,54.7,28.3,29.47,SSE,158,1.3,2.0,36,0.00,,---,0.00,VWS V14.01,2013-02-01 16:04:00,
2013-02-01 18:05:00,54.7,27.6,29.47,South,180,2.7,2.7,35,0.00,,---,0.00,VWS V14.01,2013-02-01 16:05:00,
2013-02-01 18:06:00,54.5,27.4,29.47,SSW,202,1.3,2.7,35,0.00,,---,0.00,VWS V14.01,2013-02-01 16:06:00,
2013-02-01 18:08:00,54.5,28.1,29.47,ESE,112,1.3,1.3,36,0.00,,---,0.00,VWS V14.01,2013-02-01 16:08:00,
2013-02-01 18:09:00,54.5,28.1,29.47,SSE,158,2.0,2.0,36,0.00,,---,0.00,VWS V14.01,2013-02-01 16:09:00,
2013-02-01 18:10:00,54.5,28.1,29.47,SE,135,1.6,2.0,36,0.00,,---,0.00,VWS V14.01,2013-02-01 16:10:00,
2013-02-01 18:11:00,54.5,28.1,29.47,SE,135,3.1,3.1,36,0.00,,---,0.00,VWS V14.01,2013-02-01 16:11:00,
2013-02-01 18:12:00,54.5,28.1,29.47,East,90,1.6,3.1,36,0.00,,---,0.00,VWS V14.01,2013-02-01 16:12:00,
2013-02-01 18:14:00,54.5,28.1,29.47,SSE,158,4.0,4.0,36,0.00,,---,0.00,VWS V14.01,2013-02-01 16:14:00,
2013-02-01 18:16:00,54.3,28.0,29.47,SE,135,0.9,4.0,36,0.00,,---,0.00,VWS V14.01,2013-02-01 16:16:00,
2013-02-01 18:17:00,54.3,28.0,29.47,SE,135,0.0,0.9,36,0.00,,---,0.00,VWS V14.01,2013-02-01 16:17:00,
2013-02-01 18:18:00,54.3,28.0,29.47,SE,135,0.0,0.0,36,0.00,,---,0.00,VWS V14.01,2013-02-01 16:18:00,
2013-02-01 18:19:00,54.3,28.0,29.47,SSE,158,1.6,1.6,36,0.00,,---,0.00,VWS V14.01,2013-02-01 16:19:00,
2013-02-01 18:20:00,54.3,28.0,29.47,SSE,158,2.2,2.2,36,0.00,,---,0.00,VWS V14.01,2013-02-01 16:20:00,
2013-02-01 18:21:00,54.3,28.0,29.47,South,180,5.8,5.8,36,0.00,,---,0.00,VWS V14.01,2013-02-01 16:21:00,
2013-02-01 18:22:00,54.3,28.6,29.47,SSE,158,5.4,5.8,37,0.00,,---,0.00,VWS V14.01,2013-02-01 16:22:00,
2013-02-01 18:23:00,54.3,28.6,29.50,SSE,158,2.0,5.4,37,0.00,,---,0.00,VWS V14.01,2013-02-01 16:23:00,
2013-02-01 18:24:00,54.3,28.6,29.50,South,180,2.9,2.9,37,0.00,,---,0.00,VWS V14.01,2013-02-01 16:24:00,
2013-02-01 18:26:00,54.3,28.6,29.50,SSE,158,3.8,3.8,37,0.00,,---,0.00,VWS V14.01,2013-02-01 16:26:00,
2013-02-01 18:28:00,54.3,29.3,29.50,SSE,158,3.1,3.8,38,0.00,,---,0.00,VWS V14.01,2013-02-01 16:28:00,
2013-02-01 18:29:00,54.3,29.3,29.50,South,180,6.7,6.7,38,0.00,,---,0.00,VWS V14.01,2013-02-01 16:29:00,
2013-02-01 18:30:00,54.3,29.3,29.50,South,180,2.5,6.7,38,0.00,,---,0.00,VWS V14.01,2013-02-01 16:30:00,
2013-02-01 18:31:00,54.3,29.3,29.50,SSE,158,2.7,2.7,38,0.00,,---,0.00,VWS V14.01,2013-02-01 16:31:00,
2013-02-01 18:32:00,54.1,29.1,29.50,SE,135,3.6,3.6,38,0.00,,---,0.00,VWS V14.01,2013-02-01 16:32:00,
2013-02-01 18:33:00,54.1,29.1,29.50,SSE,158,1.6,3.6,38,0.00,,---,0.00,VWS V14.01,2013-02-01 16:33:00,
2013-02-01 18:34:00,54.1,29.1,29.50,SSE,158,2.9,2.9,38,0.00,,---,0.00,VWS V14.01,2013-02-01 16:34:00,
2013-02-01 18:35:00,54.1,29.1,29.50,SSE,158,2.2,2.9,38,0.00,,---,0.00,VWS V14.01,2013-02-01 16:35:00,
2013-02-01 18:36:00,54.1,29.1,29.50,SE,135,1.6,2.2,38,0.00,,---,0.00,VWS V14.01,2013-02-01 16:36:00,
2013-02-01 18:37:00,54.1,29.1,29.50,South,180,2.0,2.0,38,0.00,,---,0.00,VWS V14.01,2013-02-01 16:37:00,
2013-02-01 18:38:00,54.1,29.1,29.50,South,180,2.0,2.0,38,0.00,,---,0.00,VWS V14.01,2013-02-01 16:38:00,
2013-02-01 18:39:00,54.1,29.1,29.50,SSE,158,2.0,2.0,38,0.00,,---,0.00,VWS V14.01,2013-02-01 16:39:00,
2013-02-01 18:40:00,54.0,29.0,29.50,South,180,2.0,2.0,38,0.00,,---,0.00,VWS V14.01,2013-02-01 16:40:00,
2013-02-01 18:41:00,54.0,29.0,29.50,SSE,158,2.2,2.2,38,0.00,,---,0.00,VWS V14.01,2013-02-01 16:41:00,
2013-02-01 18:43:00,54.0,29.0,29.50,SE,135,1.3,2.2,38,0.00,,---,0.00,VWS V14.01,2013-02-01 16:43:00,
2013-02-01 18:44:00,54.0,29.0,29.50,South,180,2.0,2.0,38,0.00,,---,0.00,VWS V14.01,2013-02-01 16:44:00,
2013-02-01 18:45:00,54.0,29.0,29.50,South,180,1.3,2.0,38,0.00,,---,0.00,VWS V14.01,2013-02-01 16:45:00,
2013-02-01 18:46:00,54.0,29.0,29.50,South,180,1.3,1.3,38,0.00,,---,0.00,VWS V14.01,2013-02-01 16:46:00,
2013-02-01 18:47:00,54.0,29.0,29.50,ESE,112,2.7,2.7,38,0.00,,---,0.00,VWS V14.01,2013-02-01 16:47:00,
2013-02-01 18:49:00,54.0,29.6,29.50,SSE,158,2.0,2.7,39,0.00,,---,0.00,VWS V14.01,2013-02-01 16:49:00,
2013-02-01 18:50:00,54.0,29.6,29.50,South,180,0.0,2.0,39,0.00,,---,0.00,VWS V14.01,2013-02-01 16:50:00,
2013-02-01 18:51:00,54.0,29.6,29.50,SSE,158,0.0,0.0,39,0.00,,---,0.00,VWS V14.01,2013-02-01 16:51:00,
2013-02-01 18:52:00,54.0,29.0,29.50,SSE,158,2.5,2.5,38,0.00,,---,0.00,VWS V14.01,2013-02-01 16:52:00,
2013-02-01 18:53:00,53.8,28.8,29.50,South,180,1.1,2.5,38,0.00,,---,0.00,VWS V14.01,2013-02-01 16:53:00,
2013-02-01 18:54:00,53.8,28.8,29.50,South,180,2.0,2.0,38,0.00,,---,0.00,VWS V14.01,2013-02-01 16:54:00,
2013-02-01 18:55:00,53.8,29.4,29.50,South,180,3.6,3.6,39,0.00,,---,0.00,VWS V14.01,2013-02-01 16:55:00,
2013-02-01 18:56:00,53.8,29.4,29.50,SSE,158,2.7,3.6,39,0.00,,---,0.00,VWS V14.01,2013-02-01 16:56:00,
2013-02-01 18:58:00,53.8,29.4,29.50,South,180,0.9,2.7,39,0.00,,---,0.00,VWS V14.01,2013-02-01 16:58:00,
2013-02-01 18:59:00,53.8,29.4,29.50,South,180,0.9,0.9,39,0.00,,---,0.00,VWS V14.01,2013-02-01 16:59:00,
2013-02-01 19:00:00,53.8,29.4,29.50,SSE,158,1.1,1.1,39,0.00,,---,0.00,VWS V14.01,2013-02-01 17:00:00,
2013-02-01 19:01:00,53.8,29.4,29.50,SSE,158,1.3,1.3,39,0.00,,---,0.00,VWS V14.01,2013-02-01 17:01:00,
2013-02-01 19:02:00,53.8,29.4,29.50,SSE,158,2.5,2.5,39,0.00,,---,0.00,VWS V14.01,2013-02-01 17:02:00,
2013-02-01 19:04:00,53.8,30.0,29.50,SSE,158,4.3,4.3,40,0.00,,---,0.00,VWS V14.01,2013-02-01 17:04:00,
2013-02-01 19:05:00,53.8,30.6,29.50,South,180,2.2,4.3,41,0.00,,---,0.00,VWS V14.01,2013-02-01 17:05:00,
2013-02-01 19:07:00,53.8,30.0,29.50,SSE,158,1.6,2.2,40,0.00,,---,0.00,VWS V14.01,2013-02-01 17:07:00,
2013-02-01 19:08:00,53.8,30.0,29.50,SE,135,1.6,1.6,40,0.00,,---,0.00,VWS V14.01,2013-02-01 17:08:00,
2013-02-01 19:09:00,53.8,30.0,29.50,SSW,202,2.5,2.5,40,0.00,,---,0.00,VWS V14.01,2013-02-01 17:09:00,
2013-02-01 19:10:00,53.8,30.0,29.50,SW,225,0.9,2.5,40,0.00,,---,0.00,VWS V14.01,2013-02-01 17:10:00,
2013-02-01 19:11:00,53.8,30.0,29.50,South,180,1.3,1.3,40,0.00,,---,0.00,VWS V14.01,2013-02-01 17:11:00,
2013-02-01 19:13:00,53.6,29.9,29.50,South,180,0.0,1.3,40,0.00,,---,0.00,VWS V14.01,2013-02-01 17:13:00,
2013-02-01 19:14:00,53.6,29.9,29.50,South,180,0.0,0.0,40,0.00,,---,0.00,VWS V14.01,2013-02-01 17:14:00,
2013-02-01 19:15:00,53.6,29.9,29.50,South,180,0.0,0.0,40,0.00,,---,0.00,VWS V14.01,2013-02-01 17:15:00,
2013-02-01 19:16:00,53.6,29.9,29.50,NW,315,2.7,2.7,40,0.00,,---,0.00,VWS V14.01,2013-02-01 17:16:00,
2013-02-01 19:26:00,53.8,31.8,29.50,East,90,2.0,3.6,43,0.00,,---,0.00,VWS V14.01,2013-02-01 17:26:00,
2013-02-01 19:31:00,53.6,31.7,29.50,SW,225,1.3,1.3,43,0.00,,---,0.00,VWS V14.01,2013-02-01 17:31:00,
2013-02-01 19:36:00,53.6,32.2,29.50,NNW,338,1.6,2.0,44,0.00,,---,0.00,VWS V14.01,2013-02-01 17:36:00,
2013-02-01 19:41:00,53.6,32.2,29.50,NNE,22,0.0,1.3,44,0.00,,---,0.00,VWS V14.01,2013-02-01 17:41:00,
2013-02-01 19:47:00,53.6,32.2,29.50,NNW,338,0.0,0.0,44,0.00,,---,0.00,VWS V14.01,2013-02-01 17:47:00,
2013-02-01 19:52:00,53.6,34.4,29.50,South,180,3.4,3.4,48,0.00,,---,0.00,VWS V14.01,2013-02-01 17:52:00,
2013-02-01 19:57:00,53.6,34.4,29.50,South,180,4.0,4.0,48,0.00,,---,0.00,VWS V14.01,2013-02-01 17:57:00,
2013-02-01 20:02:00,53.8,35.1,29.50,SSE,158,3.8,4.3,49,0.00,,---,0.00,VWS V14.01,2013-02-01 18:02:00,
2013-02-01 20:07:00,53.8,35.1,29.50,SE,135,2.2,3.6,49,0.00,,---,0.00,VWS V14.01,2013-02-01 18:07:00,
2013-02-01 20:12:00,53.8,34.6,29.50,SE,135,2.7,3.4,48,0.00,,---,0.00,VWS V14.01,2013-02-01 18:12:00,
2013-02-01 20:17:00,53.6,33.9,29.50,South,180,5.6,5.6,47,0.00,,---,0.00,VWS V14.01,2013-02-01 18:17:00,
2013-02-01 20:22:00,53.6,33.9,29.50,SSE,158,2.5,2.9,47,0.00,,---,0.00,VWS V14.01,2013-02-01 18:22:00,
2013-02-01 20:27:00,53.6,33.3,29.50,SSE,158,0.0,1.1,46,0.00,,---,0.00,VWS V14.01,2013-02-01 18:27:00,
2013-02-01 20:32:00,53.6,33.3,29.50,SSE,158,1.6,2.7,46,0.00,,---,0.00,VWS V14.01,2013-02-01 18:32:00,
2013-02-01 20:37:00,53.4,33.2,29.50,SSE,158,0.0,2.0,46,0.00,,---,0.00,VWS V14.01,2013-02-01 18:37:00,
2013-02-01 20:42:00,53.2,33.0,29.50,SSW,202,1.1,1.6,46,0.00,,---,0.00,VWS V14.01,2013-02-01 18:42:00,
2013-02-01 20:48:00,53.2,32.5,29.50,SSE,158,2.7,2.9,45,0.00,,---,0.00,VWS V14.01,2013-02-01 18:48:00,
2013-02-01 20:53:00,53.2,32.5,29.50,SSE,158,1.1,1.6,45,0.00,,---,0.00,VWS V14.01,2013-02-01 18:53:00,
2013-02-01 20:58:00,53.1,31.7,29.50,SSE,158,0.0,0.0,44,0.00,,---,0.00,VWS V14.01,2013-02-01 18:58:00,
2013-02-01 21:03:00,53.1,31.7,29.50,SSE,158,0.0,0.0,44,0.00,,---,0.00,VWS V14.01,2013-02-01 19:03:00,
2013-02-01 21:08:00,52.9,31.6,29.50,SSE,158,0.0,0.0,44,0.00,,---,0.00,VWS V14.01,2013-02-01 19:08:00,
2013-02-01 21:14:00,52.5,30.1,29.47,SSE,158,0.0,0.0,42,0.00,,---,0.00,VWS V14.01,2013-02-01 19:14:00,
2013-02-01 21:19:00,52.3,30.0,29.50,SSE,158,0.0,0.0,42,0.00,,---,0.00,VWS V14.01,2013-02-01 19:19:00,
2013-02-01 21:24:00,52.3,29.4,29.50,SSE,158,0.0,0.0,41,0.00,,---,0.00,VWS V14.01,2013-02-01 19:24:00,
2013-02-01 21:36:00,52.0,29.0,29.50,SSE,158,0.0,0.0,41,0.00,,---,0.00,VWS V14.01,2013-02-01 19:36:00,
2013-02-01 21:37:00,51.8,28.9,29.50,SSE,158,0.0,0.0,41,0.00,,---,0.00,VWS V14.01,2013-02-01 19:37:00,
2013-02-01 21:38:00,51.8,28.9,29.50,SSE,158,0.0,0.0,41,0.00,,---,0.00,VWS V14.01,2013-02-01 19:38:00,
2013-02-01 21:39:00,51.8,28.9,29.50,SSE,158,1.1,1.1,41,0.00,,---,0.00,VWS V14.01,2013-02-01 19:39:00,
2013-02-01 21:40:00,51.6,28.7,29.50,SSE,158,2.0,2.0,41,0.00,,---,0.00,VWS V14.01,2013-02-01 19:40:00,
2013-02-01 21:41:00,51.6,28.7,29.50,SSE,158,1.1,2.0,41,0.00,,---,0.00,VWS V14.01,2013-02-01 19:41:00,
2013-02-01 21:43:00,51.6,29.3,29.50,SSE,158,1.3,1.3,42,0.00,,---,0.00,VWS V14.01,2013-02-01 19:43:00,
2013-02-01 21:45:00,51.6,29.3,29.50,SSE,158,0.0,1.3,42,0.00,,---,0.00,VWS V14.01,2013-02-01 19:45:00,
2013-02-01 21:46:00,51.6,29.3,29.50,SSE,158,0.0,0.0,42,0.00,,---,0.00,VWS V14.01,2013-02-01 19:46:00,
2013-02-01 21:47:00,51.6,29.3,29.50,SSE,158,0.0,0.0,42,0.00,,---,0.00,VWS V14.01,2013-02-01 19:47:00,
2013-02-01 21:48:00,51.6,29.3,29.50,SSE,158,0.0,0.0,42,0.00,,---,0.00,VWS V14.01,2013-02-01 19:48:00,
2013-02-01 21:49:00,51.6,29.3,29.50,SSE,158,0.0,0.0,42,0.00,,---,0.00,VWS V14.01,2013-02-01 19:49:00,
2013-02-01 21:50:00,51.6,29.3,29.50,SSE,158,0.0,0.0,42,0.00,,---,0.00,VWS V14.01,2013-02-01 19:50:00,
2013-02-01 21:51:00,51.6,28.7,29.50,SSE,158,0.0,0.0,41,0.00,,---,0.00,VWS V14.01,2013-02-01 19:51:00,
2013-02-01 21:52:00,51.4,28.5,29.50,SSE,158,0.0,0.0,41,0.00,,---,0.00,VWS V14.01,2013-02-01 19:52:00,
2013-02-01 21:53:00,51.4,28.5,29.50,SSE,158,0.0,0.0,41,0.00,,---,0.00,VWS V14.01,2013-02-01 19:53:00,
2013-02-01 21:54:00,51.4,28.5,29.50,SSE,158,1.6,1.6,41,0.00,,---,0.00,VWS V14.01,2013-02-01 19:54:00,
2013-02-01 21:55:00,51.4,28.5,29.50,SSE,158,1.6,1.6,41,0.00,,---,0.00,VWS V14.01,2013-02-01 19:55:00,
2013-02-01 21:56:00,51.4,28.5,29.50,SSE,158,1.1,1.6,41,0.00,,---,0.00,VWS V14.01,2013-02-01 19:56:00,
2013-02-01 21:57:00,51.4,29.1,29.50,SSE,158,1.6,1.6,42,0.00,,---,0.00,VWS V14.01,2013-02-01 19:57:00,
2013-02-01 21:58:00,51.4,29.1,29.50,SSE,158,1.3,1.6,42,0.00,,---,0.00,VWS V14.01,2013-02-01 19:58:00,
2013-02-01 21:59:00,51.4,29.1,29.50,SSE,158,1.3,1.3,42,0.00,,---,0.00,VWS V14.01,2013-02-01 19:59:00,
2013-02-01 22:00:00,51.4,29.1,29.50,SSE,158,2.0,2.0,42,0.00,,---,0.00,VWS V14.01,2013-02-01 20:00:00,
2013-02-01 22:01:00,51.4,29.1,29.50,SSE,158,0.0,2.0,42,0.00,,---,0.00,VWS V14.01,2013-02-01 20:01:00,
2013-02-01 22:02:00,51.4,29.1,29.50,SSE,158,0.0,0.0,42,0.00,,---,0.00,VWS V14.01,2013-02-01 20:02:00,
2013-02-01 22:03:00,51.3,29.0,29.50,SSE,158,2.0,2.0,42,0.00,,---,0.00,VWS V14.01,2013-02-01 20:03:00,
2013-02-01 22:04:00,51.3,29.0,29.50,SSE,158,0.0,2.0,42,0.00,,---,0.00,VWS V14.01,2013-02-01 20:04:00,
2013-02-01 22:05:00,51.3,29.0,29.50,SSE,158,0.0,0.0,42,0.00,,---,0.00,VWS V14.01,2013-02-01 20:05:00,
2013-02-01 22:06:00,51.3,29.0,29.50,SSE,158,0.0,0.0,42,0.00,,---,0.00,VWS V14.01,2013-02-01 20:06:00,
2013-02-01 22:07:00,51.3,29.0,29.50,SSE,158,0.0,0.0,42,0.00,,---,0.00,VWS V14.01,2013-02-01 20:07:00,
2013-02-01 22:08:00,51.3,29.0,29.50,SSE,158,0.0,0.0,42,0.00,,---,0.00,VWS V14.01,2013-02-01 20:08:00,
2013-02-01 22:09:00,51.3,29.0,29.50,SSE,158,0.0,0.0,42,0.00,,---,0.00,VWS V14.01,2013-02-01 20:09:00,
2013-02-01 22:10:00,51.3,29.0,29.50,SSE,158,0.0,0.0,42,0.00,,---,0.00,VWS V14.01,2013-02-01 20:10:00,
2013-02-01 22:11:00,51.1,28.2,29.50,SSE,158,0.0,0.0,41,0.00,,---,0.00,VWS V14.01,2013-02-01 20:11:00,
2013-02-01 22:12:00,51.1,28.2,29.50,SSE,158,0.0,0.0,41,0.00,,---,0.00,VWS V14.01,2013-02-01 20:12:00,
2013-02-01 22:13:00,50.9,28.1,29.50,SSE,158,0.0,0.0,41,0.00,,---,0.00,VWS V14.01,2013-02-01 20:13:00,
2013-02-01 22:14:00,50.9,28.1,29.50,SSE,158,1.1,1.1,41,0.00,,---,0.00,VWS V14.01,2013-02-01 20:14:00,
2013-02-01 22:15:00,50.9,28.1,29.50,SSE,158,0.9,1.1,41,0.00,,---,0.00,VWS V14.01,2013-02-01 20:15:00,
2013-02-01 22:16:00,50.9,28.1,29.50,SSE,158,1.1,1.1,41,0.00,,---,0.00,VWS V14.01,2013-02-01 20:16:00,
2013-02-01 22:17:00,50.9,28.6,29.50,SSE,158,1.6,1.6,42,0.00,,---,0.00,VWS V14.01,2013-02-01 20:17:00,
2013-02-01 22:18:00,50.9,28.6,29.50,SSE,158,1.3,1.6,42,0.00,,---,0.00,VWS V14.01,2013-02-01 20:18:00,
2013-02-01 22:19:00,50.7,27.9,29.50,SSE,158,0.0,1.3,41,0.00,,---,0.00,VWS V14.01,2013-02-01 20:19:00,
2013-02-01 22:20:00,50.7,28.5,29.50,SSE,158,0.0,0.0,42,0.00,,---,0.00,VWS V14.01,2013-02-01 20:20:00,
2013-02-01 22:21:00,50.7,28.5,29.50,SSE,158,0.0,0.0,42,0.00,,---,0.00,VWS V14.01,2013-02-01 20:21:00,
2013-02-01 22:22:00,50.7,28.5,29.50,SSE,158,0.0,0.0,42,0.00,,---,0.00,VWS V14.01,2013-02-01 20:22:00,
2013-02-01 22:23:00,50.5,28.3,29.50,SSE,158,1.1,1.1,42,0.00,,---,0.00,VWS V14.01,2013-02-01 20:23:00,
2013-02-01 22:24:00,50.5,28.3,29.50,SSE,158,1.1,1.1,42,0.00,,---,0.00,VWS V14.01,2013-02-01 20:24:00,
2013-02-01 22:25:00,50.5,28.3,29.50,SSE,158,0.9,1.1,42,0.00,,---,0.00,VWS V14.01,2013-02-01 20:25:00,
2013-02-01 22:26:00,50.4,28.2,29.50,SSE,158,0.0,0.9,42,0.00,,---,0.00,VWS V14.01,2013-02-01 20:26:00,
2013-02-01 22:27:00,50.4,28.2,29.50,SSE,158,0.0,0.0,42,0.00,,---,0.00,VWS V14.01,2013-02-01 20:27:00,
2013-02-01 22:28:00,50.4,28.2,29.50,SSE,158,0.0,0.0,42,0.00,,---,0.00,VWS V14.01,2013-02-01 20:28:00,
2013-02-01 22:29:00,50.4,28.2,29.50,SSE,158,0.0,0.0,42,0.00,,---,0.00,VWS V14.01,2013-02-01 20:29:00,
2013-02-01 22:30:00,50.4,28.2,29.50,SSE,158,0.0,0.0,42,0.00,,---,0.00,VWS V14.01,2013-02-01 20:30:00,
2013-02-01 22:31:00,50.2,28.0,29.50,SSE,158,0.0,0.0,42,0.00,,---,0.00,VWS V14.01,2013-02-01 20:31:00,
2013-02-01 22:32:00,50.2,28.0,29.50,SSE,158,0.0,0.0,42,0.00,,---,0.00,VWS V14.01,2013-02-01 20:32:00,
2013-02-01 22:33:00,50.2,28.0,29.50,SSE,158,0.0,0.0,42,0.00,,---,0.00,VWS V14.01,2013-02-01 20:33:00,
2013-02-01 22:34:00,50.2,28.0,29.50,SSE,158,0.0,0.0,42,0.00,,---,0.00,VWS V14.01,2013-02-01 20:34:00,
2013-02-01 22:35:00,50.0,27.8,29.50,SSE,158,0.0,0.0,42,0.00,,---,0.00,VWS V14.01,2013-02-01 20:35:00,
2013-02-01 22:36:00,50.0,27.8,29.50,SSE,158,0.0,0.0,42,0.00,,---,0.00,VWS V14.01,2013-02-01 20:36:00,
2013-02-01 22:37:00,49.8,28.2,29.50,SSE,158,0.0,0.0,43,0.00,,---,0.00,VWS V14.01,2013-02-01 20:37:00,
2013-02-01 22:38:00,49.8,28.2,29.50,SSE,158,0.0,0.0,43,0.00,,---,0.00,VWS V14.01,2013-02-01 20:38:00,
2013-02-01 22:39:00,49.8,28.2,29.50,SSE,158,0.0,0.0,43,0.00,,---,0.00,VWS V14.01,2013-02-01 20:39:00,
2013-02-01 22:40:00,49.6,28.1,29.50,SSE,158,0.0,0.0,43,0.00,,---,0.00,VWS V14.01,2013-02-01 20:40:00,
2013-02-01 22:41:00,49.6,28.1,29.50,SSE,158,0.0,0.0,43,0.00,,---,0.00,VWS V14.01,2013-02-01 20:41:00,
2013-02-01 22:42:00,49.6,28.1,29.50,SSE,158,0.0,0.0,43,0.00,,---,0.00,VWS V14.01,2013-02-01 20:42:00,
2013-02-01 22:43:00,49.6,28.1,29.50,SSE,158,0.0,0.0,43,0.00,,---,0.00,VWS V14.01,2013-02-01 20:43:00,
2013-02-01 22:44:00,49.5,27.9,29.50,SSE,158,0.0,0.0,43,0.00,,---,0.00,VWS V14.01,2013-02-01 20:44:00,
2013-02-01 22:45:00,49.6,28.1,29.50,SSE,158,0.0,0.0,43,0.00,,---,0.00,VWS V14.01,2013-02-01 20:45:00,
2013-02-01 22:46:00,49.5,27.9,29.50,SSE,158,0.0,0.0,43,0.00,,---,0.00,VWS V14.01,2013-02-01 20:46:00,
2013-02-01 22:47:00,49.5,27.9,29.50,SSE,158,1.1,1.1,43,0.00,,---,0.00,VWS V14.01,2013-02-01 20:47:00,
2013-02-01 22:48:00,49.5,27.9,29.50,SSE,158,1.6,1.6,43,0.00,,---,0.00,VWS V14.01,2013-02-01 20:48:00,
2013-02-01 22:49:00,49.5,27.9,29.50,SSE,158,1.6,1.6,43,0.00,,---,0.00,VWS V14.01,2013-02-01 20:49:00,
2013-02-01 22:50:00,49.5,27.9,29.50,SSE,158,1.3,1.6,43,0.00,,---,0.00,VWS V14.01,2013-02-01 20:50:00,
2013-02-01 22:51:00,49.5,27.9,29.50,SSE,158,0.9,1.3,43,0.00,,---,0.00,VWS V14.01,2013-02-01 20:51:00,
2013-02-01 22:52:00,49.5,27.9,29.50,SSE,158,1.3,1.3,43,0.00,,---,0.00,VWS V14.01,2013-02-01 20:52:00,
2013-02-01 22:53:00,49.5,27.9,29.47,SSE,158,0.9,1.3,43,0.00,,---,0.00,VWS V14.01,2013-02-01 20:53:00,
2013-02-01 22:54:00,49.5,27.9,29.47,SSE,158,0.0,0.9,43,0.00,,---,0.00,VWS V14.01,2013-02-01 20:54:00,
2013-02-01 22:55:00,49.5,27.9,29.47,SSE,158,0.0,0.0,43,0.00,,---,0.00,VWS V14.01,2013-02-01 20:55:00,
2013-02-01 22:56:00,49.5,27.9,29.47,SSE,158,0.0,0.0,43,0.00,,---,0.00,VWS V14.01,2013-02-01 20:56:00,
2013-02-01 22:57:00,49.5,28.5,29.47,SSE,158,0.0,0.0,44,0.00,,---,0.00,VWS V14.01,2013-02-01 20:57:00,
2013-02-01 22:58:00,49.3,28.3,29.47,SSE,158,0.0,0.0,44,0.00,,---,0.00,VWS V14.01,2013-02-01 20:58:00,
2013-02-01 22:59:00,49.3,28.3,29.47,SSE,158,0.0,0.0,44,0.00,,---,0.00,VWS V14.01,2013-02-01 20:59:00,
2013-02-01 23:00:00,49.3,28.3,29.47,SSE,158,2.7,2.7,44,0.00,,---,0.00,VWS V14.01,2013-02-01 21:00:00,
2013-02-01 23:01:00,49.3,28.3,29.47,SSE,158,2.9,2.9,44,0.00,,---,0.00,VWS V14.01,2013-02-01 21:01:00,
2013-02-01 23:02:00,49.3,28.3,29.47,SSE,158,1.3,2.9,44,0.00,,---,0.00,VWS V14.01,2013-02-01 21:02:00,
2013-02-01 23:03:00,49.3,28.3,29.47,SSE,158,0.0,1.3,44,0.00,,---,0.00,VWS V14.01,2013-02-01 21:03:00,
2013-02-01 23:04:00,49.3,28.3,29.47,SSE,158,0.0,0.0,44,0.00,,---,0.00,VWS V14.01,2013-02-01 21:04:00,
2013-02-01 23:05:00,49.3,28.3,29.47,SSE,158,0.0,0.0,44,0.00,,---,0.00,VWS V14.01,2013-02-01 21:05:00,
2013-02-01 23:06:00,49.3,28.3,29.47,SSE,158,0.0,0.0,44,0.00,,---,0.00,VWS V14.01,2013-02-01 21:06:00,
2013-02-01 23:07:00,49.3,28.3,29.47,SSE,158,0.0,0.0,44,0.00,,---,0.00,VWS V14.01,2013-02-01 21:07:00,
2013-02-01 23:08:00,49.3,28.3,29.47,SSE,158,0.0,0.0,44,0.00,,---,0.00,VWS V14.01,2013-02-01 21:08:00,
2013-02-01 23:09:00,49.5,28.5,29.47,SSE,158,0.0,0.0,44,0.00,,---,0.00,VWS V14.01,2013-02-01 21:09:00,
2013-02-01 23:10:00,49.5,28.5,29.47,SSE,158,0.0,0.0,44,0.00,,---,0.00,VWS V14.01,2013-02-01 21:10:00,
2013-02-01 23:11:00,49.5,28.5,29.47,SSE,158,0.0,0.0,44,0.00,,---,0.00,VWS V14.01,2013-02-01 21:11:00,
2013-02-01 23:12:00,49.5,28.5,29.47,SSE,158,0.0,0.0,44,0.00,,---,0.00,VWS V14.01,2013-02-01 21:12:00,
2013-02-01 23:13:00,49.3,28.3,29.47,SSE,158,0.0,0.0,44,0.00,,---,0.00,VWS V14.01,2013-02-01 21:13:00,
2013-02-01 23:14:00,49.3,28.3,29.47,SSE,158,0.0,0.0,44,0.00,,---,0.00,VWS V14.01,2013-02-01 21:14:00,
2013-02-01 23:15:00,49.3,28.3,29.47,SSE,158,0.0,0.0,44,0.00,,---,0.00,VWS V14.01,2013-02-01 21:15:00,
2013-02-01 23:16:00,49.3,28.3,29.47,SSE,158,0.0,0.0,44,0.00,,---,0.00,VWS V14.01,2013-02-01 21:16:00,
2013-02-01 23:17:00,49.3,28.3,29.47,SSE,158,0.0,0.0,44,0.00,,---,0.00,VWS V14.01,2013-02-01 21:17:00,
2013-02-01 23:18:00,49.3,28.3,29.47,SSE,158,0.0,0.0,44,0.00,,---,0.00,VWS V14.01,2013-02-01 21:18:00,
2013-02-01 23:19:00,49.3,28.3,29.47,SSE,158,0.0,0.0,44,0.00,,---,0.00,VWS V14.01,2013-02-01 21:19:00,
2013-02-01 23:20:00,49.3,28.3,29.47,SSE,158,0.0,0.0,44,0.00,,---,0.00,VWS V14.01,2013-02-01 21:20:00,
2013-02-01 23:21:00,49.3,28.3,29.47,SSE,158,1.3,1.3,44,0.00,,---,0.00,VWS V14.01,2013-02-01 21:21:00,
2013-02-01 23:22:00,49.3,28.3,29.47,SSE,158,1.6,1.6,44,0.00,,---,0.00,VWS V14.01,2013-02-01 21:22:00,
2013-02-01 23:23:00,49.1,28.1,29.47,SSE,158,2.2,2.2,44,0.00,,---,0.00,VWS V14.01,2013-02-01 21:23:00,
2013-02-01 23:24:00,49.1,28.1,29.47,SSE,158,1.1,2.2,44,0.00,,---,0.00,VWS V14.01,2013-02-01 21:24:00,
2013-02-01 23:25:00,49.1,28.1,29.47,SSE,158,1.3,1.3,44,0.00,,---,0.00,VWS V14.01,2013-02-01 21:25:00,
2013-02-01 23:26:00,49.3,28.9,29.47,SSE,158,1.3,1.3,45,0.00,,---,0.00,VWS V14.01,2013-02-01 21:26:00,
2013-02-01 23:27:00,49.3,28.9,29.47,SSE,158,2.0,2.0,45,0.00,,---,0.00,VWS V14.01,2013-02-01 21:27:00,
2013-02-01 23:28:00,49.3,28.9,29.47,SSE,158,1.1,2.0,45,0.00,,---,0.00,VWS V14.01,2013-02-01 21:28:00,
2013-02-01 23:29:00,49.3,28.9,29.47,SSE,158,1.1,1.1,45,0.00,,---,0.00,VWS V14.01,2013-02-01 21:29:00,
2013-02-01 23:30:00,49.5,29.0,29.47,SSE,158,1.6,1.6,45,0.00,,---,0.00,VWS V14.01,2013-02-01 21:30:00,
2013-02-01 23:31:00,49.5,29.0,29.47,SSE,158,0.9,1.6,45,0.00,,---,0.00,VWS V14.01,2013-02-01 21:31:00,
2013-02-01 23:32:00,49.5,29.0,29.47,SSE,158,0.0,0.9,45,0.00,,---,0.00,VWS V14.01,2013-02-01 21:32:00,
2013-02-01 23:33:00,49.5,29.0,29.47,SSE,158,0.0,0.0,45,0.00,,---,0.00,VWS V14.01,2013-02-01 21:33:00,
2013-02-01 23:34:00,49.6,29.2,29.47,SSE,158,0.0,0.0,45,0.00,,---,0.00,VWS V14.01,2013-02-01 21:34:00,
2013-02-01 23:35:00,49.6,29.2,29.47,SSE,158,0.0,0.0,45,0.00,,---,0.00,VWS V14.01,2013-02-01 21:35:00,
2013-02-01 23:36:00,49.6,29.2,29.47,SSE,158,0.0,0.0,45,0.00,,---,0.00,VWS V14.01,2013-02-01 21:36:00,
2013-02-01 23:37:00,49.6,29.2,29.47,SSE,158,0.0,0.0,45,0.00,,---,0.00,VWS V14.01,2013-02-01 21:37:00,
2013-02-01 23:38:00,49.6,29.2,29.47,SSE,158,0.0,0.0,45,0.00,,---,0.00,VWS V14.01,2013-02-01 21:38:00,
2013-02-01 23:39:00,49.6,29.2,29.47,SSE,158,0.0,0.0,45,0.00,,---,0.00,VWS V14.01,2013-02-01 21:39:00,
2013-02-01 23:40:00,49.6,29.2,29.47,SSE,158,1.3,1.3,45,0.00,,---,0.00,VWS V14.01,2013-02-01 21:40:00,
2013-02-01 23:41:00,49.6,29.2,29.47,SSE,158,2.0,2.0,45,0.00,,---,0.00,VWS V14.01,2013-02-01 21:41:00,
2013-02-01 23:42:00,49.8,29.4,29.47,SSE,158,1.3,2.0,45,0.00,,---,0.00,VWS V14.01,2013-02-01 21:42:00,
2013-02-01 23:43:00,49.8,29.4,29.47,SSE,158,1.6,1.6,45,0.00,,---,0.00,VWS V14.01,2013-02-01 21:43:00,
2013-02-01 23:44:00,50.0,29.5,29.47,SSE,158,1.6,1.6,45,0.00,,---,0.00,VWS V14.01,2013-02-01 21:44:00,
2013-02-01 23:45:00,50.0,29.5,29.47,SSE,158,1.6,1.6,45,0.00,,---,0.00,VWS V14.01,2013-02-01 21:45:00,
2013-02-01 23:46:00,50.0,29.5,29.47,SSE,158,2.5,2.5,45,0.00,,---,0.00,VWS V14.01,2013-02-01 21:46:00,
2013-02-01 23:47:00,50.2,29.7,29.47,SSE,158,1.6,2.5,45,0.00,,---,0.00,VWS V14.01,2013-02-01 21:47:00,
2013-02-01 23:48:00,50.2,29.7,29.47,SSE,158,0.9,1.6,45,0.00,,---,0.00,VWS V14.01,2013-02-01 21:48:00,
2013-02-01 23:49:00,50.4,29.8,29.47,SSE,158,2.0,2.0,45,0.00,,---,0.00,VWS V14.01,2013-02-01 21:49:00,
2013-02-01 23:50:00,50.4,29.8,29.47,SSE,158,1.1,2.0,45,0.00,,---,0.00,VWS V14.01,2013-02-01 21:50:00,
2013-02-01 23:51:00,50.5,30.0,29.47,SSW,202,0.0,1.1,45,0.00,,---,0.00,VWS V14.01,2013-02-01 21:51:00,
2013-02-01 23:52:00,50.7,30.2,29.47,South,180,1.6,1.6,45,0.00,,---,0.00,VWS V14.01,2013-02-01 21:52:00,
2013-02-01 23:53:00,50.7,30.2,29.47,South,180,1.1,1.6,45,0.00,,---,0.00,VWS V14.01,2013-02-01 21:53:00,
2013-02-01 23:54:00,50.9,30.3,29.47,SSE,158,1.6,1.6,45,0.00,,---,0.00,VWS V14.01,2013-02-01 21:54:00,
2013-02-01 23:55:00,50.9,30.3,29.47,SSE,158,1.3,1.6,45,0.00,,---,0.00,VWS V14.01,2013-02-01 21:55:00,
2013-02-01 23:56:00,50.9,30.3,29.47,SE,135,1.6,1.6,45,0.00,,---,0.00,VWS V14.01,2013-02-01 21:56:00,
2013-02-01 23:57:00,50.9,30.3,29.47,SSE,158,1.6,1.6,45,0.00,,---,0.00,VWS V14.01,2013-02-01 21:57:00,
2013-02-01 23:58:00,51.1,30.5,29.47,SSE,158,0.9,1.6,45,0.00,,---,0.00,VWS V14.01,2013-02-01 21:58:00,
2013-02-01 23:59:00,51.1,30.5,29.47,SSE,158,0.0,0.9,45,0.00,,---,0.00,VWS V14.01,2013-02-01 21:59:00,